[[{"header":{"parameterUnit":"m.s-1","parameterCategory":1,"la1":30.6,"la2":29.2853,"lo1":-89.7004,"lo2":-87.6739,"dy":0.0162,"dx":0.0183,"nx":112,"ny":82,"refTime":"2024-02-12T06:00:00:Z","depth":0,"parameterNumber":2,"parameterNumberName":"U-component_of_WINDS"},"data":[0.0,0.0,0.0,0.0,0.0,0.0,0.0,0.0,0.0,0.0,0.0,0.0,0.0,0.0,0.0,0.0,0.0,0.0,0.0,0.0,0.0,0.0,0.0,0.0,0.0,0.0,0.0,0.0,0.0,0.0,0.0,0.0,0.0,0.0,0.0,0.0,0.0,0.0,0.0,0.0,0.0,0.0,0.0,0.0,0.0,0.0,0.0,0.0,0.0,0.0,0.0,0.0,0.0,0.0,0.0,0.0,0.0,0.0,0.0,0.0,0.0,0.0,0.0,0.0,0.0,0.0,0.0,0.0,0.0,0.0,0.0,0.0,0.0,0.0,0.0,0.0,0.0,0.0,0.0,0.0,0.0,0.0,0.0,0.0,0.0,0.0,0.0,0.0,0.0,0.0,-1.8974,-1.8983,-1.9232,-1.9358,-1.9284,-1.9157,-1.8803,-1.8121,0.0,0.0,0.0,0.0,0.0,0.0,0.0,0.0,0.0,0.0,0.0,0.0,0.0,0.0,0.0,0.0,0.0,0.0,0.0,0.0,0.0,0.0,0.0,0.0,0.0,0.0,0.0,0.0,0.0,0.0,0.0,0.0,0.0,0.0,0.0,0.0,0.0,0.0,0.0,0.0,0.0,0.0,0.0,0.0,0.0,0.0,0.0,0.0,0.0,0.0,0.0,0.0,0.0,0.0,0.0,0.0,0.0,0.0,0.0,0.0,0.0,0.0,0.0,0.0,0.0,0.0,0.0,0.0,0.0,0.0,0.0,0.0,0.0,0.0,0.0,0.0,0.0,0.0,0.0,0.0,0.0,0.0,0.0,0.0,0.0,0.0,0.0,0.0,0.0,0.0,0.0,0.0,0.0,0.0,0.0,0.0,0.0,0.0,0.0,0.0,0.0,0.0,0.0,0.0,-1.8655,-1.925,-1.9376,-1.9339,-1.9139,-1.9101,-1.8912,-1.8445,0.0,0.0,0.0,0.0,0.0,0.0,0.0,0.0,0.0,0.0,0.0,0.0,0.0,0.0,0.0,0.0,0.0,0.0,0.0,0.0,0.0,0.0,0.0,0.0,0.0,0.0,0.0,0.0,0.0,0.0,0.0,0.0,0.0,0.0,0.0,0.0,0.0,0.0,0.0,0.0,0.0,0.0,0.0,0.0,0.0,0.0,0.0,0.0,0.0,0.0,0.0,0.0,0.0,0.0,0.0,0.0,0.0,0.0,0.0,0.0,0.0,0.0,0.0,0.0,0.0,0.0,0.0,0.0,0.0,0.0,0.0,0.0,0.0,0.0,0.0,0.0,0.0,0.0,0.0,0.0,0.0,0.0,0.0,0.0,0.0,0.0,0.0,0.0,0.0,0.0,0.0,0.0,0.0,0.0,0.0,0.0,0.0,0.0,0.0,0.0,0.0,0.0,0.0,-1.8481,-1.8784,-1.9339,-1.9376,-1.9284,-1.9101,-1.9101,-1.8931,-1.8537,-1.7093,0.0,0.0,0.0,0.0,0.0,0.0,0.0,0.0,0.0,0.0,0.0,0.0,0.0,0.0,0.0,0.0,0.0,0.0,0.0,0.0,0.0,0.0,0.0,0.0,0.0,0.0,0.0,0.0,0.0,0.0,0.0,0.0,0.0,0.0,0.0,0.0,0.0,0.0,0.0,0.0,0.0,0.0,0.0,0.0,0.0,0.0,0.0,0.0,0.0,0.0,0.0,0.0,0.0,0.0,0.0,0.0,0.0,0.0,0.0,0.0,0.0,0.0,0.0,0.0,0.0,0.0,0.0,0.0,0.0,0.0,0.0,0.0,0.0,0.0,0.0,0.0,0.0,0.0,0.0,0.0,0.0,0.0,0.0,0.0,0.0,0.0,0.0,0.0,0.0,0.0,0.0,0.0,0.0,0.0,0.0,0.0,0.0,0.0,0.0,0.0,0.0,0.0,-1.8903,-1.9105,-1.9376,-1.9358,-1.9265,-1.9101,-1.9157,-1.8988,-1.8537,-1.6927,0.0,0.0,0.0,0.0,0.0,0.0,0.0,0.0,0.0,0.0,0.0,0.0,0.0,0.0,0.0,0.0,0.0,0.0,0.0,0.0,0.0,0.0,0.0,0.0,0.0,0.0,0.0,0.0,0.0,0.0,0.0,0.0,0.0,0.0,0.0,0.0,0.0,0.0,0.0,0.0,0.0,0.0,0.0,0.0,0.0,0.0,0.0,0.0,0.0,0.0,0.0,0.0,0.0,0.0,0.0,0.0,0.0,0.0,0.0,0.0,0.0,0.0,0.0,0.0,0.0,0.0,0.0,0.0,0.0,0.0,0.0,0.0,0.0,0.0,0.0,0.0,0.0,0.0,0.0,0.0,0.0,0.0,0.0,0.0,0.0,0.0,0.0,0.0,0.0,0.0,0.0,0.0,0.0,0.0,0.0,0.0,0.0,0.0,0.0,0.0,0.0,0.0,-1.9024,-1.9581,-1.9413,-1.9395,-1.9321,-1.912,-1.9328,-1.9199,-1.8537,-1.7102,0.0,0.0,0.0,0.0,0.0,0.0,0.0,0.0,0.0,0.0,0.0,0.0,0.0,0.0,0.0,0.0,0.0,0.0,0.0,0.0,0.0,0.0,0.0,0.0,0.0,0.0,0.0,0.0,0.0,0.0,0.0,0.0,0.0,0.0,0.0,0.0,0.0,0.0,0.0,0.0,0.0,0.0,0.0,0.0,0.0,0.0,0.0,0.0,0.0,0.0,0.0,0.0,0.0,0.0,0.0,0.0,0.0,0.0,0.0,0.0,0.0,0.0,0.0,0.0,0.0,0.0,0.0,0.0,0.0,0.0,0.0,0.0,0.0,0.0,0.0,0.0,0.0,0.0,0.0,0.0,0.0,0.0,0.0,0.0,0.0,0.0,0.0,0.0,0.0,0.0,0.0,0.0,0.0,0.0,0.0,0.0,0.0,0.0,0.0,0.0,0.0,0.0,-1.8626,-1.9105,0.0,-1.9302,-1.925,-1.9347,-1.9439,-1.9119,-1.8249,0.0,0.0,0.0,0.0,0.0,0.0,0.0,0.0,0.0,0.0,0.0,0.0,0.0,0.0,0.0,0.0,0.0,0.0,0.0,0.0,0.0,0.0,0.0,0.0,0.0,0.0,0.0,0.0,0.0,0.0,0.0,0.0,0.0,0.0,0.0,0.0,0.0,0.0,0.0,0.0,0.0,0.0,0.0,0.0,0.0,0.0,0.0,0.0,0.0,0.0,0.0,0.0,0.0,0.0,0.0,0.0,0.0,0.0,0.0,0.0,0.0,0.0,0.0,0.0,0.0,0.0,0.0,0.0,0.0,0.0,0.0,0.0,0.0,0.0,0.0,0.0,0.0,0.0,0.0,0.0,0.0,0.0,0.0,0.0,0.0,0.0,0.0,0.0,0.0,0.0,0.0,0.0,0.0,0.0,0.0,0.0,0.0,0.0,0.0,0.0,0.0,0.0,-1.8139,-1.8616,-1.9045,0.0,-1.9325,-1.9347,-1.9493,-1.9693,-1.9272,-1.809,0.0,0.0,0.0,0.0,0.0,0.0,0.0,0.0,0.0,0.0,0.0,0.0,0.0,0.0,0.0,0.0,0.0,0.0,0.0,0.0,0.0,0.0,0.0,0.0,0.0,0.0,0.0,0.0,0.0,0.0,0.0,0.0,0.0,0.0,0.0,0.0,0.0,0.0,0.0,0.0,0.0,0.0,0.0,0.0,0.0,0.0,0.0,0.0,0.0,0.0,0.0,0.0,0.0,0.0,0.0,0.0,0.0,0.0,0.0,0.0,0.0,0.0,0.0,0.0,0.0,0.0,0.0,0.0,0.0,0.0,0.0,0.0,0.0,0.0,0.0,0.0,0.0,0.0,0.0,0.0,0.0,0.0,0.0,0.0,0.0,0.0,0.0,0.0,0.0,0.0,0.0,0.0,0.0,0.0,0.0,0.0,0.0,0.0,0.0,0.0,0.0,0.0,-1.8305,-1.9064,-1.9556,-1.9431,-1.9581,-1.9657,-1.9515,-2.0067,-1.971,0.0,0.0,0.0,0.0,0.0,0.0,0.0,0.0,0.0,0.0,0.0,0.0,0.0,0.0,0.0,0.0,0.0,0.0,0.0,0.0,0.0,0.0,0.0,0.0,0.0,0.0,0.0,0.0,0.0,0.0,0.0,0.0,0.0,0.0,0.0,0.0,0.0,0.0,0.0,0.0,0.0,0.0,0.0,0.0,0.0,0.0,0.0,0.0,0.0,0.0,0.0,0.0,0.0,0.0,0.0,0.0,0.0,0.0,0.0,0.0,0.0,0.0,0.0,0.0,0.0,0.0,0.0,0.0,0.0,0.0,0.0,0.0,0.0,0.0,0.0,0.0,0.0,0.0,0.0,0.0,0.0,0.0,0.0,0.0,0.0,0.0,0.0,0.0,0.0,0.0,0.0,0.0,0.0,0.0,0.0,0.0,0.0,0.0,0.0,0.0,0.0,0.0,0.0,-1.8569,-1.9564,-2.0275,-2.0241,-2.0275,-2.026,-2.0277,-2.0191,-1.9467,-1.7949,0.0,0.0,0.0,0.0,0.0,0.0,0.0,0.0,0.0,0.0,0.0,0.0,0.0,0.0,0.0,0.0,0.0,0.0,0.0,0.0,0.0,0.0,0.0,0.0,0.0,0.0,0.0,0.0,0.0,0.0,0.0,0.0,0.0,0.0,0.0,0.0,0.0,0.0,0.0,0.0,0.0,0.0,0.0,0.0,0.0,0.0,0.0,0.0,0.0,0.0,0.0,0.0,0.0,0.0,0.0,0.0,0.0,0.0,0.0,0.0,0.0,0.0,0.0,0.0,0.0,0.0,0.0,0.0,0.0,0.0,0.0,0.0,0.0,0.0,0.0,0.0,0.0,0.0,0.0,0.0,0.0,0.0,0.0,0.0,0.0,0.0,0.0,0.0,0.0,0.0,0.0,0.0,0.0,0.0,0.0,0.0,0.0,0.0,0.0,0.0,0.0,0.0,-1.9008,-1.9921,-2.0597,-2.0597,-2.0647,-2.0714,-2.0829,-2.0444,-1.9676,-1.8437,0.0,0.0,0.0,0.0,0.0,0.0,0.0,0.0,0.0,0.0,0.0,0.0,0.0,0.0,0.0,0.0,0.0,0.0,0.0,0.0,0.0,0.0,0.0,0.0,0.0,0.0,0.0,0.0,0.0,0.0,0.0,0.0,0.0,0.0,0.0,0.0,0.0,0.0,0.0,0.0,0.0,0.0,0.0,0.0,0.0,0.0,0.0,0.0,0.0,0.0,0.0,0.0,0.0,0.0,0.0,0.0,0.0,0.0,0.0,0.0,0.0,0.0,0.0,0.0,0.0,0.0,0.0,0.0,0.0,0.0,0.0,0.0,0.0,0.0,0.0,0.0,0.0,0.0,0.0,0.0,0.0,0.0,0.0,0.0,0.0,0.0,0.0,0.0,0.0,0.0,0.0,0.0,0.0,0.0,0.0,0.0,0.0,0.0,0.0,0.0,0.0,0.0,-1.951,-2.0229,-2.073,-2.0697,-2.0878,-2.1087,-2.1243,-2.0785,-2.0118,-1.9271,0.0,0.0,0.0,0.0,0.0,0.0,0.0,0.0,0.0,0.0,0.0,0.0,0.0,0.0,0.0,0.0,0.0,0.0,0.0,0.0,0.0,0.0,0.0,0.0,0.0,0.0,0.0,0.0,0.0,0.0,0.0,0.0,0.0,0.0,0.0,0.0,0.0,0.0,0.0,0.0,0.0,0.0,0.0,0.0,0.0,0.0,0.0,0.0,0.0,0.0,0.0,0.0,0.0,0.0,0.0,0.0,0.0,0.0,0.0,0.0,-2.5918,0.0,0.0,0.0,0.0,0.0,0.0,0.0,0.0,0.0,0.0,0.0,0.0,0.0,0.0,0.0,0.0,0.0,0.0,0.0,0.0,0.0,0.0,0.0,0.0,0.0,0.0,0.0,0.0,0.0,0.0,0.0,0.0,0.0,0.0,0.0,0.0,0.0,0.0,0.0,0.0,0.0,-1.9791,-2.0846,-2.16,-2.1539,-2.1718,-2.1822,-2.1763,-2.0925,-2.0094,-1.9337,-1.8064,0.0,0.0,0.0,0.0,0.0,0.0,0.0,0.0,0.0,0.0,0.0,0.0,0.0,0.0,0.0,0.0,0.0,0.0,0.0,0.0,0.0,0.0,0.0,0.0,0.0,0.0,0.0,0.0,0.0,0.0,0.0,0.0,0.0,0.0,0.0,0.0,0.0,0.0,0.0,0.0,0.0,0.0,0.0,0.0,0.0,0.0,0.0,0.0,0.0,0.0,0.0,0.0,0.0,0.0,0.0,0.0,0.0,0.0,0.0,0.0,-2.5684,0.0,0.0,0.0,0.0,0.0,0.0,0.0,0.0,0.0,0.0,0.0,0.0,0.0,0.0,0.0,0.0,0.0,0.0,0.0,0.0,0.0,0.0,0.0,0.0,0.0,0.0,0.0,0.0,0.0,0.0,0.0,0.0,0.0,0.0,0.0,0.0,0.0,0.0,0.0,0.0,-2.0457,-2.1541,-2.2313,-2.2272,-2.233,-2.2358,-2.2419,-2.1206,-2.0341,-2.0037,-1.8608,0.0,0.0,0.0,0.0,0.0,0.0,0.0,0.0,0.0,0.0,0.0,0.0,0.0,0.0,0.0,0.0,0.0,0.0,0.0,0.0,0.0,0.0,0.0,0.0,0.0,0.0,0.0,0.0,0.0,0.0,0.0,0.0,0.0,0.0,0.0,0.0,0.0,0.0,0.0,0.0,0.0,0.0,0.0,0.0,0.0,0.0,0.0,0.0,0.0,0.0,0.0,0.0,0.0,-2.5372,-2.5372,-2.5372,-2.5376,-2.5333,-2.5284,-2.533,-2.5371,-2.539,0.0,0.0,0.0,0.0,0.0,0.0,0.0,0.0,0.0,0.0,0.0,0.0,0.0,0.0,0.0,0.0,0.0,0.0,0.0,0.0,0.0,0.0,0.0,0.0,0.0,-2.3933,-2.3933,0.0,0.0,0.0,0.0,0.0,0.0,0.0,0.0,0.0,0.0,0.0,0.0,-2.13,-2.217,-2.2822,-2.281,-2.2733,-2.2794,-2.3015,-2.1674,-2.0835,-2.0861,-1.9439,-1.8352,0.0,0.0,0.0,0.0,0.0,0.0,0.0,0.0,0.0,0.0,0.0,0.0,0.0,0.0,0.0,0.0,0.0,0.0,0.0,0.0,0.0,0.0,0.0,0.0,0.0,0.0,0.0,0.0,0.0,0.0,0.0,0.0,-2.4543,-2.4537,0.0,0.0,0.0,0.0,0.0,0.0,0.0,0.0,0.0,0.0,0.0,0.0,0.0,-2.529,-2.523,-2.5278,-2.5288,-2.5233,-2.5231,-2.522,-2.522,-2.5222,-2.5222,-2.5212,-2.5231,0.0,-2.5311,-2.5321,0.0,0.0,0.0,0.0,0.0,0.0,0.0,0.0,0.0,0.0,0.0,0.0,0.0,0.0,0.0,0.0,0.0,0.0,0.0,0.0,0.0,0.0,-2.5286,-2.5081,-2.5071,-2.5034,0.0,-2.3523,-2.2443,-2.2077,-2.2015,0.0,0.0,0.0,0.0,0.0,0.0,0.0,-2.2029,-2.2539,-2.2873,-2.281,-2.2995,-2.314,-2.317,-2.2497,-2.1797,-2.1192,-2.0281,-1.9269,-1.8187,-1.7815,0.0,0.0,0.0,0.0,0.0,0.0,0.0,0.0,0.0,0.0,0.0,0.0,0.0,0.0,0.0,0.0,0.0,0.0,0.0,0.0,0.0,0.0,0.0,0.0,0.0,0.0,0.0,0.0,0.0,-2.4655,-2.4578,-2.4655,-2.4802,-2.4948,0.0,0.0,0.0,0.0,0.0,0.0,0.0,0.0,0.0,-2.5087,-2.5124,-2.5156,-2.5206,-2.5225,-2.522,-2.5208,-2.5197,-2.5191,-2.5191,-2.5203,-2.5208,-2.5208,-2.5201,-2.5214,-2.5259,-2.5286,-2.5329,-2.535,0.0,0.0,0.0,0.0,-2.5269,-2.5252,-2.5191,-2.5228,0.0,0.0,0.0,0.0,0.0,0.0,0.0,0.0,0.0,0.0,0.0,0.0,0.0,-2.539,-2.5409,-2.5399,-2.5311,-2.4664,-2.3874,0.0,-2.2782,-2.241,-2.1649,0.0,0.0,0.0,0.0,-2.2492,-2.2578,-2.307,-2.3392,-2.3369,-2.3434,-2.3481,-2.3481,-2.2694,-2.1871,-2.112,-2.0358,-1.9469,-1.8408,-1.8135,-1.7789,0.0,0.0,0.0,0.0,0.0,0.0,0.0,0.0,0.0,0.0,0.0,0.0,0.0,0.0,0.0,0.0,0.0,0.0,0.0,0.0,0.0,0.0,0.0,0.0,0.0,0.0,0.0,0.0,-2.4554,-2.4508,-2.4696,-2.4715,-2.4799,0.0,0.0,0.0,0.0,0.0,0.0,-2.4652,-2.4721,-2.4795,-2.4893,-2.4905,-2.4986,-2.5119,-2.5119,-2.5156,-2.5191,-2.5191,-2.5191,-2.5191,-2.5191,-2.5174,-2.5119,-2.5119,-2.5101,-2.5088,-2.5225,-2.5278,-2.5282,-2.532,-2.5338,-2.5295,-2.5278,-2.527,-2.5281,-2.5324,-2.5359,-2.5371,-2.5371,0.0,-2.5288,-2.5129,0.0,0.0,0.0,0.0,-2.4992,-2.5191,-2.5256,-2.5302,-2.5474,-2.5538,-2.5523,-2.5505,-2.5368,-2.4973,0.0,-2.3681,-2.3249,-2.2391,0.0,0.0,0.0,0.0,-2.3152,-2.3289,-2.367,-2.3899,-2.3899,-2.3792,-2.3754,-2.3797,-2.3027,-2.2143,-2.1271,-2.0663,-1.9826,-1.8694,-1.8521,-1.8328,-1.8065,0.0,0.0,0.0,0.0,0.0,0.0,0.0,0.0,0.0,0.0,0.0,0.0,0.0,0.0,0.0,0.0,0.0,0.0,0.0,0.0,0.0,0.0,0.0,0.0,0.0,0.0,0.0,0.0,0.0,-2.4472,-2.4346,0.0,0.0,0.0,0.0,-2.4521,-2.4514,-2.4506,-2.4506,-2.4572,-2.4606,-2.4623,-2.4689,-2.4787,-2.4915,-2.4915,-2.5006,-2.5191,-2.5191,-2.5191,-2.5191,-2.5191,-2.5101,-2.4915,-2.4915,-2.4832,-2.4753,-2.5076,-2.5207,-2.5201,-2.5208,-2.526,-2.529,-2.5229,-2.5215,-2.5207,-2.5201,-2.5252,-2.5308,-2.5308,-2.5348,-2.5379,-2.5301,-2.5272,0.0,0.0,-2.5379,-2.5412,-2.5616,-2.5673,-2.5657,-2.5607,-2.5598,-2.5583,-2.5517,-2.529,-2.5072,0.0,-2.4917,-2.464,-2.3828,0.0,-2.3686,-2.3593,-2.3632,-2.3843,-2.4351,-2.4284,-2.4182,-2.4182,-2.3949,-2.3876,-2.4064,-2.386,-2.3151,-2.1848,-2.1606,-2.078,-1.9142,-1.8948,-1.8661,-1.8198,-1.8238,0.0,0.0,0.0,0.0,0.0,0.0,0.0,0.0,0.0,0.0,0.0,0.0,0.0,0.0,0.0,0.0,0.0,0.0,0.0,0.0,0.0,0.0,0.0,0.0,0.0,0.0,0.0,0.0,-2.4456,-2.4319,0.0,-2.4481,-2.4389,-2.4301,-2.4319,-2.4192,-2.4099,-2.4099,-2.4183,-2.4275,-2.44,-2.4436,-2.4528,-2.4716,-2.4716,-2.4811,-2.5,-2.5,-2.5069,-2.5191,-2.5191,-2.5168,-2.5095,-2.4967,-2.4874,-2.4825,-2.4851,-2.493,-2.5015,-2.5015,-2.5101,-2.5223,-2.5216,-2.5202,-2.5192,-2.5206,-2.5214,-2.5239,-2.5288,-2.5311,-2.5341,-2.5359,-2.539,-2.5434,-2.5469,-2.5522,-2.5605,-2.5683,-2.5703,-2.5698,-2.5673,-2.5664,-2.5651,-2.5636,-2.5517,-2.5404,-2.5386,-2.5105,-2.4743,-2.4381,-2.4356,-2.4296,-2.4063,-2.4173,-2.4342,-2.454,-2.4466,-2.4398,-2.4398,-2.431,-2.4283,-2.4346,-2.408,-2.3516,-2.2564,-2.1826,-2.0934,-1.9847,-1.9302,-1.8953,-1.8789,-1.8927,-1.8637,0.0,0.0,0.0,0.0,0.0,0.0,0.0,0.0,0.0,0.0,0.0,0.0,0.0,0.0,0.0,0.0,0.0,0.0,0.0,0.0,0.0,0.0,0.0,0.0,0.0,0.0,-2.402,-2.4456,-2.4247,-2.4154,-2.4381,-2.4211,-2.4077,-2.4077,-2.3929,-2.3876,-2.3876,-2.3927,-2.4036,-2.4163,-2.4191,-2.4312,-2.4512,-2.4493,-2.4607,-2.4811,-2.4828,-2.4954,-2.5107,-2.5156,-2.5131,-2.5095,-2.4914,-2.4797,-2.4719,-2.4586,-2.4618,-2.4741,-2.4867,-2.498,-2.5107,-2.5156,-2.5168,-2.5168,-2.5175,-2.5175,-2.5168,-2.5223,-2.5231,-2.5257,-2.5306,-2.5383,-2.5443,-2.5459,-2.553,-2.5609,-2.5593,-2.561,-2.564,-2.5662,-2.5664,-2.5678,-2.5678,-2.5643,-2.5639,-2.5632,-2.5302,-2.4993,-2.4824,-2.4829,-2.4724,-2.4415,-2.4579,-2.4723,-2.4674,-2.4632,-2.459,-2.459,-2.4546,-2.4522,-2.4562,-2.4256,-2.3778,-2.3141,-2.2337,-2.1443,-2.0476,-1.9884,-1.9415,-1.9075,-1.9214,-1.9,-1.8391,0.0,0.0,0.0,0.0,0.0,0.0,0.0,0.0,0.0,0.0,0.0,0.0,0.0,0.0,0.0,0.0,0.0,0.0,0.0,0.0,0.0,0.0,0.0,-2.4144,-2.3959,-2.3971,-2.4412,-2.408,-2.3899,-2.4163,-2.3949,-2.3806,-2.3806,-2.3806,-2.3806,-2.3806,-2.3847,-2.3896,-2.3896,-2.3966,-2.4095,-2.4303,-2.4284,-2.4383,-2.4591,-2.4723,-2.4825,-2.4895,-2.5038,-2.5032,-2.4895,-2.4757,-2.4594,-2.4389,-2.4266,-2.4275,-2.4424,-2.4756,-2.4895,-2.4908,-2.5038,-2.5095,-2.5095,-2.5082,-2.5095,-2.5101,-2.5101,-2.5101,-2.5106,-2.5187,-2.5244,-2.5303,-2.5376,-2.5406,-2.5402,-2.5392,-2.5454,-2.5513,-2.5584,-2.5593,-2.5604,-2.5604,-2.5642,-2.5709,-2.5708,-2.5591,-2.5441,-2.5243,-2.5159,-2.5028,-2.4758,-2.4891,0.0,-2.4843,-2.4811,-2.4804,-2.4804,-2.4648,-2.457,-2.4697,-2.4417,-2.4021,-2.3578,-2.3215,-2.2403,-2.104,-2.0718,-2.0099,-1.9095,-1.9105,-1.9083,-1.9016,0.0,0.0,0.0,0.0,0.0,0.0,0.0,0.0,0.0,0.0,0.0,0.0,0.0,0.0,0.0,0.0,0.0,0.0,0.0,0.0,0.0,-2.3674,-2.3689,-2.3891,-2.385,-2.3852,-2.3981,-2.387,-2.3827,-2.3899,-2.3847,-2.3806,-2.3806,-2.3806,-2.3806,-2.3806,-2.3816,-2.3827,-2.3827,-2.3855,-2.3888,-2.4008,-2.4008,-2.4135,-2.4374,-2.4418,-2.4501,-2.4617,-2.4804,-2.4861,-2.4825,-2.4782,-2.4651,-2.4456,-2.4339,-2.421,-2.4126,-2.4371,-2.4554,-2.4674,-2.4674,-2.4756,-2.4874,-2.4879,-2.4985,-2.5101,-2.5101,-2.5108,-2.5101,-2.5119,-2.5176,-2.5238,-2.5244,-2.5278,-2.5332,-2.5321,-2.5332,-2.5369,-2.5432,-2.5496,-2.5546,-2.5583,-2.5615,-2.5623,-2.5625,-2.5638,-2.5612,-2.5515,-2.5425,-2.5356,-2.5226,-2.5202,0.0,-2.5224,-2.5156,-2.5096,-2.5094,-2.4993,-2.4947,-2.4985,-2.4723,-2.4557,-2.4513,-2.3787,-2.322,-2.2943,-2.2306,-2.1512,-2.0615,-1.9748,-1.9254,0.0,0.0,0.0,0.0,0.0,0.0,0.0,0.0,0.0,0.0,0.0,0.0,0.0,0.0,0.0,0.0,0.0,0.0,0.0,0.0,0.0,0.0,-2.3253,-2.3242,-2.3324,-2.356,-2.3721,-2.375,-2.375,-2.375,-2.375,-2.375,-2.375,-2.375,-2.375,-2.3761,-2.381,-2.381,-2.3803,-2.3795,-2.3806,-2.3816,-2.3865,-2.3865,-2.3958,-2.4125,-2.4182,-2.4293,-2.4415,-2.4599,-2.4666,0.0,-2.4604,-2.4526,-2.4389,-2.4238,-2.4105,0.0,0.0,0.0,0.0,0.0,-2.4556,-2.4628,-2.4628,-2.4708,-2.4827,-2.491,-2.4938,-2.494,-2.5025,-2.5107,-2.5153,-2.5122,-2.513,-2.5189,-2.521,-2.5212,-2.5225,-2.5294,-2.5369,-2.5432,-2.5496,-2.5549,-2.5576,-2.5594,0.0,0.0,-2.5631,-2.5582,-2.5493,-2.5347,-2.5348,-2.536,-2.5279,-2.5288,-2.5272,-2.5286,-2.5216,-2.5198,-2.5215,-2.4973,0.0,0.0,0.0,-2.4036,-2.3757,-2.2922,0.0,0.0,0.0,-2.0619,-2.0626,0.0,0.0,0.0,-1.842,-1.7885,0.0,0.0,0.0,0.0,0.0,0.0,0.0,0.0,0.0,0.0,0.0,0.0,0.0,0.0,0.0,0.0,-2.2695,-2.2669,-2.2699,-2.3164,-2.3522,-2.3594,-2.3605,-2.3605,-2.3605,-2.3627,-2.3638,-2.3638,-2.3689,-2.3721,-2.3793,0.0,0.0,0.0,0.0,-2.3795,-2.3806,-2.3806,-2.3827,-2.3896,-2.4009,-2.4126,-2.4247,-2.4392,-2.4441,-2.4447,-2.4356,-2.4294,-2.4266,-2.4067,-2.4006,-2.4006,-2.4182,-2.4247,-2.4266,-2.4383,-2.4399,0.0,-2.4363,0.0,0.0,-2.461,-2.4681,-2.4697,-2.4919,-2.5005,-2.5044,-2.5012,-2.5005,-2.4999,-2.5076,-2.5088,-2.5119,-2.5174,-2.5231,-2.5292,-2.536,-2.5437,-2.5498,-2.5556,-2.5582,-2.5594,-2.5676,-2.5636,-2.5518,-2.5284,-2.5392,-2.5425,-2.5193,-2.5302,-2.5405,-2.5405,0.0,0.0,-2.5385,-2.5173,-2.5139,-2.5372,-2.5243,-2.4788,-2.402,-2.3098,-2.2612,-2.2685,-2.2452,-2.2435,-2.2634,-2.2444,-2.2357,-2.2281,-1.9659,-1.8587,0.0,0.0,0.0,0.0,0.0,0.0,0.0,0.0,0.0,0.0,0.0,0.0,0.0,0.0,0.0,-2.2695,-2.2621,-2.2586,-2.2669,-2.2803,-2.2905,-2.2965,-2.296,-2.296,-2.296,-2.3218,-2.3371,-2.3371,-2.3571,-2.37,-2.3711,-2.3721,-2.3743,-2.3797,-2.3797,-2.38,-2.3795,-2.3806,-2.3806,-2.3816,0.0,0.0,-2.3899,-2.4097,-2.4192,-2.4183,-2.431,-2.4293,-2.4135,-2.4097,-2.3989,-2.3837,-2.3947,-2.3929,-2.3899,-2.3929,-2.402,-2.4155,-2.4155,-2.4265,-2.4407,-2.4459,-2.4449,-2.4491,-2.4696,-2.4768,0.0,-2.4964,-2.4991,-2.4998,-2.503,-2.5011,-2.5037,-2.5094,-2.5136,-2.5168,-2.522,-2.5288,-2.5367,-2.5438,-2.5435,-2.5476,-2.5593,-2.5602,-2.5602,-2.5603,-2.5591,-2.5574,-2.5575,-2.5525,-2.5482,-2.5477,-2.5421,-2.5352,-2.5325,-2.527,-2.5298,-2.5381,-2.5409,-2.533,-2.5108,-2.4238,-2.3774,-2.3781,-2.3021,-2.2699,-2.2846,-2.2686,-2.2625,-2.2595,-2.1615,-2.1092,0.0,0.0,0.0,0.0,0.0,0.0,0.0,0.0,0.0,0.0,0.0,-2.2248,-2.2368,0.0,-2.2124,-2.2192,-2.2136,-2.2139,-2.224,-2.224,-2.2361,-2.2704,-2.2742,-2.2742,-2.2742,-2.2887,-2.2993,-2.2993,-2.3116,-2.32,-2.3189,-2.3353,-2.3481,-2.3549,-2.3678,-2.3754,-2.3739,-2.3789,-2.38,-2.38,-2.3803,-2.3806,-2.3806,-2.3891,-2.3959,-2.3959,-2.4049,-2.4039,-2.3959,-2.3959,-2.3899,-2.3806,-2.3842,-2.3824,-2.3795,-2.3792,-2.3855,-2.3955,-2.3907,-2.3978,-2.4068,-2.4164,-2.4192,-2.4247,-2.4441,-2.4526,-2.4567,-2.4673,-2.4681,-2.4647,-2.4647,-2.4696,-2.4761,-2.4794,-2.4851,-2.4946,-2.5069,-2.5122,-2.5171,-2.5283,-2.5307,-2.5348,-2.5485,-2.5492,-2.5555,-2.5684,-2.5639,-2.5612,-2.569,-2.5647,-2.5603,-2.5591,-2.5532,-2.5507,-2.5506,-2.5495,-2.5515,-2.5549,-2.5552,-2.5539,-2.5504,-2.508,-2.4829,-2.48,-2.4334,-2.4103,-2.4109,-2.4033,-2.3986,-2.3932,-2.3637,-2.2922,0.0,0.0,0.0,0.0,0.0,0.0,0.0,0.0,-2.1797,-2.1913,-2.1753,-2.1664,-2.1884,-2.1723,-2.1588,-2.1664,-2.1664,-2.1663,-2.1753,-2.1753,-2.1943,-2.2463,-2.2531,-2.2527,-2.2527,-2.2567,-2.2594,-2.2594,-2.266,-2.2695,-2.2699,-2.2963,-2.317,-2.3277,-2.3492,-2.3627,-2.37,-2.3743,-2.3783,-2.3783,-2.3771,-2.3792,-2.3803,-2.3792,-2.3792,-2.3803,-2.3786,-2.3768,-2.3782,-2.3721,-2.37,-2.37,-2.3631,-2.3653,-2.371,-2.3765,-2.3783,-2.3765,-2.3711,-2.37,-2.3732,-2.3884,-2.3947,-2.3971,-2.409,-2.4238,-2.4319,-2.4301,-2.4282,-2.4273,-2.4273,-2.4353,-2.4451,-2.4495,-2.4578,-2.4704,-2.4905,-2.494,-2.4974,-2.5103,-2.5113,-2.5154,-2.5299,-2.5317,-2.5396,-2.5647,-2.564,-2.5624,-2.5663,-2.5698,-2.5695,-2.5695,-2.5657,-2.5648,-2.5707,-2.5699,-2.5694,-2.5696,-2.5642,-2.5613,-2.563,-2.5601,-2.5565,-2.5517,-2.5507,-2.546,-2.5352,-2.535,-2.5303,-2.5234,-2.5168,-2.4252,-2.23,-2.2381,-2.2327,-2.1982,-2.2124,-2.2161,0.0,0.0,-2.1913,-2.1694,-2.162,-2.162,-2.1634,-2.151,-2.1464,-2.1588,-2.151,-2.148,-2.1603,-2.162,-2.1664,-2.1797,-2.1855,-2.1899,-2.1899,-2.211,-2.2248,-2.2248,-2.2541,-2.2699,-2.2699,-2.2743,-2.291,-2.3206,-2.3242,-2.3394,-2.37,-2.3711,-2.3711,-2.3711,-2.3711,-2.3743,-2.3797,-2.3743,-2.3743,-2.3804,-2.3732,-2.3711,-2.3682,-2.3452,-2.3359,-2.3318,-2.3026,-2.3092,-2.3383,-2.3616,-2.3711,-2.3711,-2.37,-2.37,-2.37,-2.3732,-2.3725,-2.3725,-2.361,-2.3803,-2.4019,-2.3891,-2.4026,-2.421,-2.421,-2.4219,-2.4273,-2.4459,-2.4512,-2.4561,-2.4689,-2.4738,-2.4757,-2.483,-2.4838,-2.4891,-2.5024,-2.5049,-2.5173,-2.5557,-2.5591,-2.5599,-2.5602,-2.5657,-2.5702,-2.5702,-2.5683,-2.5696,-2.5694,-2.5708,-2.5707,-2.5691,-2.5686,-2.5681,-2.5696,-2.5629,-2.5609,-2.5595,-2.5522,-2.5517,-2.5561,-2.5517,-2.5432,-2.5382,-2.5308,-2.499,-2.1792,-2.179,-2.1718,-2.1586,-2.169,-2.1733,-2.1417,-2.1509,-2.1616,-2.1465,-2.1434,-2.1434,-2.1434,-2.1371,-2.1371,0.0,-2.1449,-2.1449,-2.1589,-2.1604,-2.162,-2.1634,-2.1709,-2.1753,-2.1797,-2.1913,-2.1969,-2.1969,-2.2099,-2.2169,-2.2169,-2.2731,-2.3106,-2.3257,-2.3838,-2.4292,-2.4635,-2.4672,-2.4685,-2.4685,-2.4728,-2.4667,-2.4499,-2.4473,-2.4554,-2.4734,-2.4741,-2.4479,-2.4029,-2.3969,-2.3564,-2.2995,-2.281,-2.284,-2.2995,-2.3295,-2.3504,-2.3641,-2.3607,-2.3578,-2.3578,-2.3578,-2.3492,-2.3406,-2.3341,-2.3311,-2.3294,-2.3223,-2.3268,-2.3343,-2.3343,-2.3498,-2.3694,-2.3785,-2.4002,-2.4238,-2.4329,-2.4355,-2.4417,-2.4588,-2.4527,-2.4548,-2.4836,-2.4816,-2.4879,-2.5202,-2.5313,-2.5371,-2.5425,-2.5558,-2.5642,-2.5647,-2.5634,-2.5638,-2.564,-2.5683,-2.5703,-2.5703,-2.57,-2.5695,-2.5694,-2.5667,-2.5663,-2.5665,-2.5632,-2.5616,-2.5601,-2.5571,-2.5492,-2.541,-2.5365,-2.5284,-2.1371,-2.134,-2.1293,-2.1293,-2.134,-2.1371,-2.1309,-2.134,-2.1371,-2.1309,-2.1293,-2.1293,-2.1293,-2.1293,-2.1309,-2.1355,-2.1371,-2.1418,-2.1496,-2.1528,-2.1511,-2.1542,-2.1603,-2.1648,-2.1738,-2.1783,-2.1812,-2.1812,-2.1812,-2.1895,-2.2079,-2.2789,-2.3323,-2.3583,-2.4302,-2.4844,-2.5157,-2.5212,-2.5226,-2.524,-2.5277,-2.5195,-2.4971,-2.4971,-2.507,-2.524,-2.5291,-2.4975,-2.4441,-2.4414,-2.3932,-2.3229,-2.3107,-2.2987,-2.2892,-2.315,-2.3284,-2.333,-2.3313,-2.3271,-2.3271,-2.3271,-2.317,-2.3042,-2.295,-2.2832,-2.2708,-2.263,-2.2604,-2.2617,-2.2617,-2.2835,-2.3069,-2.3141,-2.3403,-2.3664,-2.3764,-2.3834,-2.3915,-2.41,-2.4081,-2.4118,-2.4425,-2.4427,-2.4462,-2.4644,-2.4816,-2.5008,-2.5181,-2.5331,-2.5434,-2.5461,-2.5498,-2.5527,-2.5527,-2.5599,-2.5652,-2.5672,-2.5661,-2.5644,-2.5663,-2.5663,-2.5664,-2.5664,-2.5683,-2.5675,-2.5594,-2.5614,-2.5566,-2.545,-2.5436,-2.543,-2.1293,-2.1293,-2.1293,-2.1293,-2.1293,-2.1293,-2.1293,-2.1293,-2.1293,-2.1293,-2.1293,-2.1293,-2.1293,-2.1293,-2.1293,-2.1293,-2.1293,-2.1293,-2.1325,-2.1325,-2.1324,-2.1402,-2.1402,-2.1464,0.0,-2.1723,-2.1812,-2.1812,-2.1812,-2.2096,-2.2824,-2.2906,-2.3362,-2.4329,-2.4395,-2.4549,-2.4812,-2.4812,-2.4812,-2.4812,-2.4812,-2.4856,-2.4899,-2.4899,-2.487,-2.4812,-2.4812,-2.4795,-2.4763,-2.4515,-2.4375,-2.4345,-2.4063,-2.3692,-2.3291,-2.3274,-2.3047,-2.273,-2.2712,-2.2712,-2.2712,-2.2712,-2.273,-2.2647,-2.2317,-2.2354,-2.2445,-2.2192,-2.2261,-2.2409,-2.2409,-2.2422,-2.2485,-2.2759,-2.2784,-2.2792,-2.2987,-2.3141,-2.3234,-2.3234,-2.3435,-2.3621,-2.3631,-2.3746,-2.3837,-2.3847,-2.4052,-2.4416,-2.493,-2.5017,-2.5033,-2.5117,-2.5239,-2.5308,-2.5308,-2.5435,-2.5525,-2.5603,-2.5547,-2.5547,-2.5605,-2.5593,-2.5598,-2.5598,-2.5672,-2.5662,-2.5605,-2.5674,-2.5662,-2.5583,-2.5534,-2.5456,-2.1293,-2.1293,-2.1293,-2.1293,-2.1293,-2.1293,-2.1293,-2.1293,-2.1293,-2.1293,-2.1293,-2.1293,-2.1293,-2.1293,-2.1293,-2.1293,-2.1293,-2.1293,-2.1293,-2.1293,-2.1309,-2.1324,-2.1371,0.0,0.0,0.0,0.0,-2.1664,-2.2092,-2.2438,-2.2684,-2.3621,-2.4313,-2.4646,-2.5177,-2.5597,-2.5928,-2.6027,-2.606,-2.606,-2.5832,-2.5698,-2.5631,-2.5715,-2.5865,-2.606,-2.606,-2.5722,-2.52,-2.5089,-2.4627,-2.3918,-2.3885,-2.3736,-2.357,-2.3618,-2.3216,-2.2636,-2.2583,-2.2573,-2.256,-2.252,-2.2388,-2.2209,-2.2096,-2.1998,-2.1868,-2.1781,-2.1628,-2.1458,-2.1458,-2.1607,-2.1766,-2.185,-2.2194,-2.2512,-2.2587,-2.2652,-2.2699,-2.2838,-2.2977,-2.3129,-2.3293,-2.3408,-2.3544,-2.3774,-2.4023,-2.4341,-2.475,-2.4795,-2.4854,-2.5019,-2.5081,-2.5107,-2.5107,-2.5134,-2.5176,-2.5196,-2.5318,-2.5387,-2.5407,-2.5489,-2.5526,-2.5526,-2.5597,-2.5611,-2.5594,-2.5614,-2.5625,-2.5593,-2.5589,-2.5546,-2.1198,-2.123,-2.123,-2.1294,-2.1293,-2.1293,-2.1293,-2.1293,-2.1293,-2.1293,-2.1293,-2.1293,-2.1293,-2.1246,-2.123,-2.1293,-2.1246,-2.1262,-2.1293,-2.1293,-2.1293,-2.1293,-2.134,-2.1469,0.0,0.0,0.0,-2.195,-2.2359,-2.2818,-2.3358,-2.4276,-2.4914,-2.5176,-2.5689,-2.6082,-2.628,-2.6383,-2.6401,-2.6418,-2.6205,-2.6043,-2.5972,-2.6043,-2.6222,-2.6401,-2.6401,-2.6099,-2.558,-2.558,-2.5143,-2.4488,-2.4524,-2.436,-2.4095,-2.413,-2.357,-2.2703,-2.245,-2.2176,-2.1929,-2.177,-2.1609,-2.1491,-2.1613,-2.1385,-2.1119,-2.1246,-2.0958,-2.0616,-2.0681,-2.0813,-2.0943,-2.099,-2.1318,-2.165,-2.183,-2.1859,-2.196,-2.2286,-2.2402,-2.2493,-2.2673,-2.2792,-2.2972,-2.3375,-2.3585,-2.389,-2.4402,-2.4452,-2.4492,-2.4632,-2.4682,-2.4718,-2.4718,-2.4809,-2.4897,-2.4884,-2.5051,-2.5163,-2.5152,-2.5247,-2.5298,-2.5298,-2.5353,-2.5414,-2.5463,-2.5485,-2.5531,-2.5602,-2.5603,-2.5605,-2.1055,-2.1103,-2.1119,-2.1246,-2.1294,-2.1294,-2.1277,-2.1294,-2.1293,-2.1293,-2.1309,-2.1293,0.0,0.0,-2.1151,-2.1278,-2.1167,-2.1119,-2.1246,-2.1262,-2.1262,0.0,0.0,0.0,0.0,0.0,0.0,-2.2622,0.0,-2.3292,-2.4683,-2.4797,-2.5141,-2.5828,-2.586,-2.5862,-2.5881,-2.5862,-2.5844,-2.5826,-2.5826,-2.5844,-2.586,-2.5862,-2.5879,-2.5897,-2.5897,-2.5897,-2.5881,-2.5881,-2.5862,-2.5844,-2.586,-2.5401,-2.4778,-2.4778,-2.4042,-2.2931,-2.233,-2.1646,-2.0958,-2.0628,-2.0496,-2.0548,-2.0845,-2.0582,-2.026,-2.0565,-2.028,-1.9899,-2.0015,-2.0065,-2.01,-2.0212,-2.0227,-2.0311,-2.0763,-2.0845,-2.1007,-2.1509,-2.1676,-2.1751,-2.1766,-2.1913,-2.2153,-2.2686,-2.2764,-2.3061,-2.3865,-2.3958,-2.3976,-2.3986,-2.4089,-2.4174,-2.4174,-2.446,-2.4633,-2.4633,-2.4776,-2.4857,-2.4865,-2.4885,-2.491,-2.4885,-2.4964,-2.5066,-2.5183,-2.5246,-2.5388,-2.5588,-2.558,-2.5622,-2.1087,-2.1103,-2.1119,-2.1151,-2.1151,-2.1103,-2.0958,-2.1119,-2.1262,-2.1167,-2.123,-2.1293,0.0,0.0,0.0,-2.1151,-2.099,0.0,-2.0925,-2.0761,0.0,-2.125,0.0,-2.1334,-2.1979,-2.2022,0.0,0.0,-2.3649,-2.4057,-2.4135,-2.4611,-2.4962,-2.5137,-2.5246,-2.5438,-2.5738,-2.5513,-2.5176,-2.4772,-2.4883,-2.5056,-2.5301,-2.5362,-2.5567,-2.5897,-2.5897,-2.5844,-2.5738,-2.5738,-2.5532,-2.5173,-2.5266,-2.4941,-2.4429,-2.4481,-2.3924,-2.3068,-2.2646,-2.1932,-2.1175,-2.0947,-2.0571,-2.0206,-2.0177,-2.0076,-1.9987,-2.0091,-1.9826,-1.9536,-1.957,-1.957,-1.9588,-1.9627,-1.9808,-2.0004,-2.0126,-2.016,-2.0195,-2.0316,-2.0699,-2.1118,-2.1507,-2.1736,-2.1943,-2.2184,-2.2292,-2.2621,-2.338,-2.3488,-2.3533,-2.3682,-2.3738,-2.3751,-2.3751,-2.3826,-2.3886,-2.3878,-2.4181,-2.4389,-2.4379,-2.4707,-2.4883,-2.4836,-2.4892,-2.4949,-2.4986,-2.5031,-2.5173,-2.5379,-2.5386,-2.5462,-2.0811,-2.0844,-2.086,-2.0942,-2.1023,-2.1071,-2.0958,-2.1119,-2.1277,-2.1198,-2.1262,-2.1293,-2.1293,-2.1119,-2.1006,0.0,0.0,0.0,-2.0628,-2.0495,-2.0572,0.0,-2.0975,0.0,-2.2202,-2.2293,-2.2621,0.0,-2.3709,-2.3906,-2.4076,-2.4416,-2.4639,-2.4639,-2.4715,-2.4855,-2.5075,-2.4899,-2.4659,-2.4359,-2.4436,-2.4574,-2.4735,-2.4795,-2.4934,-2.5114,0.0,-2.5269,-2.502,-2.5234,-2.502,-2.4558,-2.4619,-2.4436,-2.4141,-2.4173,-2.3768,-2.3179,-2.2948,-2.2235,-2.1376,-2.1024,-2.0451,-1.9931,-2.0045,-1.976,-1.9409,-1.9543,-1.9299,-1.9011,-1.9082,-1.9087,-1.9087,-1.9128,-1.9281,-1.9467,-1.9648,-1.9612,-1.9594,-1.974,-2.0006,-2.0334,-2.0716,-2.083,-2.1007,-2.1366,-2.1487,-2.1782,-2.2424,-2.2835,-2.3153,-2.3365,-2.3347,-2.3353,-2.3376,-2.3398,-2.3444,-2.3477,-2.3767,-2.3939,-2.3939,-2.4201,-2.4315,-2.4271,-2.4427,-2.4524,-2.4584,-2.4747,-2.4924,-2.5119,-2.5216,-2.5318,-2.046,-2.051,-2.0544,-2.0712,-2.0893,-2.1022,-2.1022,-2.1151,-2.1262,-2.1262,-2.1294,-2.1293,-2.1293,-2.1055,-2.0893,-2.1038,0.0,-2.046,-2.0342,-2.0291,-2.0395,-2.0764,-2.0779,-2.127,-2.2609,-2.2744,-2.3005,-2.3685,-2.3215,-2.3279,-2.411,-2.4141,-2.4141,-2.4141,-2.4219,-2.4219,-2.4141,-2.4177,-2.4156,-2.4073,-2.4094,-2.4114,-2.4141,-2.4141,-2.412,-2.4105,0.0,0.0,-2.4105,-2.4583,-2.4461,-2.3979,-2.3979,-2.3873,-2.373,-2.373,-2.3471,-2.312,-2.312,-2.246,-2.153,-2.104,-2.0396,-1.9861,-2.0205,-1.9589,-1.8844,-1.9108,-1.8803,-1.8406,-1.8484,-1.8542,-1.8581,-1.863,-1.8707,-1.886,-1.9203,-1.9143,-1.9105,-1.9431,-1.9503,-1.9576,-1.9793,-1.9752,-1.9877,-2.0468,-2.0585,-2.0765,-2.1275,-2.2093,-2.2699,-2.2871,-2.2889,-2.2889,-2.2952,-2.3049,-2.3135,-2.3206,-2.3392,-2.3522,-2.3522,-2.3566,-2.3577,-2.3555,-2.3816,-2.402,-2.4127,-2.4393,-2.4636,-2.4852,-2.5018,-2.5135,-2.0494,-2.051,-2.051,-2.0544,-2.0578,-2.0611,-2.0611,-2.0876,0.0,-2.1119,-2.1214,-2.1293,-2.1293,-2.1151,-2.099,-2.0876,-2.0662,-2.0359,-1.9947,-1.9711,-1.9878,0.0,-2.0649,-2.1062,-2.2331,-2.246,0.0,0.0,0.0,-2.2759,-2.3348,-2.3391,-2.3391,-2.3391,-2.3773,-2.3773,-2.3391,-2.3493,-2.3334,-2.2896,-2.3015,-2.3179,-2.3391,-2.3391,-2.3601,-2.3943,-2.4027,0.0,-2.3943,-2.4027,-2.3779,-2.3363,-2.3363,-2.3143,-2.2828,-2.2828,-2.2768,-2.27,-2.27,-2.2216,-2.1568,-2.1417,-2.0926,-2.0359,-2.0387,-1.9886,-1.9256,-1.916,-1.8501,-1.7787,-1.7592,-1.7707,-1.7882,-1.7888,-1.8234,-1.8562,-1.8639,-1.862,-1.8697,-1.8974,-1.9016,-1.9124,-1.9435,-1.9551,-1.9666,-1.9776,-1.9919,-2.0147,-2.0469,-2.1227,-2.1748,-2.1777,-2.201,-2.2184,-2.2181,-2.2463,-2.2655,-2.2721,-2.2958,-2.3105,-2.3105,-2.3426,-2.3522,-2.3357,-2.3555,-2.3706,-2.3801,-2.3933,-2.4229,-2.4651,-2.4632,-2.4769,-2.0357,-2.0407,-2.0407,-2.0407,-2.0443,-2.0527,-2.0628,-2.0893,0.0,-2.1199,-2.1198,-2.1214,-2.1294,-2.1103,-2.0909,-2.0811,-2.0512,-2.0118,-1.9657,-1.9343,-1.9503,-2.0478,-2.05,-2.0937,0.0,-2.2301,-2.2324,0.0,0.0,-2.2472,-2.2867,-2.2889,-2.2889,-2.2889,-2.3113,-2.3113,-2.2889,-2.2957,-2.2859,-2.2615,-2.2675,-2.2775,-2.2889,-2.2889,-2.2979,-2.312,-2.3413,0.0,-2.312,-2.3121,-2.2831,-2.2337,-2.2067,-2.187,-2.1779,-2.1779,-2.1945,-2.2147,-2.1851,-2.1612,-2.1342,-2.1033,-2.0638,-2.0342,-2.0593,-2.0132,-1.9441,-1.9146,-1.8508,-1.7885,-1.754,-1.7348,-1.7229,-1.7229,-1.7666,-1.8095,-1.8135,-1.8327,-1.8517,-1.8542,-1.8542,-1.8548,-1.8606,-1.8669,-1.8793,-1.9039,-1.9155,-1.9361,-1.9773,-2.0074,-2.0451,-2.0991,-2.1242,-2.1396,-2.1472,-2.1685,-2.1953,-2.2271,-2.2399,-2.2556,-2.2721,-2.2943,-2.2975,-2.2887,-2.3122,-2.3248,-2.3271,-2.35,-2.372,-2.3985,-2.4183,-2.4375,-2.0028,-2.0113,-2.0113,-2.0113,-2.0185,-2.0325,-2.0595,-2.0811,-2.099,-2.1151,-2.1135,-2.1119,-2.1183,-2.0974,-2.0794,0.0,-2.0376,-1.994,-1.9468,-1.9101,-1.9212,0.0,-2.0316,0.0,-2.1898,-2.2123,0.0,0.0,0.0,0.0,-2.2486,-2.2509,-2.2509,-2.2509,-2.2509,-2.2509,-2.2509,-2.2532,-2.2532,-2.2509,-2.2532,-2.2532,-2.2509,-2.2394,-2.2301,-2.2194,-2.2626,0.0,0.0,-2.2146,-2.1842,-2.1299,-2.087,-2.0771,-2.0845,-2.0845,-2.1091,-2.1396,-2.0968,-2.0807,-2.0758,-2.0459,-2.0245,-2.0205,-2.062,-2.0169,-1.9425,-1.9081,-1.8526,-1.7974,-1.7614,-1.715,-1.679,-1.679,-1.7167,-1.751,-1.7571,-1.7942,-1.8175,-1.7942,-1.7955,-1.7935,-1.7713,-1.7672,-1.7801,-1.8266,-1.8252,-1.8408,-1.9007,-1.886,-1.9047,-1.993,-2.0273,-2.0554,-2.075,-2.0927,-2.1242,-2.1776,-2.182,-2.1984,-2.2315,-2.2374,-2.2415,-2.246,-2.2694,-2.2841,-2.2853,-2.3075,-2.3242,-2.3369,-2.3718,-2.3909,-1.9468,-1.9487,-1.9487,-1.9487,-1.9487,-1.9632,-2.0048,-2.0325,-2.0529,-2.0794,-2.0974,-2.1055,-2.0876,-2.0827,-2.0745,-2.0561,0.0,-1.994,-1.9468,-1.9101,-1.9055,-1.9431,0.0,0.0,-2.1308,-2.1884,0.0,0.0,0.0,0.0,-2.2254,-2.2254,-2.2254,-2.2254,-2.2254,-2.2254,-2.2254,-2.237,-2.237,-2.2254,-2.237,-2.2347,-2.2231,-2.1722,-2.1496,-2.1482,-2.153,0.0,0.0,-2.1299,-2.1091,-2.0496,-2.0459,-2.0383,-2.0257,-2.0257,-2.0308,-2.0333,-2.0283,-1.9953,-1.9657,-2.008,-2.0219,-2.0205,-2.0256,-1.9769,-1.9185,-1.8979,-1.8275,-1.7496,-1.7303,-1.6966,-1.6729,-1.6786,-1.6828,-1.687,-1.6891,-1.7154,-1.7312,-1.6988,-1.7175,-1.7271,-1.6967,-1.6904,-1.7029,-1.7374,-1.7154,-1.7229,-1.7949,-1.7707,-1.7639,-1.8101,-1.8877,-1.951,-1.9956,-2.0286,-2.0685,-2.1149,-2.1243,-2.1428,-2.1761,-2.1953,-2.213,-2.231,-2.246,-2.2592,-2.2725,-2.2799,-2.298,-2.3212,-2.3212,-2.3294,-1.9358,-1.9395,-1.9395,-1.9395,-1.9395,-1.9523,-1.9977,-2.0152,-2.0325,-2.0728,-2.0778,-2.0761,-2.0794,-2.0712,-2.0595,-2.051,0.0,0.0,-1.945,-1.8984,-1.8846,-1.934,-1.9986,0.0,0.0,0.0,0.0,0.0,0.0,0.0,-2.1722,-2.1722,-2.1722,-2.1722,-2.1722,-2.1722,-2.1722,-2.2091,-2.2091,-2.1722,-2.1684,-2.1694,-2.1701,-2.1413,-2.1509,-2.1877,-2.1877,0.0,0.0,-2.1247,-2.1007,-2.0657,-2.0342,-2.03,-2.0394,-2.0394,-2.0573,-2.0727,-1.9721,-1.9275,-1.9025,-1.822,-1.7872,-1.8024,-1.9503,-1.9661,-1.9243,-1.8935,-1.8328,-1.7718,-1.7414,-1.6781,-1.6256,-1.6352,-1.6362,-1.6321,-1.6373,-1.6714,-1.6925,-1.6676,-1.6731,-1.6731,-1.6475,-1.6445,-1.6518,-1.6774,-1.6697,-1.6845,-1.7462,-1.7284,-1.7276,-1.7632,-1.8218,-1.8688,-1.8916,-1.9401,-1.9886,-2.035,-2.0617,-2.0927,-2.1259,-2.1353,-2.1446,-2.1524,-2.1568,-2.1612,-2.1687,-2.1685,-2.189,-2.2183,-2.2398,-2.2647,-1.9078,-1.9134,-1.9134,-1.9134,-1.9134,-1.9265,-1.978,-1.9942,-2.0083,-2.0444,-2.0444,-2.0376,-2.0376,-2.0272,-2.017,0.0,0.0,-1.9354,-1.9269,-1.8812,-1.8666,-1.9087,0.0,-2.0511,0.0,0.0,0.0,0.0,0.0,0.0,0.0,-2.0883,-2.0908,-2.1166,-2.1104,-2.1104,-2.1166,-2.1492,-2.1479,-2.1104,-2.1103,-2.1168,-2.1237,-2.1166,-2.1379,-2.1831,0.0,0.0,0.0,-2.0815,-2.0404,-1.9925,-1.9538,-1.949,-1.9608,-1.9608,-1.986,-2.0023,-1.8814,-1.8358,-1.8123,-1.6929,-1.63,-1.6348,-1.8101,-1.8501,-1.8282,-1.7995,-1.7733,-1.7451,-1.7051,-1.6409,-1.5802,-1.549,-1.552,-1.561,-1.5557,-1.6027,-1.6373,-1.6129,-1.6163,-1.6154,-1.5925,-1.5881,-1.5957,-1.6185,-1.6141,-1.6303,-1.6909,-1.6858,-1.6879,-1.7227,-1.7652,-1.7975,-1.8141,-1.8544,-1.8987,-1.9452,-1.9776,-2.0143,-2.06,-2.0649,-2.078,-2.1007,-2.0991,-2.0991,-2.0991,-2.0991,-2.1134,-2.1354,-2.1637,-2.2012,-1.8517,-1.8517,-1.8517,-1.8517,-1.8517,-1.8673,-1.9265,-1.9545,-1.9711,-1.9803,-1.9962,-1.9975,-1.9505,-1.9413,-1.9413,-1.9413,-1.912,0.0,-1.8898,-1.8678,-1.8498,0.0,0.0,-2.0192,-1.9659,0.0,0.0,0.0,0.0,0.0,0.0,-1.9696,-1.9786,-2.0585,-2.0484,-2.0459,-2.061,-2.0484,-2.0421,-2.0395,-2.0746,-2.0897,-2.0922,-2.089,-2.0896,0.0,0.0,0.0,0.0,-1.9609,-1.8978,-1.7739,-1.7739,-1.7657,-1.7523,-1.7523,-1.7523,-1.7554,-1.7513,-1.7165,-1.6737,-1.6697,-1.6304,-1.5815,-1.5815,-1.5843,-1.5843,-1.5815,-1.6159,-1.6406,-1.5945,-1.5808,-1.5471,-1.415,-1.4266,-1.4631,-1.4285,-1.4949,-1.5501,-1.5176,-1.539,-1.5501,-1.5176,-1.5108,-1.521,-1.5568,-1.5334,-1.5379,-1.6134,-1.6222,-1.634,-1.668,-1.6997,-1.7372,-1.7767,-1.7808,-1.8008,-1.8481,-1.8592,-1.8949,-1.9674,-1.9831,-2.0248,-2.0991,-2.0991,-2.0991,-2.0991,-2.0991,-2.0991,-2.1023,-2.1007,-2.1366,-1.8498,-1.8498,-1.8498,-1.8498,-1.8498,-1.86,-1.8969,-1.912,-1.9217,-1.9472,-1.9581,-1.9578,-1.9431,-1.9395,-1.9395,-1.9395,-1.912,0.0,0.0,0.0,0.0,-1.8301,-1.8985,-1.9577,0.0,0.0,0.0,0.0,0.0,0.0,0.0,-1.941,-1.9436,-1.976,-1.9747,-1.9747,-1.9786,-2.0105,-2.008,-1.9722,-2.0048,-2.0272,-2.0354,-2.0629,0.0,0.0,0.0,0.0,0.0,-2.0131,-1.9584,-1.8566,-1.8491,-1.8436,-1.8371,-1.823,-1.8165,-1.8079,-1.7282,-1.6902,-1.6593,-1.5579,-1.5023,-1.4735,-1.4492,-1.507,-1.5786,-1.5786,-1.5911,-1.5985,-1.5843,-1.5551,-1.5246,-1.4908,-1.4512,-1.4221,-1.4195,-1.4225,-1.4188,-1.4106,-1.4165,-1.4316,-1.4581,-1.4628,-1.4766,-1.5187,-1.5176,-1.5266,-1.5736,-1.568,-1.5712,-1.6051,-1.6008,-1.6355,-1.731,-1.7639,-1.7828,-1.7948,-1.8226,-1.8467,-1.8603,-1.8641,-1.8939,-1.9489,-1.917,-1.9185,-1.9503,-1.9273,-1.9477,-2.0112,-2.0385,-2.0814,-1.8498,-1.8498,-1.8498,-1.8498,-1.8498,-1.8562,-1.8836,-1.8898,-1.8969,-1.9157,-1.9195,-1.9191,-1.9078,-1.9059,-1.9059,-1.9059,-1.8889,-1.8683,0.0,0.0,0.0,-1.8298,0.0,0.0,0.0,0.0,0.0,0.0,0.0,0.0,0.0,-1.8842,-1.8815,-1.891,-1.8963,-1.9054,-1.9095,-1.9371,-1.9456,-1.929,-1.9666,-1.9946,-2.0221,-2.0684,0.0,0.0,0.0,0.0,0.0,-1.9398,-1.8857,-1.8094,-1.7925,-1.7857,-1.7857,-1.7711,-1.7677,-1.7556,-1.6859,-1.6471,-1.6142,-1.5053,-1.4393,-1.3951,-1.374,-1.4282,-1.4972,-1.5157,-1.5196,-1.5196,-1.5196,-1.4994,-1.4696,-1.4477,-1.4084,-1.3739,-1.3684,-1.3554,-1.3467,-1.3515,-1.3491,-1.3563,-1.3965,-1.3988,-1.4059,-1.4351,-1.4513,-1.4628,-1.4686,-1.4835,-1.5005,-1.5208,-1.5208,-1.5543,-1.6441,-1.6917,-1.7222,-1.7393,-1.7639,-1.7808,-1.7861,-1.7881,-1.808,-1.8525,-1.8243,-1.8243,-1.8525,-1.833,-1.8535,-1.9115,-1.9558,-1.9928,0.0,-1.8498,-1.8498,-1.8498,-1.8498,-1.8576,-1.8817,-1.8874,0.0,-1.8874,-1.8874,-1.8798,-1.8556,-1.8498,-1.8478,-1.8498,-1.8459,-1.8248,0.0,-1.7686,0.0,0.0,-1.8013,0.0,0.0,0.0,0.0,0.0,0.0,0.0,0.0,-1.7975,-1.8002,-1.803,-1.8166,-1.8329,-1.8506,-1.8383,-1.8506,-1.8901,-1.9343,-1.9798,-2.0213,-2.0791,0.0,0.0,0.0,0.0,0.0,-1.7774,-1.7226,-1.6577,-1.6377,-1.6272,-1.6272,-1.6272,-1.6272,-1.6272,-1.6272,-1.5939,-1.5444,-1.5009,-1.4239,-1.3515,-1.3428,-1.345,-1.3601,-1.4031,-1.413,-1.413,-1.413,-1.413,-1.3921,-1.3158,-1.3139,-1.3204,-1.2799,-1.289,-1.3079,-1.3194,-1.3146,-1.3146,-1.3242,-1.3194,-1.316,-1.3184,-1.3518,-1.3613,-1.3266,-1.3781,-1.4181,-1.4181,-1.447,-1.4824,-1.5242,-1.5764,-1.6256,-1.6757,-1.6791,-1.6947,-1.7297,-1.7318,-1.753,-1.7987,-1.7987,-1.7973,-1.7953,-1.7973,-1.8027,-1.8066,-1.8574,-1.8811,-1.8498,0.0,-1.8498,-1.8498,-1.8498,-1.8517,0.0,-1.8581,-1.8581,0.0,0.0,-1.8562,-1.8517,-1.838,-1.8321,-1.8478,-1.7982,-1.7612,-1.77,0.0,0.0,-1.7496,-1.7711,0.0,0.0,0.0,0.0,0.0,0.0,0.0,0.0,-1.6708,-1.6933,-1.7407,-1.7017,-1.7045,-1.7506,-1.749,-1.7323,-1.6963,-1.7775,-1.8243,-1.8371,-1.9158,0.0,0.0,0.0,0.0,-1.7541,-1.7472,-1.7044,-1.6377,-1.6202,-1.6132,-1.6132,-1.5964,-1.5903,-1.5903,-1.5903,-1.5842,-1.5592,-1.4647,-1.402,-1.3482,-1.2901,-1.3086,-1.3511,-1.3631,-1.3489,-1.3346,-1.361,-1.3459,-1.3199,-1.2918,-1.265,-1.2392,-1.2091,-1.1847,-1.161,-1.1444,-1.1751,-1.2049,-1.2021,-1.234,-1.274,-1.3136,-1.329,-1.3304,-1.3208,-1.3174,-1.3164,-1.3164,-1.3088,-1.3351,-1.412,-1.5028,-1.5611,-1.5668,-1.5668,-1.5668,-1.5668,-1.5668,-1.6051,-1.6862,-1.6883,-1.6756,-1.6505,-1.6794,-1.7203,-1.7646,-1.776,-1.806,-1.8498,-1.8498,-1.8498,-1.8498,-1.8498,-1.8498,-1.8498,-1.8439,0.0,0.0,0.0,-1.8222,-1.8222,-1.7975,-1.7821,-1.7942,-1.7469,0.0,0.0,0.0,-1.6776,-1.724,0.0,0.0,0.0,0.0,0.0,0.0,0.0,0.0,0.0,-1.6312,-1.6415,-1.6698,-1.6386,-1.6528,-1.7202,-1.6856,-1.6633,-1.6535,-1.7245,-1.7657,-1.782,-1.8582,-1.8633,0.0,0.0,0.0,-1.6906,-1.6837,-1.6568,-1.6202,-1.6035,-1.5964,-1.5929,-1.5832,-1.5576,-1.524,-1.5125,-1.4877,-1.4544,-1.407,-1.3648,-1.3227,-1.2686,-1.275,-1.3025,-1.3025,-1.2911,-1.2797,-1.3003,-1.275,-1.2436,-1.2436,-1.1957,-1.1507,-1.1432,-1.1035,-1.0624,-1.0551,-1.0645,-1.0812,-1.1082,-1.1334,-1.1633,-1.2064,-1.2418,-1.2442,-1.2015,-1.2212,-1.2344,-1.2221,-1.2215,-1.2486,-1.3146,-1.3886,-1.456,-1.5175,-1.521,-1.5187,-1.5108,-1.5108,-1.5345,-1.5854,-1.5676,-1.5565,-1.5591,-1.5798,-1.6071,-1.6398,-1.645,-1.6663,-1.8406,-1.84,-1.84,-1.8478,-1.8478,-1.8439,-1.84,0.0,0.0,0.0,0.0,-1.7713,-1.7672,-1.74,0.0,0.0,0.0,0.0,-1.659,-1.6244,-1.6348,-1.7292,0.0,0.0,0.0,0.0,0.0,0.0,0.0,0.0,0.0,-1.5997,-1.5997,-1.5958,-1.5843,-1.612,-1.6828,-1.6234,-1.6054,-1.6387,-1.6858,-1.7195,-1.7509,-1.8125,-1.7983,0.0,0.0,0.0,-1.6202,-1.6105,-1.6061,-1.6035,-1.5718,-1.5611,-1.5611,-1.547,-1.4982,-1.435,-1.4163,-1.3693,-1.3155,-1.3224,-1.309,-1.2787,-1.2258,-1.2166,-1.2236,-1.2135,-1.2266,-1.2421,-1.239,-1.2066,-1.1717,-1.1694,-1.1142,-1.0662,-1.077,-1.0372,-0.9958,-1.0022,-0.979,-0.9725,-1.0198,-1.0241,-1.0318,-1.0608,-1.1133,-1.1234,-1.0488,-1.1091,-1.1519,-1.1352,-1.1603,-1.1902,-1.2298,-1.2647,-1.3375,-1.4617,-1.48,-1.4846,-1.4777,-1.4869,-1.4846,-1.4709,-1.4502,-1.4537,-1.4812,-1.4869,-1.4937,-1.5006,-1.513,-1.5186,-1.8016,-1.7861,-1.7922,-1.84,-1.838,-1.8169,-1.7882,0.0,0.0,0.0,0.0,0.0,0.0,-1.6633,-1.6603,0.0,0.0,-1.6094,0.0,0.0,0.0,0.0,0.0,0.0,0.0,0.0,0.0,0.0,0.0,0.0,0.0,-1.4675,-1.4834,-1.5313,-1.4677,-1.4638,-1.5255,-1.5138,-1.4863,-1.4429,-1.5174,-1.5555,-1.5646,-1.6347,-1.6542,0.0,0.0,-1.6132,-1.5867,-1.5832,-1.5832,-1.5797,-1.5046,-1.4788,-1.4681,-1.389,-1.3528,-1.3382,-1.3186,-1.3048,-1.2805,-1.1985,-1.1988,-1.2088,-1.0784,-1.0692,-1.0958,-1.0496,-1.1226,-1.212,-1.1934,-1.1632,-1.1202,-1.0496,-1.033,-1.0269,-0.9971,-0.9816,-0.9636,-0.9256,-0.9371,-0.9336,-0.8831,-0.9086,-0.9418,-0.9444,-0.954,-0.9677,-0.9891,-1.002,-1.0259,-1.0616,-1.0896,-1.1226,-1.1628,-1.1918,-1.2314,-1.2852,-1.3467,-1.3671,-1.3341,-1.3755,-1.3637,-1.29,-1.3566,-1.3758,-1.3487,-1.3828,-1.419,-1.4595,-1.4618,-1.4675,-1.7503,-1.7359,-1.7366,-1.7551,-1.751,-1.7407,-1.725,0.0,0.0,0.0,0.0,0.0,0.0,0.0,-1.5722,-1.5365,0.0,-1.5588,0.0,0.0,0.0,0.0,0.0,0.0,0.0,0.0,0.0,0.0,0.0,0.0,0.0,0.0,-1.4219,-1.4449,-1.4091,-1.3962,-1.4145,-1.4145,-1.4043,-1.3899,-1.4479,-1.459,-1.4288,-1.4925,-1.5033,-1.4724,0.0,-1.501,-1.4589,-1.4982,-1.484,-1.4366,-1.3998,-1.3774,-1.3585,-1.2725,-1.2328,-1.2211,-1.199,-1.1879,-1.1715,-1.1255,-1.1286,-1.1316,-1.029,-1.018,-1.0313,-1.0085,-1.0465,-1.0937,-1.0867,-1.0528,-1.0129,-0.9805,-0.9614,-0.9456,-0.9342,-0.9203,-0.9029,-0.8812,-0.87,-0.862,-0.8582,-0.8671,-0.8823,-0.8955,-0.9105,-0.9157,-0.9066,-0.9477,-0.9821,-0.9906,-1.0385,-1.082,-1.115,-1.1502,-1.1927,-1.248,-1.2813,-1.2924,-1.2745,-1.2759,-1.2696,-1.2505,-1.2672,-1.2783,-1.2822,-1.2682,-1.2735,-1.2932,-1.2932,-1.298,-1.6972,-1.6803,-1.6718,-1.6502,-1.6587,0.0,0.0,0.0,0.0,0.0,0.0,0.0,0.0,-1.5266,0.0,-1.4535,-1.4812,0.0,0.0,0.0,0.0,0.0,0.0,0.0,0.0,0.0,0.0,0.0,0.0,0.0,0.0,0.0,-1.392,-1.3799,-1.3739,-1.367,-1.3511,-1.3511,-1.3511,-1.3489,-1.3913,-1.3759,-1.3193,-1.3742,-1.3808,-1.3425,-1.4068,-1.3998,-1.3455,-1.4034,-1.381,-1.3127,-1.2908,-1.2609,-1.2204,-1.1589,-1.1223,-1.1037,-1.085,-1.0703,-1.0506,-1.0513,-1.0526,-1.0479,-0.9851,-0.9735,-0.9799,-0.9678,-0.964,-0.9671,-0.9799,-0.9582,-0.9306,-0.9268,-0.9022,-0.8835,-0.8926,-0.8805,-0.8626,-0.857,-0.8248,-0.8052,-0.8353,-0.8282,-0.8224,-0.8368,-0.858,-0.858,-0.8282,-0.8856,-0.9268,-0.9178,-0.9725,-1.0275,-1.071,-1.0981,-1.1435,-1.2175,-1.2264,-1.2264,-1.2166,-1.1735,-1.166,-1.1993,-1.1785,-1.1794,-1.2017,-1.1633,-1.1391,-1.1266,-1.1266,-1.1225,-1.6484,-1.6216,-1.5979,-1.5513,-1.5979,0.0,-1.5808,-1.5533,0.0,-1.4674,0.0,0.0,0.0,-1.4489,-1.4512,-1.4662,-1.4907,0.0,0.0,0.0,0.0,0.0,0.0,0.0,0.0,0.0,0.0,0.0,0.0,0.0,0.0,0.0,0.0,-1.3799,-1.361,-1.3511,-1.3511,-1.3511,-1.3191,-1.2604,-1.3011,-1.2836,-1.2235,-1.2907,-1.3169,-1.3144,-1.3439,-1.3455,-1.3237,-1.3273,-1.3157,-1.2865,-1.2107,-1.1223,-1.04,-1.0331,-1.018,-0.9992,-0.9992,-0.9856,-0.9634,-0.9398,-0.9496,-0.9554,-0.8842,-0.8958,-0.9242,-0.8732,-0.8608,-0.8732,-0.921,-0.9338,-0.9177,-0.8673,-0.8705,-0.8802,-0.8802,-0.8791,-0.8713,-0.8454,-0.8284,-0.8017,-0.7578,-0.7491,-0.7404,-0.7252,-0.7241,-0.7375,-0.7696,-0.7803,-0.8017,-0.8421,-0.8758,-0.9295,-1.0167,-1.0167,-1.0482,-1.1318,-1.1559,-1.1491,-1.1116,-1.0593,-1.0379,-1.0557,-1.088,-1.0906,-1.0557,-1.088,-1.0788,-1.0287,-1.0287,-1.009,-1.5834,-1.5501,-1.5288,-1.5198,-1.5289,0.0,0.0,-1.4983,-1.4823,-1.4466,-1.4199,0.0,0.0,0.0,-1.3401,-1.3934,0.0,0.0,0.0,0.0,0.0,0.0,0.0,0.0,0.0,0.0,0.0,0.0,0.0,0.0,0.0,0.0,0.0,-1.3601,-1.3541,-1.329,-1.2887,-1.2887,-1.2328,-1.1257,-1.2251,-1.223,-1.1376,-1.1544,-1.1485,-1.1248,-1.1732,-1.1603,-1.1114,-1.1638,-1.153,-1.0985,-1.0711,-1.0368,-0.9992,-0.9992,-0.996,-0.9884,-0.9884,-0.9771,-0.954,-0.9044,-0.9015,-0.9047,-0.838,-0.8474,-0.8765,-0.8549,-0.8517,-0.8544,-0.8738,-0.8802,-0.8738,-0.8544,-0.8549,-0.8608,-0.8608,-0.8608,-0.8581,-0.8494,-0.8316,-0.8122,-0.7944,-0.7616,-0.7362,-0.7299,-0.7182,-0.7166,-0.7295,-0.7536,-0.7777,-0.7937,-0.8461,-0.8955,-0.9295,-0.9444,-0.9644,-0.9961,-1.0218,-1.0448,-1.0609,-1.0097,-0.9847,-0.9906,-1.0046,-1.0046,-0.9906,-0.9344,-0.8966,-0.877,-0.8516,-0.8315,-1.5096,-1.4823,-1.4651,-1.4536,0.0,0.0,-1.4176,-1.4269,-1.4292,-1.3905,-1.3718,0.0,0.0,0.0,0.0,0.0,0.0,0.0,0.0,0.0,0.0,0.0,0.0,0.0,0.0,0.0,0.0,0.0,0.0,0.0,0.0,0.0,0.0,0.0,-1.329,-1.2978,-1.2512,-1.2258,-1.1555,-1.0446,-1.1298,-1.1262,-1.0464,-1.0422,-1.0239,-0.9984,-1.0429,-1.0257,-0.9747,-1.0286,-1.0184,-0.9691,-0.9668,-0.9696,-0.9659,-0.9548,-0.9511,-0.9516,-0.94,-0.9218,-0.8969,-0.8534,-0.8431,-0.8384,-0.7962,-0.7987,-0.822,-0.8317,-0.8349,-0.8349,-0.8484,-0.8517,-0.8517,-0.8517,-0.8517,-0.8517,-0.8517,-0.8517,-0.8517,-0.8517,-0.8377,-0.8268,-0.8224,-0.7881,-0.7594,-0.7415,-0.7278,-0.7171,-0.7095,-0.7348,-0.7509,-0.7509,-0.7898,-0.829,-0.856,-0.8547,-0.8646,-0.8901,-0.8758,-0.8922,-0.9521,-0.881,-0.86,-0.9046,-0.883,-0.883,-0.9053,-0.8053,-0.7509,-0.741,-0.6809,-0.6549,-1.4305,-1.4258,-1.4035,-1.3362,0.0,0.0,-1.3006,-1.3317,-1.3542,-1.2666,-1.2973,-1.3266,-1.2871,0.0,0.0,0.0,0.0,0.0,0.0,0.0,0.0,0.0,0.0,0.0,0.0,0.0,0.0,0.0,0.0,0.0,0.0,0.0,0.0,0.0,-1.2848,-1.2473,-1.2481,-1.1703,-1.0961,-1.0275,-1.0078,-0.9811,-0.949,-0.9628,-0.9679,-0.9691,-0.9771,-0.9677,-0.9502,-0.9502,-0.9392,-0.92,-0.9206,-0.9206,-0.9136,-0.8795,-0.8689,-0.8619,-0.8301,-0.8022,-0.7777,-0.7782,-0.7669,-0.7489,-0.7489,-0.7489,-0.7559,-0.7884,-0.7987,-0.8052,-0.8414,-0.8479,-0.8479,-0.8484,-0.8517,-0.8517,-0.8517,-0.8517,-0.8517,-0.8517,-0.8484,-0.8436,-0.8225,-0.8182,-0.802,-0.7498,-0.7399,-0.7337,-0.7117,-0.7085,-0.7085,-0.7085,-0.6907,-0.7138,-0.7992,-0.746,-0.7422,-0.8219,-0.7213,-0.6907,-0.7667,-0.647,-0.6465,-0.7841,-0.717,-0.7143,-0.7868,-0.7149,-0.6651,-0.6349,-0.535,-0.4872,-1.4903,-1.4398,-1.3931,-1.3907,0.0,0.0,0.0,-1.2754,0.0,0.0,-1.2215,-1.2389,-1.2508,0.0,0.0,0.0,0.0,0.0,0.0,0.0,0.0,0.0,0.0,0.0,0.0,0.0,0.0,0.0,0.0,0.0,0.0,0.0,0.0,0.0,-1.2151,-1.1671,-1.0954,-1.0584,-1.0053,-0.9396,-0.9332,-0.9236,-0.9151,-0.9108,-0.9077,-0.905,-0.8926,-0.8859,-0.8804,-0.9006,-0.8861,-0.8593,-0.8763,-0.8468,-0.7924,-0.7823,-0.754,-0.726,-0.754,-0.7198,-0.6766,-0.7296,-0.723,-0.6868,-0.6605,-0.6704,-0.697,-0.7068,-0.6798,-0.6761,-0.7852,-0.7493,-0.7097,-0.822,-0.8517,-0.8517,-0.8517,-0.8517,-0.8517,-0.8517,-0.8117,-0.7929,-0.8356,-0.7849,-0.7546,-0.7902,-0.7632,-0.7163,-0.6537,-0.6453,-0.629,-0.5878,-0.5769,-0.5846,-0.6113,-0.5955,-0.5923,-0.6185,-0.5557,-0.5705,-0.6876,-0.6195,-0.5987,-0.6416,-0.6195,-0.6195,-0.6411,-0.5493,-0.5015,-0.4901,-0.3972,-0.3564,-1.405,-1.3569,-1.314,-1.3064,-1.2788,-1.2423,-1.1807,0.0,0.0,0.0,0.0,-1.1893,-1.1825,0.0,0.0,0.0,0.0,0.0,0.0,0.0,0.0,0.0,0.0,0.0,0.0,0.0,0.0,0.0,0.0,0.0,0.0,0.0,0.0,0.0,-1.1586,-1.1017,-1.018,-0.9741,-0.9332,-0.8926,-0.8829,-0.8797,-0.8797,-0.8802,-0.8802,-0.8802,-0.8576,-0.8517,-0.8495,-0.853,-0.8279,-0.7884,-0.7889,-0.7452,-0.6785,-0.6613,-0.6371,-0.6098,-0.6302,-0.6063,-0.5711,-0.6158,-0.6156,-0.591,-0.5646,-0.5745,-0.5976,-0.6108,-0.5906,-0.5903,-0.6896,-0.6601,-0.6437,-0.8117,-0.8284,-0.8182,-0.8447,-0.8284,-0.8117,-0.8117,-0.7554,-0.719,-0.7587,-0.7191,-0.6922,-0.7279,-0.6943,-0.645,-0.5905,-0.585,-0.5714,-0.5332,-0.5117,-0.5062,-0.5277,-0.5117,-0.4982,-0.5018,-0.4747,-0.4894,-0.549,-0.5222,-0.523,-0.56,-0.503,-0.4883,-0.5165,-0.3975,-0.3443,-0.3552,-0.2302,-0.1842,-1.2487,-1.2267,-1.207,-1.1485,-1.1692,0.0,-1.104,-1.1049,-1.1158,-1.0938,0.0,-1.1629,-1.1093,0.0,0.0,0.0,0.0,0.0,0.0,0.0,0.0,0.0,0.0,0.0,0.0,0.0,0.0,0.0,0.0,0.0,0.0,0.0,0.0,-1.1609,-1.0986,-1.0395,-0.9894,-0.9145,-0.877,0.0,-0.8576,-0.8484,-0.8414,-0.8608,-0.8635,-0.8571,-0.8414,-0.8349,-0.8317,-0.8019,-0.7587,-0.7051,-0.6699,-0.6239,-0.5672,-0.5309,-0.5143,-0.5077,-0.4815,-0.4683,-0.4683,-0.4782,-0.4782,-0.4716,-0.4716,-0.4716,-0.4782,-0.511,-0.5143,-0.5209,-0.5705,-0.5774,-0.6104,-0.7852,-0.7819,-0.7554,-0.8182,-0.7819,-0.7391,-0.7391,-0.6798,-0.633,-0.6396,-0.633,-0.6241,-0.6038,-0.5727,-0.5449,-0.5274,-0.5234,-0.5195,-0.5144,-0.4708,-0.4625,-0.5117,-0.4722,-0.4457,-0.4532,-0.4539,-0.4344,-0.3824,-0.388,-0.4266,-0.5079,-0.3775,-0.3345,-0.3881,-0.2489,-0.1939,-0.2152,-0.045,0.0098,-1.3314,-1.2691,0.0,-1.1774,-1.1267,-1.0812,-1.0616,-1.0616,-1.0722,-1.0865,-1.1003,-1.1255,0.0,0.0,0.0,0.0,0.0,0.0,0.0,0.0,0.0,0.0,0.0,0.0,0.0,0.0,0.0,0.0,0.0,0.0,0.0,0.0,0.0,-1.0021,-0.9741,-0.9428,-0.9055,-0.8738,-0.8582,0.0,-0.8511,-0.822,-0.7722,-0.7754,-0.7451,-0.6924,-0.7158,-0.7256,-0.7223,-0.7064,-0.6736,-0.6301,-0.5807,-0.5113,-0.4392,-0.4325,-0.4025,-0.3692,-0.4059,-0.3892,-0.3692,-0.4517,-0.4519,-0.4159,-0.4159,-0.4159,-0.4192,-0.4259,-0.399,-0.3923,-0.511,-0.4719,-0.4422,-0.6071,-0.6433,-0.647,-0.6793,-0.6728,-0.6629,-0.6629,-0.6034,-0.5705,-0.6301,-0.5935,-0.565,-0.5943,-0.5892,-0.5569,-0.4829,-0.4703,-0.4491,-0.4024,-0.3858,-0.3833,-0.3968,-0.3948,-0.3958,-0.3987,-0.4116,-0.3893,-0.3219,-0.3644,-0.3747,-0.3409,-0.3105,-0.2456,-0.1439,-0.0816,-0.0255,0.0257,0.0985,0.1233,-1.2491,-1.194,0.0,-1.1242,0.0,-1.047,-1.0308,-1.0265,-1.0345,-1.0684,-1.0874,-1.1092,0.0,0.0,0.0,0.0,0.0,0.0,0.0,0.0,0.0,0.0,0.0,0.0,0.0,0.0,0.0,0.0,0.0,0.0,0.0,-1.0078,-0.9831,-0.9428,-0.9332,-0.9087,-0.8679,-0.8544,-0.842,-0.8252,-0.8014,-0.7288,-0.6235,-0.6634,-0.6601,-0.6199,-0.6634,-0.6666,-0.6433,-0.6404,-0.5976,-0.5276,-0.4848,-0.4256,-0.3627,-0.3627,-0.3426,-0.3228,-0.3527,-0.3426,-0.3293,-0.3856,-0.3859,-0.3627,-0.3627,-0.3627,-0.3627,-0.3627,-0.3426,-0.336,-0.4087,-0.3825,-0.3596,-0.4522,-0.5186,-0.5745,-0.6174,-0.6071,-0.587,-0.587,-0.5312,-0.4954,-0.5319,-0.5087,-0.4874,-0.5056,-0.506,-0.484,-0.4276,-0.4187,-0.4007,-0.3644,-0.3613,-0.3613,-0.3613,-0.3717,-0.369,-0.3388,-0.3513,-0.3268,-0.2592,-0.255,-0.2562,-0.2503,-0.1858,-0.112,-0.0352,0.052,0.1147,0.1541,0.236,0.2744,-1.141,-1.1023,-1.0769,-1.0488,-1.0385,0.0,-0.9991,-0.9921,-1.0034,-1.0438,-1.0729,0.0,0.0,0.0,0.0,0.0,0.0,0.0,0.0,0.0,0.0,0.0,0.0,0.0,0.0,0.0,0.0,0.0,0.0,0.0,-0.9735,-0.9735,-0.955,-0.9177,-0.9145,-0.8958,-0.8517,-0.8447,-0.8214,-0.7852,-0.7116,-0.6063,-0.4782,-0.5382,-0.5613,-0.5576,-0.6075,-0.6042,-0.5639,-0.5712,-0.5213,-0.4381,-0.3992,-0.3594,-0.3192,-0.3192,-0.3192,-0.3192,-0.3192,-0.3192,-0.3192,-0.3192,-0.3192,-0.3192,-0.3192,-0.3192,-0.3192,-0.3192,-0.3192,-0.3192,-0.3192,-0.3192,-0.3228,-0.3397,-0.4161,-0.4987,-0.558,-0.5378,-0.508,-0.508,-0.4658,-0.4267,-0.4131,-0.4233,-0.4166,-0.3806,-0.3937,-0.3982,-0.3692,-0.3749,-0.3745,-0.3652,-0.3641,-0.3641,-0.3641,-0.3651,-0.3438,-0.2942,-0.287,-0.2522,-0.1775,-0.1204,-0.107,-0.1374,-0.0335,0.0301,0.0569,0.1708,0.2347,0.2515,0.3551,0.4118,-1.176,0.0,-1.047,0.0,-0.9888,-0.9718,0.0,0.0,-0.975,0.0,0.0,0.0,0.0,0.0,0.0,0.0,0.0,0.0,0.0,0.0,0.0,0.0,0.0,0.0,0.0,0.0,0.0,0.0,0.0,0.0,-0.8705,-0.8705,-0.8673,-0.8608,-0.8608,-0.8576,-0.8517,-0.822,-0.7814,-0.7279,-0.5833,-0.4912,-0.4511,-0.4056,-0.3928,-0.409,-0.4453,-0.4586,-0.4517,-0.4356,-0.4192,-0.4025,-0.3493,-0.3259,-0.3192,-0.3192,-0.3192,-0.3192,-0.3192,-0.3192,-0.3192,-0.3192,-0.3192,-0.3192,-0.3192,-0.3192,-0.3192,-0.3192,-0.3192,-0.3192,-0.3192,-0.3192,-0.3192,-0.3228,-0.3496,-0.3797,-0.4056,-0.4156,-0.4159,-0.4159,-0.4231,-0.4097,-0.3453,-0.3892,-0.3856,-0.2569,-0.3364,-0.3849,-0.3183,-0.352,-0.3807,-0.3761,-0.3761,-0.3761,-0.3761,-0.3355,-0.3058,-0.3007,-0.2496,-0.1636,-0.0335,-0.0201,0.0368,0.1508,0.1137,0.157,0.278,0.2948,0.3387,0.3997,0.4197,0.4495,-1.1192,-1.0641,-1.0154,0.0,-0.9699,-0.9588,-0.9588,-0.9588,-0.963,-0.9747,0.0,0.0,0.0,0.0,0.0,0.0,0.0,0.0,0.0,0.0,0.0,0.0,0.0,0.0,0.0,0.0,0.0,0.0,0.0,-0.8517,-0.8517,-0.8517,-0.8517,-0.8517,-0.8517,-0.8414,-0.822,-0.7782,-0.692,-0.5661,-0.4782,-0.4154,-0.3754,-0.346,-0.3393,-0.3491,-0.3925,-0.3959,-0.3692,-0.3925,-0.3828,-0.3527,-0.3293,-0.3192,-0.3192,-0.3192,-0.3192,-0.3192,-0.3192,-0.3192,-0.3192,-0.3192,-0.3192,-0.3192,-0.3192,-0.3192,-0.3192,-0.3192,-0.3192,-0.3192,-0.3192,-0.3192,-0.3192,-0.3192,-0.3261,-0.3362,-0.346,-0.3694,-0.3792,-0.3491,-0.3188,-0.2852,-0.2514,-0.2817,-0.2818,-0.2114,-0.2555,-0.2848,-0.2481,-0.2638,-0.2762,-0.2686,-0.2683,-0.2683,-0.2683,-0.254,-0.2251,-0.1834,-0.1255,-0.0469,0.057,0.1373,0.2075,0.2714,0.2444,0.2576,0.3215,0.3623,0.3995,0.43,0.4595,0.5027,-1.0667,0.0,-1.0043,-0.9692,-0.951,-0.9439,0.0,0.0,-0.9267,0.0,0.0,0.0,0.0,0.0,0.0,0.0,0.0,0.0,0.0,0.0,0.0,0.0,0.0,0.0,0.0,0.0,0.0,0.0,0.0,-0.8517,-0.8517,-0.8458,-0.8452,-0.8511,-0.8361,-0.8125,-0.7814,-0.6953,-0.5796,-0.4381,-0.399,-0.3594,-0.3192,-0.3192,-0.3192,-0.3226,-0.3627,-0.356,-0.3228,-0.3627,-0.356,-0.3192,-0.3192,-0.3192,-0.3192,-0.3192,-0.3192,-0.3192,-0.3192,-0.3192,-0.3192,-0.3192,-0.3192,-0.3192,-0.3192,-0.3192,-0.3192,-0.3192,-0.3192,-0.3192,-0.3192,-0.3192,-0.3192,-0.3192,-0.3192,-0.3226,-0.3261,-0.3357,-0.3355,-0.2989,-0.2315,-0.1777,-0.1576,-0.1777,-0.1844,-0.141,-0.1744,-0.1997,-0.1793,-0.1904,-0.1976,-0.1873,-0.1836,-0.1836,-0.1836,-0.1629,-0.1267,-0.0715,0.0099,0.0871,0.1612,0.2648,0.3284,0.3487,0.3487,0.3487,0.3487,0.4028,0.4367,0.4498,0.4924,0.5455,0.0,-1.0496,0.0,-0.9744,-0.9309,-0.9035,0.0,0.0,0.0,0.0,0.0,0.0,0.0,0.0,0.0,0.0,0.0,0.0,0.0,0.0,0.0,0.0,0.0,0.0,0.0,0.0,0.0,0.0,0.0,-0.8517,-0.8517,-0.8328,-0.8306,-0.8506,-0.7948,-0.7516,-0.7246,-0.5496,-0.4447,-0.4028,-0.3493,-0.3226,-0.3192,-0.3192,-0.3192,-0.3192,-0.3228,-0.3226,-0.3192,-0.3228,-0.3226,-0.3192,-0.3192,-0.3192,-0.3192,-0.3192,-0.3192,-0.3192,-0.3192,-0.3192,-0.3192,-0.3192,-0.3192,-0.3192,-0.3192,-0.3192,-0.3192,-0.3192,-0.3192,-0.3192,-0.3192,-0.3192,-0.3192,-0.3192,-0.3192,-0.3261,-0.3431,-0.2956,-0.2517,-0.2686,-0.2114,-0.1408,-0.0705,-0.1174,-0.1208,0.0,-0.1008,-0.171,-0.1207,-0.1635,-0.199,-0.1988,-0.1988,-0.1988,-0.1988,-0.0822,-0.01,-0.0033,0.1239,0.2313,0.3049,0.3149,0.352,0.4233,0.4233,0.4233,0.4233,0.4267,0.4561,0.5054,0.5087,0.565,0.0,0.0,0.0,-0.9744,-0.9283,-0.9008,-0.9008,-0.8685,-0.8315,0.0,0.0,0.0,0.0,0.0,0.0,0.0,0.0,0.0,0.0,0.0,0.0,0.0,0.0,0.0,0.0,0.0,0.0,0.0,0.0,0.0,-0.8059,-0.7821,-0.772,-0.7803,-0.739,-0.6704,-0.5744,-0.4641,-0.3883,-0.3433,-0.3263,-0.3192,-0.3192,-0.3192,-0.3192,-0.3192,-0.3192,-0.3192,-0.3192,-0.3192,-0.3192,-0.3192,-0.3192,-0.3058,-0.2889,-0.2889,-0.2757,-0.2555,-0.2555,-0.269,-0.2889,-0.2889,-0.3023,-0.3192,-0.3192,-0.3192,-0.3192,-0.3192,-0.3192,-0.3192,-0.3192,-0.3192,-0.3092,-0.2653,-0.2182,-0.1882,-0.1949,-0.1376,-0.0906,-0.1108,-0.0571,0.0034,0.0303,0.0,-0.0067,0.0539,0.0067,-0.0303,-0.0101,-0.0333,-0.0497,-0.0398,-0.0596,-0.0663,-0.053,-0.0201,0.0202,0.0671,0.1576,0.2447,0.3182,0.3656,0.4028,0.43,0.4631,0.4824,0.4824,0.4824,0.509,0.5624,0.5624,0.6017,-1.0488,0.0,0.0,0.0,-0.9204,-0.8798,-0.8798,0.0,-0.7889,0.0,0.0,0.0,0.0,0.0,0.0,0.0,0.0,0.0,0.0,0.0,0.0,0.0,0.0,0.0,0.0,0.0,0.0,0.0,0.0,0.0,-0.7677,-0.7337,-0.7091,-0.6973,-0.6501,-0.5747,-0.4749,-0.3978,-0.3441,-0.3091,-0.3152,-0.3164,-0.3192,-0.3192,-0.3192,-0.3192,-0.3192,-0.3192,-0.3192,-0.3192,-0.3192,-0.3192,-0.3192,-0.3058,-0.2855,-0.2753,-0.2554,-0.2354,-0.2255,-0.2354,-0.252,-0.252,-0.2688,-0.2891,-0.2991,-0.3023,-0.3058,-0.3159,-0.3192,-0.3192,-0.3192,-0.3023,-0.2686,-0.1981,-0.1276,-0.0739,-0.0739,-0.0336,-0.0034,-0.0168,0.0404,0.0909,0.0909,0.0775,0.0707,0.0776,0.0674,0.0573,0.0506,0.0438,0.0404,0.0506,0.0303,0.0202,0.0303,0.0371,0.0706,0.1377,0.2079,0.2817,0.3553,0.4225,0.4564,0.4564,0.509,0.5451,0.565,0.5451,0.5653,0.6185,0.6185,0.6445,0.0,0.0,0.0,0.0,0.0,0.0,-0.8374,0.0,-0.7112,0.0,0.0,0.0,0.0,0.0,0.0,0.0,0.0,0.0,0.0,0.0,0.0,0.0,0.0,0.0,0.0,0.0,0.0,0.0,0.0,-0.7359,-0.7359,-0.6837,-0.6411,-0.6063,-0.5292,-0.4709,-0.4375,-0.3468,-0.3026,-0.3083,-0.3085,-0.3134,-0.3188,-0.3188,-0.319,-0.3192,-0.3192,-0.3192,-0.3192,-0.3192,-0.3192,-0.3192,-0.3192,-0.3192,-0.3159,-0.2787,-0.2653,-0.2586,-0.2253,-0.2154,-0.2154,-0.2154,-0.2188,-0.2255,-0.2586,-0.2686,-0.2753,-0.3092,-0.3192,-0.3192,-0.3192,-0.2653,-0.1946,-0.1243,-0.0504,0.0034,0.0034,0.0034,0.0034,0.0034,0.0605,0.1109,0.1109,0.1109,0.1043,0.0843,0.0809,0.0742,0.0539,0.0506,0.0506,0.0506,0.0506,0.0438,0.0337,0.0942,0.1545,0.2079,0.2815,0.3553,0.43,0.4827,0.512,0.5153,0.5686,0.6218,0.6708,0.6185,0.6185,0.6741,0.6741,0.6999,-0.9223,0.0,0.0,0.0,0.0,0.0,-0.7883,-0.7488,-0.7058,0.0,0.0,0.0,0.0,0.0,0.0,0.0,0.0,0.0,0.0,0.0,0.0,0.0,0.0,0.0,0.0,0.0,0.0,0.0,-0.6523,-0.6523,-0.6523,-0.5887,-0.5393,-0.5087,-0.4254,-0.3763,-0.3678,-0.3121,-0.2875,-0.2871,-0.2993,-0.3071,-0.3128,-0.3128,-0.3164,-0.3192,-0.3192,-0.3192,-0.3192,-0.3192,-0.3192,-0.3192,-0.3192,-0.3058,-0.2755,-0.215,-0.1647,-0.1243,-0.0605,-0.0739,-0.1176,-0.1176,-0.1648,-0.2255,-0.2586,-0.2686,-0.2653,-0.2517,-0.282,-0.3092,-0.2618,-0.1544,-0.0571,-0.037,0.0269,0.0806,0.0806,0.0806,0.0806,0.0806,0.0975,0.1109,0.1109,0.1109,0.1076,0.1009,0.1009,0.1009,0.0942,0.0808,0.0775,0.0908,0.0674,0.0539,0.064,0.1176,0.1744,0.2281,0.3017,0.3951,0.5186,0.5385,0.5646,0.6038,0.6793,0.7162,0.7068,0.6675,0.6741,0.7265,0.7265,0.7493,0.0,0.0,0.0,0.0,0.0,0.0,-0.7563,-0.7214,-0.6837,0.0,0.0,0.0,0.0,0.0,0.0,0.0,0.0,0.0,0.0,0.0,0.0,0.0,0.0,0.0,0.0,0.0,0.0,-0.6028,-0.6028,-0.5973,-0.5832,-0.5262,-0.4853,-0.4719,-0.3858,-0.3413,-0.3413,-0.2969,-0.276,-0.2798,-0.2879,-0.2979,-0.3065,-0.3073,-0.312,-0.3173,-0.3176,-0.3192,-0.3192,-0.3192,-0.3192,-0.3192,-0.3192,-0.2922,-0.2417,-0.1816,-0.1176,-0.0504,0.0101,0.0067,-0.0269,-0.0269,-0.0638,-0.1143,-0.1477,-0.1644,-0.1678,-0.1644,-0.1947,-0.215,-0.1477,-0.0638,0.0067,0.037,0.0773,0.1109,0.1109,0.1109,0.1109,0.1109,0.1109,0.1109,0.1109,0.1109,0.1109,0.1109,0.1109,0.1109,0.1109,0.1009,0.0976,0.1076,0.1144,0.1177,0.1244,0.1812,0.238,0.2952,0.3387,0.412,0.5223,0.5782,0.621,0.6535,0.7521,0.7949,0.7727,0.7559,0.7624,0.7922,0.7922,0.8144,0.0,0.0,0.0,0.0,0.0,0.0,-0.7289,-0.6912,-0.6539,-0.6213,0.0,0.0,0.0,0.0,0.0,0.0,0.0,0.0,0.0,0.0,0.0,0.0,0.0,0.0,0.0,-0.5576,-0.574,-0.574,-0.5713,-0.5548,-0.5242,-0.4798,-0.455,-0.455,-0.3747,-0.333,-0.333,-0.2914,-0.2732,-0.2784,-0.2784,-0.2856,-0.2972,-0.3055,-0.3071,-0.3095,-0.3177,-0.3184,-0.3192,-0.3192,-0.3192,-0.3192,-0.3125,-0.272,-0.2147,-0.1613,-0.0908,-0.0168,0.0269,0.047,0.0571,0.0571,0.0538,0.0437,0.0101,-0.0134,-0.0336,-0.0706,-0.084,-0.0739,-0.0134,0.0067,0.0302,0.0941,0.1109,0.1109,0.1109,0.1109,0.1109,0.1109,0.1109,0.1109,0.1109,0.1109,0.1109,0.1109,0.1109,0.1109,0.1109,0.1109,0.1143,0.121,0.1745,0.2079,0.2045,0.2679,0.3282,0.3792,0.3892,0.4289,0.5027,0.6145,0.6802,0.6966,0.8019,0.8576,0.8614,0.8549,0.8544,0.8641,0.8608,0.8894,0.0,0.0,0.0,0.0,0.0,0.0,-0.6837,-0.6534,-0.6213,0.0,0.0,0.0,0.0,0.0,0.0,0.0,0.0,0.0,0.0,0.0,0.0,0.0,0.0,0.0,0.0,-0.5356,-0.5411,-0.5411,-0.5105,-0.4884,-0.4829,-0.4079,-0.3663,-0.3663,-0.3135,-0.283,-0.283,-0.2747,-0.2701,-0.2717,-0.2717,-0.2764,-0.2852,-0.2841,-0.2956,-0.3091,-0.3109,-0.3158,-0.3192,-0.3192,-0.3192,-0.3159,-0.2618,-0.2315,-0.2047,-0.0772,-0.0101,0.0269,0.0874,0.1042,0.0975,0.0975,0.0773,0.0437,0.0101,-0.0034,-0.0168,-0.0672,-0.0101,0.0571,0.0101,0.0437,0.0908,0.1076,0.1109,0.1109,0.1109,0.1109,0.1109,0.1109,0.1109,0.1109,0.1109,0.1109,0.1109,0.1109,0.1109,0.1109,0.1109,0.1109,0.131,0.1846,0.2013,0.2313,0.2915,0.3618,0.402,0.3961,0.4525,0.5411,0.6691,0.6953,0.7544,0.8528,0.8791,0.9022,0.9291,0.8776,0.8861,0.9556,0.9274,0.955,0.0,0.0,0.0,-0.6896,0.0,0.0,0.0,-0.6114,-0.5923,-0.5599,0.0,0.0,0.0,0.0,0.0,0.0,0.0,0.0,0.0,0.0,0.0,0.0,0.0,0.0,0.0,-0.5297,-0.5215,-0.5022,-0.4829,-0.4605,-0.4356,-0.3747,-0.3413,-0.3413,-0.2942,-0.2691,-0.2691,-0.2691,-0.2691,-0.2691,-0.2691,-0.2715,-0.276,-0.2776,-0.2845,-0.2934,-0.2896,-0.2695,-0.2435,-0.2304,-0.2082,-0.1878,-0.2012,-0.1862,-0.1413,-0.023,0.0489,0.0935,0.129,0.1354,0.1323,0.1408,0.1316,0.1155,0.1104,0.0941,0.0706,0.0269,0.0605,0.1008,0.0638,0.0807,0.1109,0.1109,0.1109,0.1109,0.1109,0.1109,0.1109,0.1109,0.1109,0.1109,0.1109,0.1109,0.1109,0.1109,0.1109,0.121,0.1544,0.1612,0.1879,0.2581,0.2982,0.3351,0.3718,0.442,0.4791,0.4694,0.506,0.5716,0.6756,0.712,0.7907,0.9221,0.9247,0.9318,0.9484,0.9163,0.9221,0.9658,0.976,1.0129,0.0,0.0,0.0,0.0,0.0,-0.5968,0.0,0.0,0.0,0.0,0.0,0.0,0.0,0.0,0.0,0.0,0.0,0.0,0.0,0.0,0.0,0.0,0.0,0.0,0.0,-0.5242,-0.505,-0.4719,-0.455,-0.4273,-0.3913,-0.3497,-0.3274,-0.3274,-0.2886,-0.2691,-0.2691,-0.2691,-0.2691,-0.2691,-0.2691,-0.2691,-0.2693,-0.2766,-0.2782,-0.2777,-0.264,-0.2296,-0.1835,-0.1452,-0.1066,-0.0732,-0.1263,-0.1116,-0.0547,0.0288,0.0945,0.1452,0.1452,0.145,0.1485,0.1649,0.1732,0.1814,0.2035,0.1817,0.148,0.121,0.1109,0.1109,0.1109,0.1109,0.1109,0.1109,0.1109,0.1109,0.1109,0.1109,0.1109,0.1109,0.1109,0.1109,0.1109,0.1109,0.1109,0.1109,0.121,0.1478,0.2047,0.2213,0.2581,0.3316,0.3951,0.4353,0.4486,0.5057,0.5458,0.5587,0.5591,0.5947,0.6756,0.7447,0.8333,0.9484,0.9516,0.9516,0.9516,0.9612,0.9638,0.9676,1.018,1.0674,0.0,0.0,0.0,0.0,-0.5473,0.0,0.0,0.0,-0.5352,-0.5301,0.0,0.0,0.0,0.0,0.0,0.0,0.0,0.0,0.0,0.0,0.0,0.0,0.0,0.0,0.0,0.0,-0.4743,-0.4691,-0.3996,-0.3524,-0.3469,-0.3023,-0.2775,-0.2775,-0.2719,-0.2691,-0.2691,-0.2691,-0.2691,-0.2691,-0.2691,-0.2691,-0.2691,-0.2701,-0.275,-0.2798,-0.2521,-0.2456,-0.2452,-0.1616,-0.1294,-0.1197,-0.0226,0.0194,0.0321,0.1033,0.127,0.1235,0.1235,0.1266,0.1329,0.1364,0.1484,0.1619,0.1667,0.1513,0.1311,0.1277,0.1176,0.1109,0.1109,0.1109,0.1109,0.1109,0.1109,0.1109,0.1109,0.1109,0.1109,0.1109,0.1109,0.1109,0.1109,0.1109,0.1109,0.1109,0.1612,0.2013,0.2079,0.2681,0.3351,0.4087,0.4253,0.4556,0.5226,0.5359,0.5653,0.6235,0.6301,0.6887,0.8194,0.8888,0.935,0.9484,0.9516,0.9516,0.9516,0.9989,1.0206,1.0212,1.0706,1.1209,0.0,0.0,0.0,0.0,0.0,0.0,-0.457,0.0,-0.4543,0.0,0.0,0.0,0.0,0.0,0.0,0.0,-0.3786,0.0,0.0,0.0,0.0,0.0,0.0,0.0,0.0,0.0,0.0,0.0,0.0,-0.3274,-0.2998,-0.2802,-0.2691,-0.2691,-0.2691,-0.2691,-0.2691,-0.2691,-0.2691,-0.2691,-0.2691,-0.2691,-0.2691,-0.2691,-0.2711,-0.2697,-0.2053,-0.1563,-0.1195,-0.0293,0.033,0.0725,0.1199,0.1009,0.0549,0.1386,0.1573,0.1404,0.1287,0.1228,0.1207,0.1283,0.1448,0.1587,0.1467,0.1379,0.1277,0.121,0.1143,0.1109,0.1109,0.1109,0.1109,0.1109,0.1109,0.1109,0.1109,0.1109,0.1109,0.1109,0.1109,0.1109,0.1109,0.1109,0.1244,0.1612,0.1913,0.2414,0.3282,0.3651,0.412,0.4858,0.4924,0.5057,0.5362,0.5752,0.6108,0.6367,0.7324,0.8121,0.8722,0.951,0.9967,0.9967,1.0114,1.0191,1.0191,1.0539,1.0706,1.0706,1.124,1.1584,-0.4322,0.0,0.0,0.0,0.0,0.0,0.0,0.0,0.0,0.0,0.0,0.0,0.0,0.0,0.0,0.0,0.0,0.0,0.0,0.0,0.0,0.0,0.0,0.0,0.0,0.0,0.0,0.0,0.0,0.0,-0.2719,-0.2691,-0.2691,-0.2691,-0.2691,-0.2691,-0.2691,-0.2691,-0.2691,-0.2691,-0.2691,-0.2691,-0.2691,-0.2691,-0.2607,-0.2417,-0.1634,-0.0916,-0.0247,0.0651,0.1362,0.1891,0.1983,0.156,0.0981,0.165,0.1798,0.1592,0.1379,0.1178,0.1078,0.118,0.1316,0.141,0.1297,0.1244,0.121,0.1143,0.1109,0.1109,0.1109,0.1109,0.1109,0.1109,0.1109,0.1109,0.1109,0.1109,0.1109,0.1109,0.1109,0.1143,0.1344,0.121,0.1344,0.2013,0.228,0.2848,0.4151,0.4486,0.4821,0.5329,0.5395,0.5462,0.5653,0.6108,0.6581,0.7061,0.841,0.9209,0.9276,0.9943,1.0361,1.0534,1.075,1.0909,1.1069,1.1261,1.1368,1.1368,1.1659,1.1802,0.0,0.0,0.0,-0.3497,0.0,0.0,0.0,0.0,-0.3118,0.0,0.0,0.0,0.0,0.0,0.0,0.0,0.0,0.0,0.0,0.0,0.0,0.0,0.0,0.0,0.0,0.0,0.0,0.0,0.0,0.0,-0.2691,-0.2691,-0.2691,-0.2691,-0.2691,-0.2691,-0.2691,-0.2691,-0.2691,-0.2691,-0.2691,-0.2691,-0.2691,-0.2691,-0.238,-0.1822,-0.1449,-0.0958,-0.0339,0.0541,0.0967,0.1096,0.1611,0.1865,0.1962,0.1903,0.1823,0.1671,0.1391,0.1122,0.0908,0.0999,0.102,0.1032,0.1091,0.1109,0.1109,0.1109,0.1109,0.1109,0.1109,0.1109,0.1109,0.1109,0.1109,0.1109,0.1109,0.1109,0.1109,0.1109,0.1109,0.131,0.1946,0.1545,0.1344,0.2013,0.2714,0.3451,0.4187,0.4924,0.5362,0.5395,0.5395,0.5653,0.6301,0.6396,0.7098,0.8707,0.9488,0.9988,1.0239,1.0292,1.0569,1.1162,1.1183,1.1478,1.2043,1.2175,1.2255,1.2248,1.1959,1.1802,0.0,0.0,-0.2996,-0.2687,0.0,0.0,0.0,0.0,0.0,0.0,0.0,0.0,0.0,0.0,0.0,0.0,0.0,0.0,0.0,0.0,0.0,0.0,0.0,0.0,0.0,0.0,0.0,0.0,0.0,0.0,0.0,-0.2691,-0.2691,-0.2691,-0.2691,-0.2691,-0.2691,-0.2296,-0.2099,-0.2099,-0.1706,-0.151,-0.151,-0.151,-0.1387,-0.1187,-0.0627,-0.0185,0.0191,0.0884,0.1326,0.1625,0.179,0.1979,0.2113,0.2009,0.1941,0.188,0.1649,0.1375,0.1175,0.1191,0.1112,0.1026,0.1064,0.1109,0.1109,0.1109,0.1109,0.1109,0.1109,0.1109,0.1109,0.1109,0.1109,0.1109,0.1109,0.1109,0.1109,0.1109,0.1444,0.1846,0.2045,0.2313,0.2748,0.3451,0.3785,0.4187,0.4924,0.5259,0.5395,0.5395,0.5782,0.6141,0.6367,0.7432,0.8482,0.9483,1.0122,1.046,1.0551,1.0755,1.0919,1.1137,1.1313,1.171,1.2305,1.2477,1.2783,1.3138,1.2811,1.2531,-0.2719,-0.2549,0.0,-0.238,-0.235,0.0,-0.1596,0.0,0.0,0.0,0.0,0.0,0.0,0.0,0.0,0.0,0.0,0.0,0.0,-0.2043,0.0,0.0,0.0,0.0,0.0,0.0,0.0,-0.2691,-0.2493,0.0,0.0,0.0,-0.2691,-0.2691,-0.2493,-0.238,-0.238,-0.179,-0.1482,-0.1482,-0.109,-0.0894,-0.0894,-0.0894,-0.0797,-0.0559,-0.0091,0.0282,0.0646,0.1063,0.1412,0.1681,0.1681,0.185,0.2075,0.2041,0.1959,0.1879,0.1756,0.1511,0.1303,0.1309,0.1161,0.1006,0.1067,0.1109,0.1109,0.1109,0.1109,0.1109,0.1109,0.1109,0.1109,0.1109,0.1109,0.1109,0.1109,0.1276,0.1444,0.1444,0.2013,0.2589,0.2886,0.3332,0.3808,0.4284,0.4386,0.4639,0.5443,0.5787,0.5954,0.5954,0.6624,0.716,0.74,0.8641,0.9627,1.0143,1.0497,1.0725,1.0852,1.1021,1.1186,1.1409,1.1601,1.2083,1.2913,1.2875,1.3199,1.3767,1.3425,1.3172]},{"header":{"parameterUnit":"m.s-1","parameterCategory":1,"la1":30.6,"la2":29.2853,"lo1":-89.7004,"lo2":-87.6739,"dy":0.0162,"dx":0.0183,"nx":112,"ny":82,"refTime":"2024-02-12T06:00:00:Z","depth":0,"parameterNumber":3,"parameterNumberName":"V-component_of_WINDS"},"data":[0.0,0.0,0.0,0.0,0.0,0.0,0.0,0.0,0.0,0.0,0.0,0.0,0.0,0.0,0.0,0.0,0.0,0.0,0.0,0.0,0.0,0.0,0.0,0.0,0.0,0.0,0.0,0.0,0.0,0.0,0.0,0.0,0.0,0.0,0.0,0.0,0.0,0.0,0.0,0.0,0.0,0.0,0.0,0.0,0.0,0.0,0.0,0.0,0.0,0.0,0.0,0.0,0.0,0.0,0.0,0.0,0.0,0.0,0.0,0.0,0.0,0.0,0.0,0.0,0.0,0.0,0.0,0.0,0.0,0.0,0.0,0.0,0.0,0.0,0.0,0.0,0.0,0.0,0.0,0.0,0.0,0.0,0.0,0.0,0.0,0.0,0.0,0.0,0.0,0.0,-1.731,-1.7242,-1.7052,-1.6939,-1.7023,-1.7136,-1.7496,-1.8201,0.0,0.0,0.0,0.0,0.0,0.0,0.0,0.0,0.0,0.0,0.0,0.0,0.0,0.0,0.0,0.0,0.0,0.0,0.0,0.0,0.0,0.0,0.0,0.0,0.0,0.0,0.0,0.0,0.0,0.0,0.0,0.0,0.0,0.0,0.0,0.0,0.0,0.0,0.0,0.0,0.0,0.0,0.0,0.0,0.0,0.0,0.0,0.0,0.0,0.0,0.0,0.0,0.0,0.0,0.0,0.0,0.0,0.0,0.0,0.0,0.0,0.0,0.0,0.0,0.0,0.0,0.0,0.0,0.0,0.0,0.0,0.0,0.0,0.0,0.0,0.0,0.0,0.0,0.0,0.0,0.0,0.0,0.0,0.0,0.0,0.0,0.0,0.0,0.0,0.0,0.0,0.0,0.0,0.0,0.0,0.0,0.0,0.0,0.0,0.0,0.0,0.0,0.0,0.0,-1.7625,-1.7031,-1.6918,-1.696,-1.7157,-1.7199,-1.7406,-1.7929,0.0,0.0,0.0,0.0,0.0,0.0,0.0,0.0,0.0,0.0,0.0,0.0,0.0,0.0,0.0,0.0,0.0,0.0,0.0,0.0,0.0,0.0,0.0,0.0,0.0,0.0,0.0,0.0,0.0,0.0,0.0,0.0,0.0,0.0,0.0,0.0,0.0,0.0,0.0,0.0,0.0,0.0,0.0,0.0,0.0,0.0,0.0,0.0,0.0,0.0,0.0,0.0,0.0,0.0,0.0,0.0,0.0,0.0,0.0,0.0,0.0,0.0,0.0,0.0,0.0,0.0,0.0,0.0,0.0,0.0,0.0,0.0,0.0,0.0,0.0,0.0,0.0,0.0,0.0,0.0,0.0,0.0,0.0,0.0,0.0,0.0,0.0,0.0,0.0,0.0,0.0,0.0,0.0,0.0,0.0,0.0,0.0,0.0,0.0,0.0,0.0,0.0,0.0,-1.7808,-1.7516,-1.696,-1.6918,-1.7023,-1.7199,-1.7199,-1.7385,-1.7862,-1.7432,0.0,0.0,0.0,0.0,0.0,0.0,0.0,0.0,0.0,0.0,0.0,0.0,0.0,0.0,0.0,0.0,0.0,0.0,0.0,0.0,0.0,0.0,0.0,0.0,0.0,0.0,0.0,0.0,0.0,0.0,0.0,0.0,0.0,0.0,0.0,0.0,0.0,0.0,0.0,0.0,0.0,0.0,0.0,0.0,0.0,0.0,0.0,0.0,0.0,0.0,0.0,0.0,0.0,0.0,0.0,0.0,0.0,0.0,0.0,0.0,0.0,0.0,0.0,0.0,0.0,0.0,0.0,0.0,0.0,0.0,0.0,0.0,0.0,0.0,0.0,0.0,0.0,0.0,0.0,0.0,0.0,0.0,0.0,0.0,0.0,0.0,0.0,0.0,0.0,0.0,0.0,0.0,0.0,0.0,0.0,0.0,0.0,0.0,0.0,0.0,0.0,0.0,-1.7359,-1.7165,-1.6918,-1.6939,-1.7044,-1.7199,-1.7136,-1.7323,-1.7862,-1.7075,0.0,0.0,0.0,0.0,0.0,0.0,0.0,0.0,0.0,0.0,0.0,0.0,0.0,0.0,0.0,0.0,0.0,0.0,0.0,0.0,0.0,0.0,0.0,0.0,0.0,0.0,0.0,0.0,0.0,0.0,0.0,0.0,0.0,0.0,0.0,0.0,0.0,0.0,0.0,0.0,0.0,0.0,0.0,0.0,0.0,0.0,0.0,0.0,0.0,0.0,0.0,0.0,0.0,0.0,0.0,0.0,0.0,0.0,0.0,0.0,0.0,0.0,0.0,0.0,0.0,0.0,0.0,0.0,0.0,0.0,0.0,0.0,0.0,0.0,0.0,0.0,0.0,0.0,0.0,0.0,0.0,0.0,0.0,0.0,0.0,0.0,0.0,0.0,0.0,0.0,0.0,0.0,0.0,0.0,0.0,0.0,0.0,0.0,0.0,0.0,0.0,0.0,-1.7167,-1.665,-1.6876,-1.6897,-1.6981,-1.7178,-1.6913,-1.706,-1.7862,-1.6843,0.0,0.0,0.0,0.0,0.0,0.0,0.0,0.0,0.0,0.0,0.0,0.0,0.0,0.0,0.0,0.0,0.0,0.0,0.0,0.0,0.0,0.0,0.0,0.0,0.0,0.0,0.0,0.0,0.0,0.0,0.0,0.0,0.0,0.0,0.0,0.0,0.0,0.0,0.0,0.0,0.0,0.0,0.0,0.0,0.0,0.0,0.0,0.0,0.0,0.0,0.0,0.0,0.0,0.0,0.0,0.0,0.0,0.0,0.0,0.0,0.0,0.0,0.0,0.0,0.0,0.0,0.0,0.0,0.0,0.0,0.0,0.0,0.0,0.0,0.0,0.0,0.0,0.0,0.0,0.0,0.0,0.0,0.0,0.0,0.0,0.0,0.0,0.0,0.0,0.0,0.0,0.0,0.0,0.0,0.0,0.0,0.0,0.0,0.0,0.0,0.0,0.0,-1.7598,-1.7165,0.0,-1.7002,-1.7031,-1.6892,-1.6786,-1.6767,-1.6944,0.0,0.0,0.0,0.0,0.0,0.0,0.0,0.0,0.0,0.0,0.0,0.0,0.0,0.0,0.0,0.0,0.0,0.0,0.0,0.0,0.0,0.0,0.0,0.0,0.0,0.0,0.0,0.0,0.0,0.0,0.0,0.0,0.0,0.0,0.0,0.0,0.0,0.0,0.0,0.0,0.0,0.0,0.0,0.0,0.0,0.0,0.0,0.0,0.0,0.0,0.0,0.0,0.0,0.0,0.0,0.0,0.0,0.0,0.0,0.0,0.0,0.0,0.0,0.0,0.0,0.0,0.0,0.0,0.0,0.0,0.0,0.0,0.0,0.0,0.0,0.0,0.0,0.0,0.0,0.0,0.0,0.0,0.0,0.0,0.0,0.0,0.0,0.0,0.0,0.0,0.0,0.0,0.0,0.0,0.0,0.0,0.0,0.0,0.0,0.0,0.0,0.0,-1.81,-1.7666,-1.7261,0.0,-1.6947,-1.6892,-1.6723,-1.6488,-1.6351,-1.6395,0.0,0.0,0.0,0.0,0.0,0.0,0.0,0.0,0.0,0.0,0.0,0.0,0.0,0.0,0.0,0.0,0.0,0.0,0.0,0.0,0.0,0.0,0.0,0.0,0.0,0.0,0.0,0.0,0.0,0.0,0.0,0.0,0.0,0.0,0.0,0.0,0.0,0.0,0.0,0.0,0.0,0.0,0.0,0.0,0.0,0.0,0.0,0.0,0.0,0.0,0.0,0.0,0.0,0.0,0.0,0.0,0.0,0.0,0.0,0.0,0.0,0.0,0.0,0.0,0.0,0.0,0.0,0.0,0.0,0.0,0.0,0.0,0.0,0.0,0.0,0.0,0.0,0.0,0.0,0.0,0.0,0.0,0.0,0.0,0.0,0.0,0.0,0.0,0.0,0.0,0.0,0.0,0.0,0.0,0.0,0.0,0.0,0.0,0.0,0.0,0.0,0.0,-1.7988,-1.724,-1.674,-1.6854,-1.665,-1.6531,-1.6667,-1.5998,-1.5819,0.0,0.0,0.0,0.0,0.0,0.0,0.0,0.0,0.0,0.0,0.0,0.0,0.0,0.0,0.0,0.0,0.0,0.0,0.0,0.0,0.0,0.0,0.0,0.0,0.0,0.0,0.0,0.0,0.0,0.0,0.0,0.0,0.0,0.0,0.0,0.0,0.0,0.0,0.0,0.0,0.0,0.0,0.0,0.0,0.0,0.0,0.0,0.0,0.0,0.0,0.0,0.0,0.0,0.0,0.0,0.0,0.0,0.0,0.0,0.0,0.0,0.0,0.0,0.0,0.0,0.0,0.0,0.0,0.0,0.0,0.0,0.0,0.0,0.0,0.0,0.0,0.0,0.0,0.0,0.0,0.0,0.0,0.0,0.0,0.0,0.0,0.0,0.0,0.0,0.0,0.0,0.0,0.0,0.0,0.0,0.0,0.0,0.0,0.0,0.0,0.0,0.0,0.0,-1.7545,-1.6489,-1.5734,-1.5778,-1.5734,-1.5722,-1.57,-1.4907,-1.4636,-1.5162,0.0,0.0,0.0,0.0,0.0,0.0,0.0,0.0,0.0,0.0,0.0,0.0,0.0,0.0,0.0,0.0,0.0,0.0,0.0,0.0,0.0,0.0,0.0,0.0,0.0,0.0,0.0,0.0,0.0,0.0,0.0,0.0,0.0,0.0,0.0,0.0,0.0,0.0,0.0,0.0,0.0,0.0,0.0,0.0,0.0,0.0,0.0,0.0,0.0,0.0,0.0,0.0,0.0,0.0,0.0,0.0,0.0,0.0,0.0,0.0,0.0,0.0,0.0,0.0,0.0,0.0,0.0,0.0,0.0,0.0,0.0,0.0,0.0,0.0,0.0,0.0,0.0,0.0,0.0,0.0,0.0,0.0,0.0,0.0,0.0,0.0,0.0,0.0,0.0,0.0,0.0,0.0,0.0,0.0,0.0,0.0,0.0,0.0,0.0,0.0,0.0,0.0,-1.704,-1.6024,-1.5311,-1.5311,-1.5243,-1.5119,-1.4926,-1.4116,-1.3681,-1.3862,0.0,0.0,0.0,0.0,0.0,0.0,0.0,0.0,0.0,0.0,0.0,0.0,0.0,0.0,0.0,0.0,0.0,0.0,0.0,0.0,0.0,0.0,0.0,0.0,0.0,0.0,0.0,0.0,0.0,0.0,0.0,0.0,0.0,0.0,0.0,0.0,0.0,0.0,0.0,0.0,0.0,0.0,0.0,0.0,0.0,0.0,0.0,0.0,0.0,0.0,0.0,0.0,0.0,0.0,0.0,0.0,0.0,0.0,0.0,0.0,0.0,0.0,0.0,0.0,0.0,0.0,0.0,0.0,0.0,0.0,0.0,0.0,0.0,0.0,0.0,0.0,0.0,0.0,0.0,0.0,0.0,0.0,0.0,0.0,0.0,0.0,0.0,0.0,0.0,0.0,0.0,0.0,0.0,0.0,0.0,0.0,0.0,0.0,0.0,0.0,0.0,0.0,-1.6553,-1.5698,-1.513,-1.5141,-1.4892,-1.4594,-1.4261,-1.3466,-1.2878,-1.2605,0.0,0.0,0.0,0.0,0.0,0.0,0.0,0.0,0.0,0.0,0.0,0.0,0.0,0.0,0.0,0.0,0.0,0.0,0.0,0.0,0.0,0.0,0.0,0.0,0.0,0.0,0.0,0.0,0.0,0.0,0.0,0.0,0.0,0.0,0.0,0.0,0.0,0.0,0.0,0.0,0.0,0.0,0.0,0.0,0.0,0.0,0.0,0.0,0.0,0.0,0.0,0.0,0.0,0.0,0.0,0.0,0.0,0.0,0.0,0.0,0.0113,0.0,0.0,0.0,0.0,0.0,0.0,0.0,0.0,0.0,0.0,0.0,0.0,0.0,0.0,0.0,0.0,0.0,0.0,0.0,0.0,0.0,0.0,0.0,0.0,0.0,0.0,0.0,0.0,0.0,0.0,0.0,0.0,0.0,0.0,0.0,0.0,0.0,0.0,0.0,0.0,0.0,-1.6062,-1.4767,-1.386,-1.3954,-1.3637,-1.3471,-1.3566,-1.2233,-1.1719,-1.2468,-1.1703,0.0,0.0,0.0,0.0,0.0,0.0,0.0,0.0,0.0,0.0,0.0,0.0,0.0,0.0,0.0,0.0,0.0,0.0,0.0,0.0,0.0,0.0,0.0,0.0,0.0,0.0,0.0,0.0,0.0,0.0,0.0,0.0,0.0,0.0,0.0,0.0,0.0,0.0,0.0,0.0,0.0,0.0,0.0,0.0,0.0,0.0,0.0,0.0,0.0,0.0,0.0,0.0,0.0,0.0,0.0,0.0,0.0,0.0,0.0,0.0,0.0028,0.0,0.0,0.0,0.0,0.0,0.0,0.0,0.0,0.0,0.0,0.0,0.0,0.0,0.0,0.0,0.0,0.0,0.0,0.0,0.0,0.0,0.0,0.0,0.0,0.0,0.0,0.0,0.0,0.0,0.0,0.0,0.0,0.0,0.0,0.0,0.0,0.0,0.0,0.0,0.0,-1.5138,-1.3624,-1.256,-1.2633,-1.257,-1.2521,-1.2491,-1.1454,-1.0958,-1.1308,-1.0501,0.0,0.0,0.0,0.0,0.0,0.0,0.0,0.0,0.0,0.0,0.0,0.0,0.0,0.0,0.0,0.0,0.0,0.0,0.0,0.0,0.0,0.0,0.0,0.0,0.0,0.0,0.0,0.0,0.0,0.0,0.0,0.0,0.0,0.0,0.0,0.0,0.0,0.0,0.0,0.0,0.0,0.0,0.0,0.0,0.0,0.0,0.0,0.0,0.0,0.0,0.0,0.0,0.0,0.3143,0.3143,0.3143,0.3116,0.3448,0.392,0.2021,0.1719,0.2445,0.0,0.0,0.0,0.0,0.0,0.0,0.0,0.0,0.0,0.0,0.0,0.0,0.0,0.0,0.0,0.0,0.0,0.0,0.0,0.0,0.0,0.0,0.0,0.0,0.0,-0.7748,-0.7748,0.0,0.0,0.0,0.0,0.0,0.0,0.0,0.0,0.0,0.0,0.0,0.0,-1.3998,-1.2575,-1.1566,-1.1591,-1.174,-1.1708,-1.1444,-1.0895,-1.0388,-0.9978,-0.9376,-0.9326,0.0,0.0,0.0,0.0,0.0,0.0,0.0,0.0,0.0,0.0,0.0,0.0,0.0,0.0,0.0,0.0,0.0,0.0,0.0,0.0,0.0,0.0,0.0,0.0,0.0,0.0,0.0,0.0,0.0,0.0,0.0,0.0,0.7299,0.7181,0.0,0.0,0.0,0.0,0.0,0.0,0.0,0.0,0.0,0.0,0.0,0.0,0.0,0.4006,0.4591,0.4202,0.426,0.4791,0.4904,0.4959,0.4959,0.4846,0.4846,0.4901,0.4477,0.0,0.2828,0.255,0.0,0.0,0.0,0.0,0.0,0.0,0.0,0.0,0.0,0.0,0.0,0.0,0.0,0.0,0.0,0.0,0.0,0.0,0.0,0.0,0.0,0.0,-0.3779,-0.4535,-0.459,-0.4894,0.0,-0.8971,-1.119,-1.2018,-1.2172,0.0,0.0,0.0,0.0,0.0,0.0,0.0,-1.2782,-1.1984,-1.1466,-1.1591,-1.1309,-1.1099,-1.1082,-1.0401,-0.9819,-0.9352,-0.895,-0.896,-0.9392,-0.9799,0.0,0.0,0.0,0.0,0.0,0.0,0.0,0.0,0.0,0.0,0.0,0.0,0.0,0.0,0.0,0.0,0.0,0.0,0.0,0.0,0.0,0.0,0.0,0.0,0.0,0.0,0.0,0.0,0.0,0.6983,0.7251,0.6838,0.6443,0.6018,0.0,0.0,0.0,0.0,0.0,0.0,0.0,0.0,0.0,0.5504,0.4941,0.4776,0.5128,0.4932,0.4959,0.5215,0.527,0.5297,0.5297,0.5242,0.5215,0.5215,0.5156,0.4787,0.4199,0.3638,0.2467,0.1024,0.0,0.0,0.0,0.0,-0.0469,-0.0331,0.044,0.055,0.0,0.0,0.0,0.0,0.0,0.0,0.0,0.0,0.0,0.0,0.0,0.0,0.0,-0.3314,-0.3317,-0.3541,-0.4122,-0.5694,-0.7613,0.0,-1.0806,-1.1728,-1.304,0.0,0.0,0.0,0.0,-1.1991,-1.1785,-1.0973,-1.0415,-1.0466,-1.0464,-1.0454,-1.0454,-1.0253,-0.9938,-0.9514,-0.9064,-0.8898,-0.9128,-0.9365,-0.9886,0.0,0.0,0.0,0.0,0.0,0.0,0.0,0.0,0.0,0.0,0.0,0.0,0.0,0.0,0.0,0.0,0.0,0.0,0.0,0.0,0.0,0.0,0.0,0.0,0.0,0.0,0.0,0.0,0.7331,0.7551,0.6762,0.6767,0.6529,0.0,0.0,0.0,0.0,0.0,0.0,0.6923,0.6365,0.6153,0.6322,0.5864,0.5597,0.554,0.554,0.5462,0.5297,0.5297,0.5297,0.5297,0.5297,0.538,0.554,0.554,0.5622,0.5677,0.4618,0.3693,0.2909,0.2354,0.1633,0.0939,0.1325,0.1463,0.1602,0.2522,0.2749,0.2639,0.2639,0.0,0.0497,-0.0631,0.0,0.0,0.0,0.0,-0.3763,-0.3177,-0.3129,-0.3079,-0.2593,-0.2543,-0.2683,-0.285,-0.3481,-0.4798,0.0,-0.8884,-1.0109,-1.1594,0.0,0.0,0.0,0.0,-1.0612,-1.0308,-0.9714,-0.9354,-0.9354,-0.9673,-0.987,-0.9766,-0.9983,-0.9859,-0.9221,-0.8904,-0.8724,-0.8667,-0.876,-0.9113,-0.9707,0.0,0.0,0.0,0.0,0.0,0.0,0.0,0.0,0.0,0.0,0.0,0.0,0.0,0.0,0.0,0.0,0.0,0.0,0.0,0.0,0.0,0.0,0.0,0.0,0.0,0.0,0.0,0.0,0.0,0.7599,0.8057,0.0,0.0,0.0,0.0,0.7234,0.7261,0.7288,0.7288,0.7133,0.7085,0.7235,0.7079,0.6729,0.6154,0.6154,0.5859,0.5297,0.5297,0.5297,0.5297,0.5297,0.5622,0.6154,0.6154,0.648,0.6923,0.5732,0.4388,0.3094,0.3039,0.2154,0.1077,0.2485,0.2984,0.3207,0.4642,0.4794,0.4377,0.4377,0.3337,0.1886,0.0745,-0.0276,0.0,0.0,-0.1608,-0.1693,-0.0671,-0.0728,-0.1176,-0.1706,-0.1846,-0.2041,-0.2738,-0.347,-0.4252,0.0,-0.581,-0.6891,-0.8938,0.0,-0.936,-0.9592,-0.9548,-0.9063,-0.7853,-0.8243,-0.8653,-0.8653,-0.9223,-0.9465,-0.9087,-0.9399,-0.912,-0.7871,-0.8132,-0.8159,-0.7783,-0.7946,-0.8504,-0.9498,-0.9293,0.0,0.0,0.0,0.0,0.0,0.0,0.0,0.0,0.0,0.0,0.0,0.0,0.0,0.0,0.0,0.0,0.0,0.0,0.0,0.0,0.0,0.0,0.0,0.0,0.0,0.0,0.0,0.0,0.7652,0.8137,0.0,0.7572,0.7925,0.819,0.8137,0.8448,0.8652,0.8652,0.8534,0.8329,0.8017,0.7969,0.7616,0.6912,0.6912,0.6561,0.5887,0.5887,0.5673,0.5297,0.5297,0.5407,0.565,0.6023,0.6317,0.6507,0.6485,0.5928,0.5089,0.5089,0.4539,0.3798,0.4333,0.4529,0.4584,0.5128,0.5187,0.4963,0.4601,0.4122,0.3533,0.2749,0.1998,0.1333,0.1001,0.0501,0.0084,0.0168,-0.014,-0.0505,-0.0728,-0.1008,-0.1288,-0.1568,-0.212,-0.2698,-0.3033,-0.4625,-0.6198,-0.702,-0.7446,-0.7894,-0.8462,-0.8265,-0.788,-0.7444,-0.7685,-0.7898,-0.7898,-0.8104,-0.8184,-0.8057,-0.8764,-0.888,-0.8073,-0.8433,-0.8458,-0.7968,-0.7701,-0.773,-0.8072,-0.7743,-0.8273,0.0,0.0,0.0,0.0,0.0,0.0,0.0,0.0,0.0,0.0,0.0,0.0,0.0,0.0,0.0,0.0,0.0,0.0,0.0,0.0,0.0,0.0,0.0,0.0,0.0,0.0,0.8981,0.7652,0.8349,0.8672,0.7951,0.8514,0.8942,0.8942,0.9276,0.9465,0.9465,0.9335,0.9106,0.8765,0.8685,0.8342,0.767,0.7664,0.7289,0.6561,0.6421,0.6077,0.5595,0.5462,0.5485,0.565,0.6241,0.6615,0.6826,0.7429,0.7321,0.6745,0.6344,0.5968,0.5595,0.5462,0.5407,0.5407,0.5466,0.5466,0.5407,0.5046,0.4904,0.4767,0.415,0.3652,0.3209,0.2732,0.2206,0.1679,0.1285,0.0866,0.0503,0.0336,-0.0112,-0.0532,-0.0532,-0.1036,-0.1512,-0.1624,-0.3387,-0.5,-0.5333,-0.5846,-0.6509,-0.7319,-0.7106,-0.6885,-0.6988,-0.7063,-0.7138,-0.7138,-0.7358,-0.7439,-0.7305,-0.8263,-0.8508,-0.7659,-0.8241,-0.8285,-0.7529,-0.7385,-0.7356,-0.737,-0.7112,-0.7508,-0.8625,0.0,0.0,0.0,0.0,0.0,0.0,0.0,0.0,0.0,0.0,0.0,0.0,0.0,0.0,0.0,0.0,0.0,0.0,0.0,0.0,0.0,0.0,0.0,0.8758,0.9197,0.9112,0.7726,0.8764,0.9354,0.8705,0.9223,0.9588,0.9588,0.9588,0.9588,0.9588,0.9484,0.9413,0.9413,0.929,0.8949,0.8427,0.8421,0.807,0.7343,0.6885,0.6507,0.6236,0.5809,0.5837,0.6236,0.6837,0.7402,0.7925,0.8533,0.8448,0.7818,0.6691,0.6236,0.6182,0.5809,0.565,0.565,0.5791,0.5822,0.5795,0.5795,0.5709,0.5508,0.4924,0.4622,0.4405,0.3962,0.3486,0.3063,0.2809,0.2395,0.1924,0.1453,0.0782,0.0251,0.0251,-0.0336,-0.0842,-0.087,-0.193,-0.3067,-0.3801,-0.4436,-0.5121,-0.5973,-0.6005,0.0,-0.6281,-0.633,-0.6357,-0.6357,-0.7009,-0.7278,-0.6907,-0.7904,-0.7921,-0.6483,-0.7431,-0.7523,-0.6332,-0.6957,-0.7365,-0.7426,-0.7454,-0.7349,-0.7086,0.0,0.0,0.0,0.0,0.0,0.0,0.0,0.0,0.0,0.0,0.0,0.0,0.0,0.0,0.0,0.0,0.0,0.0,0.0,0.0,0.0,1.011,1.0025,0.9532,0.9636,0.9577,0.9086,0.9373,0.9536,0.9354,0.9484,0.9588,0.9588,0.9588,0.9588,0.9588,0.9562,0.9536,0.9536,0.9517,0.938,0.9126,0.9126,0.8784,0.8096,0.7963,0.7637,0.7117,0.6588,0.6372,0.6507,0.6669,0.7069,0.7652,0.8262,0.8633,0.8751,0.7919,0.7331,0.6988,0.6988,0.6691,0.6317,0.6376,0.6114,0.5795,0.5795,0.5768,0.5709,0.554,0.5179,0.4763,0.4622,0.4202,0.3729,0.3671,0.3307,0.2834,0.2421,0.1895,0.1423,0.1061,0.0699,0.0307,-0.0028,-0.0559,-0.1286,-0.2373,-0.3037,-0.3564,-0.3911,-0.4302,0.0,-0.4051,-0.4776,-0.5277,-0.5191,-0.5741,-0.6105,-0.6114,-0.6885,-0.7042,-0.6311,-0.6681,-0.6603,-0.5827,-0.5951,-0.5966,-0.5838,-0.6345,-0.6653,0.0,0.0,0.0,0.0,0.0,0.0,0.0,0.0,0.0,0.0,0.0,0.0,0.0,0.0,0.0,0.0,0.0,0.0,0.0,0.0,0.0,0.0,1.0905,1.093,1.066,1.0275,0.9947,0.9777,0.9777,0.9777,0.9777,0.9777,0.9777,0.9777,0.9777,0.9751,0.9681,0.9681,0.9647,0.9614,0.9588,0.9562,0.9491,0.9491,0.9256,0.8811,0.8653,0.8335,0.7845,0.7316,0.7015,0.0,0.723,0.7557,0.7925,0.8494,0.8923,0.0,0.0,0.0,0.0,0.0,0.7391,0.7149,0.7149,0.6939,0.6652,0.6413,0.6305,0.6218,0.595,0.5595,0.5289,0.534,0.5113,0.4811,0.4701,0.4474,0.4165,0.3724,0.3171,0.2617,0.2147,0.1703,0.1228,0.0754,0.0,0.0,-0.0839,-0.1789,-0.2595,-0.3028,-0.3337,-0.3536,-0.3553,-0.3892,-0.4116,-0.4033,-0.456,-0.4869,-0.4673,-0.5565,0.0,0.0,0.0,-0.5549,-0.5185,-0.5161,0.0,0.0,0.0,-0.6034,-0.6012,0.0,0.0,0.0,-0.9234,-0.9711,0.0,0.0,0.0,0.0,0.0,0.0,0.0,0.0,0.0,0.0,0.0,0.0,0.0,0.0,0.0,0.0,1.194,1.199,1.1848,1.1049,1.0411,1.0198,1.0172,1.0172,1.0172,1.012,1.0095,1.0095,1.0025,0.9947,0.9825,0.0,0.0,0.0,0.0,0.9614,0.9588,0.9588,0.9536,0.9413,0.9066,0.8751,0.8527,0.8043,0.7765,0.7679,0.815,0.8395,0.8474,0.8968,0.9185,0.9185,0.8712,0.8527,0.8474,0.807,0.7957,0.0,0.8004,0.0,0.0,0.7348,0.7106,0.6907,0.63,0.6032,0.5955,0.6005,0.6032,0.5973,0.5732,0.5677,0.554,0.5093,0.4477,0.3865,0.3395,0.2758,0.2119,0.1591,0.1481,0.1257,0.0616,-0.0643,-0.1868,-0.2713,-0.2809,-0.3037,-0.3737,-0.3387,-0.3035,-0.3035,0.0,0.0,-0.3201,-0.4241,-0.4546,-0.3594,-0.4055,-0.4399,-0.4479,-0.4516,-0.4652,-0.4874,-0.5287,-0.536,-0.5018,-0.557,-0.5834,-0.5892,-0.8118,-0.894,0.0,0.0,0.0,0.0,0.0,0.0,0.0,0.0,0.0,0.0,0.0,0.0,0.0,0.0,0.0,1.1814,1.1996,1.2104,1.199,1.1776,1.1576,1.1325,1.1291,1.1291,1.1291,1.0889,1.0651,1.0651,1.0249,0.9999,0.9973,0.9947,0.9895,0.9766,0.9766,0.9706,0.9614,0.9588,0.9588,0.9562,0.0,0.0,0.9354,0.883,0.8567,0.8534,0.8164,0.8276,0.8725,0.883,0.9119,0.951,0.9283,0.9276,0.9354,0.9276,0.8981,0.8613,0.8613,0.8296,0.7871,0.7771,0.7738,0.7605,0.7052,0.6869,0.0,0.6282,0.6173,0.6146,0.6096,0.6091,0.5982,0.5563,0.5371,0.512,0.4646,0.426,0.3763,0.2926,0.2589,0.2145,0.1285,0.0391,-0.0419,-0.1062,-0.1649,-0.19,-0.1592,-0.2261,-0.2706,-0.2565,-0.3065,-0.345,-0.3503,-0.3748,-0.3696,-0.3229,-0.3007,-0.3166,-0.378,-0.3649,-0.3712,-0.4033,-0.4293,-0.4207,-0.3823,-0.4487,-0.4783,-0.4829,-0.6789,-0.7834,0.0,0.0,0.0,0.0,0.0,0.0,0.0,0.0,0.0,0.0,0.0,1.2716,1.2463,0.0,1.2967,1.2812,1.2909,1.2943,1.2808,1.2808,1.2555,1.1882,1.1807,1.1807,1.1807,1.1568,1.1401,1.1401,1.115,1.0973,1.0906,1.0643,1.0454,1.03,1.0051,0.987,0.9803,0.9732,0.9706,0.9706,0.9647,0.9588,0.9588,0.9321,0.9197,0.9197,0.8961,0.8988,0.9197,0.9197,0.9354,0.9588,0.9603,0.9595,0.9614,0.9673,0.9517,0.9316,0.9387,0.9204,0.8909,0.8646,0.8508,0.8349,0.7765,0.7557,0.7423,0.7133,0.7106,0.7155,0.7155,0.7052,0.6896,0.6701,0.6485,0.6191,0.5586,0.534,0.5007,0.4174,0.3895,0.3478,0.2482,0.195,0.1255,0.0028,-0.0531,-0.081,-0.0813,-0.1372,-0.1762,-0.1649,-0.2178,-0.2456,-0.2259,-0.2371,-0.2373,-0.2207,-0.2179,-0.2319,-0.2681,-0.2608,-0.2747,-0.3155,-0.3258,-0.3495,-0.3845,-0.4184,-0.4554,-0.4923,-0.6031,-0.679,0.0,0.0,0.0,0.0,0.0,0.0,0.0,0.0,1.3621,1.3396,1.3692,1.3868,1.3443,1.3739,1.3986,1.3868,1.3868,1.3834,1.3692,1.3692,1.3348,1.2452,1.2329,1.2295,1.2295,1.2221,1.2172,1.2172,1.2049,1.194,1.1848,1.1417,1.1082,1.0854,1.0429,1.012,0.9999,0.9895,0.9851,0.9851,0.9725,0.9673,0.9647,0.9673,0.9673,0.9647,0.9792,0.9784,0.9699,0.9795,0.9847,0.9847,1.0061,1.001,0.9821,0.9844,0.9851,0.9844,0.9973,0.9999,0.9921,0.9498,0.9283,0.9112,0.862,0.8316,0.8137,0.8131,0.8125,0.8151,0.8151,0.7972,0.7797,0.7723,0.7456,0.7025,0.6354,0.6218,0.5996,0.5336,0.5195,0.4889,0.395,0.3699,0.295,0.0924,0.0503,0.0252,-0.0252,-0.0505,-0.0645,-0.0645,-0.1176,-0.1344,-0.0898,-0.1094,-0.1206,-0.1178,-0.1456,-0.1623,-0.1652,-0.179,-0.2012,-0.2345,-0.2456,-0.2901,-0.3732,-0.3873,-0.4291,-0.4991,-0.5407,-0.5906,1.2584,1.2438,1.2536,1.3208,1.2967,1.2827,0.0,0.0,1.3396,1.3821,1.3973,1.3973,1.3915,1.4069,1.414,1.3986,1.4069,1.4116,1.3962,1.3973,1.3868,1.3621,1.3491,1.342,1.342,1.2991,1.2716,1.2716,1.227,1.1974,1.1974,1.1934,1.161,1.1006,1.093,1.06,0.9999,0.9973,0.9973,0.9973,0.9973,0.9895,0.9766,0.9895,0.9895,0.9799,0.9921,0.9973,0.9991,1.0472,1.0676,1.0719,1.12,1.1107,1.0625,1.0146,0.9973,0.9973,0.9999,0.9999,0.9999,0.9921,0.9888,0.9888,0.981,0.9436,0.904,0.8992,0.8626,0.8277,0.8277,0.8251,0.8151,0.7771,0.767,0.7509,0.7079,0.6977,0.6837,0.6335,0.6222,0.6091,0.5605,0.5496,0.458,0.1871,0.1313,0.1146,0.109,0.0588,0.0252,0.0252,-0.0224,-0.0589,-0.0701,-0.087,-0.0898,-0.0785,-0.0925,-0.1065,-0.1178,-0.168,-0.1959,-0.1874,-0.2289,-0.2345,-0.2068,-0.2738,-0.3292,-0.3793,-0.4491,-0.5397,1.3518,1.3484,1.3637,1.3918,1.3718,1.3613,1.4176,1.4035,1.3871,1.4174,1.4221,1.4221,1.4221,1.428,1.428,0.0,1.4163,1.4163,1.402,1.3997,1.3973,1.3915,1.3797,1.3692,1.3621,1.3396,1.3266,1.3266,1.305,1.2929,1.2929,1.2893,1.2742,1.2464,1.2409,1.2078,1.1455,1.1374,1.1347,1.1347,1.1204,1.1339,1.1653,1.1706,1.1581,1.1239,1.1177,1.1091,1.095,1.1081,1.1208,1.1309,1.1591,1.1575,1.1309,1.077,1.0403,1.0187,1.0265,1.0283,1.0283,1.0283,1.0429,1.0574,1.0576,1.0593,1.0585,1.0553,1.0451,1.0332,1.0332,0.9974,0.9603,0.9429,0.8974,0.8494,0.817,0.809,0.7904,0.7283,0.7353,0.7213,0.6308,0.6389,0.5973,0.4302,0.3304,0.2639,0.228,0.1563,0.1064,0.0924,0.0727,0.0559,0.0476,0.0084,-0.0112,-0.0056,-0.0393,-0.0645,-0.0701,-0.0924,-0.1036,-0.098,-0.1287,-0.1567,-0.179,-0.2181,-0.2792,-0.3599,-0.3904,-0.4401,1.4246,1.4326,1.4396,1.4396,1.4326,1.428,1.4373,1.4326,1.428,1.4373,1.4396,1.4396,1.4396,1.4396,1.4373,1.4269,1.4246,1.421,1.4127,1.4114,1.4104,1.4057,1.3962,1.3858,1.3716,1.3644,1.3597,1.3597,1.3597,1.3648,1.3796,1.3761,1.3704,1.3684,1.3645,1.3349,1.2749,1.2639,1.2612,1.2584,1.2465,1.263,1.3068,1.3068,1.2877,1.2584,1.2438,1.2283,1.2086,1.2139,1.2227,1.2351,1.2579,1.2513,1.2236,1.1827,1.1294,1.0786,1.0871,1.0913,1.0913,1.0913,1.1082,1.1301,1.1443,1.1633,1.1789,1.1938,1.1987,1.1963,1.1963,1.1541,1.1065,1.0914,1.0389,0.9832,0.9481,0.9358,0.915,0.8593,0.8646,0.8482,0.7555,0.7614,0.7566,0.695,0.5815,0.472,0.3819,0.2998,0.2393,0.2088,0.1867,0.1729,0.1729,0.1146,0.0784,0.0784,0.042,0.0196,0.0196,0.0168,0.014,0.014,-0.0196,-0.0672,-0.1257,-0.1595,-0.2237,-0.3153,-0.3264,-0.3461,1.4396,1.4396,1.4396,1.4396,1.4396,1.4396,1.4396,1.4396,1.4396,1.4396,1.4396,1.4396,1.4396,1.4396,1.4396,1.4396,1.4396,1.4396,1.4384,1.4384,1.435,1.4199,1.4199,1.414,0.0,1.3739,1.3597,1.3597,1.3597,1.3807,1.4262,1.4279,1.4246,1.4188,1.4191,1.3924,1.3367,1.3367,1.3367,1.3367,1.3367,1.3286,1.3204,1.3204,1.3259,1.3367,1.3367,1.3358,1.3375,1.3905,1.4109,1.4162,1.471,1.4306,1.3447,1.3437,1.2808,1.1959,1.195,1.195,1.195,1.195,1.1959,1.2073,1.2594,1.2487,1.2282,1.2812,1.2691,1.2389,1.2389,1.2365,1.2209,1.169,1.1641,1.1582,1.1057,1.073,1.0527,1.0527,1.022,0.9935,0.9909,0.9684,0.951,0.9484,0.8725,0.7581,0.5928,0.5175,0.4583,0.3978,0.3267,0.2856,0.2856,0.2169,0.1757,0.1762,0.173,0.173,0.1734,0.1621,0.1538,0.1538,0.0756,0.028,0.014,-0.07,-0.1457,-0.2041,-0.2374,-0.276,1.4396,1.4396,1.4396,1.4396,1.4396,1.4396,1.4396,1.4396,1.4396,1.4396,1.4396,1.4396,1.4396,1.4396,1.4396,1.4396,1.4396,1.4396,1.4396,1.4396,1.4373,1.435,1.4246,0.0,0.0,0.0,0.0,1.3868,1.4142,1.4398,1.4556,1.5157,1.5489,1.5475,1.5694,1.5495,1.4857,1.4763,1.4744,1.4744,1.5178,1.5403,1.5439,1.5375,1.5122,1.4744,1.4744,1.4627,1.4476,1.4668,1.4834,1.5018,1.5107,1.4977,1.4764,1.4651,1.4261,1.3635,1.2518,1.2129,1.2153,1.2227,1.2506,1.2822,1.3016,1.3218,1.3433,1.361,1.3779,1.3935,1.3935,1.3666,1.3338,1.3161,1.2653,1.2159,1.1978,1.1855,1.1722,1.1449,1.13,1.1032,1.0493,1.033,1.0115,0.9666,0.8862,0.7821,0.6487,0.6153,0.5824,0.5261,0.496,0.4824,0.4824,0.4234,0.3847,0.385,0.3109,0.2668,0.267,0.223,0.2009,0.2009,0.1566,0.1314,0.1257,0.0755,0.0056,-0.081,-0.0922,-0.1423,1.4535,1.4523,1.4489,1.443,1.4396,1.4396,1.4396,1.4396,1.4396,1.4396,1.4396,1.4396,1.4396,1.4466,1.4489,1.4396,1.4466,1.4477,1.4396,1.4396,1.4396,1.4396,1.4326,1.4345,0.0,0.0,0.0,1.4254,1.452,1.4854,1.5169,1.5765,1.618,1.635,1.6564,1.6457,1.6026,1.5931,1.5902,1.5912,1.6335,1.6591,1.6666,1.6591,1.6306,1.5902,1.5902,1.5798,1.5637,1.5637,1.5749,1.5903,1.5812,1.5706,1.5648,1.5558,1.5416,1.5098,1.3791,1.3226,1.3144,1.3406,1.37,1.3956,1.3802,1.4154,1.4617,1.4432,1.4778,1.5186,1.5164,1.4915,1.463,1.4528,1.4043,1.3561,1.3345,1.3297,1.313,1.2609,1.2482,1.2276,1.1771,1.1582,1.1266,1.0499,0.992,0.9051,0.7694,0.7534,0.74,0.7063,0.6816,0.6681,0.6681,0.6013,0.5548,0.5517,0.47,0.4183,0.4124,0.3773,0.3555,0.3555,0.3141,0.2783,0.2508,0.2034,0.1338,0.0447,0.0363,-0.014,1.4777,1.4708,1.4651,1.4466,1.443,1.443,1.4419,1.443,1.4396,1.4396,1.4407,1.4396,0.0,0.0,1.4639,1.4454,1.4581,1.4651,1.4466,1.4443,1.4477,0.0,0.0,0.0,0.0,0.0,0.0,1.4903,0.0,1.5199,1.6106,1.6181,1.6405,1.6853,1.6874,1.6835,1.6807,1.6835,1.6864,1.6892,1.6892,1.6864,1.6874,1.6835,1.6846,1.6818,1.6818,1.6818,1.6807,1.6807,1.6835,1.6864,1.6874,1.6614,1.6245,1.6245,1.6293,1.6319,1.5781,1.5227,1.488,1.5334,1.5445,1.5344,1.4903,1.5265,1.5722,1.5287,1.5632,1.6114,1.6064,1.6032,1.5988,1.572,1.5732,1.5656,1.5085,1.4971,1.4743,1.4035,1.3776,1.3658,1.3634,1.3396,1.2919,1.1999,1.185,1.1217,0.9491,0.9256,0.9263,0.9237,0.8738,0.8383,0.8383,0.7507,0.6918,0.6773,0.6465,0.6226,0.6113,0.6032,0.6009,0.6032,0.5335,0.4618,0.3932,0.3212,0.2473,0.1705,0.1509,0.1063,1.4731,1.4708,1.4685,1.4639,1.4605,1.4674,1.488,1.4651,1.4443,1.4581,1.4489,1.4396,0.0,0.0,0.0,1.4639,1.4834,0.0,1.4926,1.5153,0.0,1.5904,0.0,1.6407,1.6979,1.7051,0.0,0.0,1.6521,1.6341,1.7017,1.7393,1.7641,1.7765,1.7678,1.7401,1.6955,1.729,1.771,1.8205,1.812,1.7913,1.7634,1.7512,1.7245,1.6818,1.6818,1.6864,1.6955,1.6955,1.7262,1.7749,1.765,1.7872,1.8242,1.8074,1.7906,1.7741,1.7933,1.7135,1.6102,1.6365,1.618,1.5822,1.5764,1.5862,1.6005,1.5874,1.6235,1.6612,1.6603,1.6603,1.6582,1.6505,1.6256,1.5983,1.583,1.5786,1.5742,1.5554,1.5039,1.448,1.3967,1.3681,1.3348,1.2905,1.2677,1.1996,1.044,1.0244,1.0141,0.984,0.9651,0.9566,0.9566,0.9325,0.9169,0.9136,0.8179,0.7602,0.757,0.6649,0.6204,0.6308,0.5919,0.5674,0.5597,0.5206,0.4354,0.3088,0.3033,0.2312,1.5085,1.504,1.5017,1.4903,1.4789,1.4754,1.488,1.4651,1.4419,1.4535,1.4477,1.4396,1.4396,1.4651,1.4846,0.0,0.0,0.0,1.5334,1.5479,1.5893,0.0,1.6834,0.0,1.8019,1.8093,1.8277,0.0,1.7866,1.7569,1.8061,1.8357,1.8483,1.8483,1.8414,1.8224,1.7886,1.8131,1.8456,1.8818,1.875,1.8602,1.8387,1.8306,1.8116,1.7831,0.0,1.7611,1.7929,1.7628,1.7929,1.859,1.8509,1.875,1.916,1.9056,1.9033,1.9107,1.9384,1.8865,1.8096,1.7877,1.7467,1.7023,1.6857,1.6802,1.6761,1.6544,1.6888,1.7269,1.722,1.7186,1.7186,1.711,1.6909,1.6663,1.645,1.6493,1.6514,1.6309,1.5949,1.5497,1.5016,1.4892,1.4675,1.4075,1.3854,1.3348,1.2239,1.1541,1.0981,1.0617,1.0609,1.0643,1.0592,1.0448,1.0346,1.0269,0.9422,0.8921,0.8921,0.8244,0.79,0.7974,0.7614,0.7294,0.702,0.6573,0.5783,0.4656,0.4333,0.3558,1.5558,1.5491,1.5446,1.5221,1.4971,1.4823,1.4823,1.4605,1.4443,1.4443,1.443,1.4396,1.4396,1.4743,1.4971,1.48,0.0,1.5558,1.568,1.5746,1.6151,1.7154,1.732,1.7768,1.8846,1.8958,1.9133,1.9568,1.9094,1.8893,1.9135,1.916,1.916,1.916,1.9093,1.9093,1.916,1.9146,1.9172,1.9277,1.9251,1.9225,1.916,1.916,1.9186,1.9174,0.0,0.0,1.9174,1.8525,1.8685,1.9331,1.9331,1.9462,1.9605,1.9605,1.9914,2.0321,2.0321,2.0357,2.0298,1.9535,1.8937,1.848,1.8074,1.7911,1.7766,1.7395,1.761,1.7969,1.7889,1.7828,1.7788,1.7679,1.7598,1.7434,1.7026,1.7123,1.7165,1.6706,1.6621,1.6536,1.6244,1.6355,1.6204,1.5319,1.5163,1.4914,1.4283,1.2982,1.1974,1.1685,1.1694,1.1694,1.1569,1.1242,1.0973,1.0821,1.0415,1.0167,1.0167,1.0064,1.0038,1.009,0.9562,0.8981,0.8337,0.772,0.6977,0.6167,0.5546,0.4886,1.5513,1.5491,1.5491,1.5446,1.5401,1.5356,1.5356,1.4994,0.0,1.4651,1.4512,1.4396,1.4396,1.4605,1.4834,1.4994,1.5289,1.5657,1.6117,1.6466,1.7204,0.0,1.8922,1.9512,2.0642,2.0762,0.0,0.0,0.0,2.0492,2.0029,1.9978,1.9978,1.9978,1.9553,1.9553,1.9978,1.9888,2.0105,2.0661,2.0587,2.0372,1.9978,1.9978,1.976,1.9345,1.924,0.0,1.9345,1.924,1.9515,2.0042,2.0042,2.0295,2.0736,2.0736,2.0772,2.0847,2.0847,2.1221,2.1521,2.0502,1.9771,1.932,1.9346,1.8995,1.8636,1.8706,1.8622,1.85,1.866,1.8577,1.8436,1.8403,1.8115,1.7808,1.7727,1.7747,1.7666,1.731,1.7235,1.7144,1.682,1.6625,1.6429,1.6265,1.6058,1.574,1.5285,1.4284,1.3589,1.3542,1.316,1.2905,1.2871,1.2452,1.2141,1.2017,1.1384,1.099,1.099,1.0338,1.0167,1.0491,1.009,0.9729,0.9496,0.9157,0.8343,0.7069,0.7063,0.6492,1.5691,1.5659,1.5659,1.5659,1.558,1.5468,1.5334,1.4971,0.0,1.4569,1.4535,1.4512,1.443,1.4674,1.4949,1.5085,1.5457,1.5966,1.6531,1.6926,1.7715,1.9222,1.9539,2.0043,0.0,2.1302,2.1277,0.0,0.0,2.1093,2.0635,2.061,2.061,2.061,2.0359,2.0359,2.061,2.0535,2.0673,2.0997,2.0961,2.0823,2.061,2.061,2.051,2.0321,1.9953,0.0,2.0321,2.0232,2.0557,2.1151,2.1403,2.1633,2.1779,2.1779,2.1612,2.1434,2.1708,2.1945,2.21,2.1828,2.1232,2.0565,2.0369,2.0001,1.9697,1.9957,1.9675,1.9348,1.9609,1.9309,1.8968,1.8968,1.8616,1.8254,1.8214,1.8049,1.7882,1.7828,1.7828,1.7794,1.7733,1.7639,1.7449,1.718,1.7021,1.6756,1.6299,1.5896,1.5376,1.4596,1.4227,1.3995,1.3878,1.3616,1.3256,1.2793,1.2448,1.212,1.1891,1.1501,1.1392,1.1568,1.1091,1.0779,1.0636,1.0218,0.9644,0.8908,0.8297,0.7715,1.611,1.6035,1.6035,1.6035,1.5913,1.5702,1.5379,1.5085,1.4834,1.4605,1.4628,1.4685,1.4558,1.4857,1.5108,0.0,1.5635,1.6219,1.6812,1.7199,1.7916,0.0,1.9619,0.0,2.1101,2.1318,0.0,0.0,0.0,0.0,2.1106,2.1082,2.1082,2.1082,2.1082,2.1082,2.1082,2.1057,2.1057,2.1082,2.1057,2.1057,2.1082,2.1204,2.1302,2.1385,2.087,0.0,0.0,2.1293,2.1605,2.2249,2.2626,2.2717,2.2649,2.2649,2.242,2.2156,2.2535,2.2657,2.2703,2.2972,2.2534,2.1858,2.1493,2.1114,2.0876,2.1191,2.0848,2.045,2.0761,2.0258,1.9616,1.9358,1.9024,1.8736,1.8679,1.8378,1.8175,1.8378,1.8392,1.8411,1.8625,1.8664,1.8514,1.8028,1.8014,1.7854,1.7303,1.7434,1.7113,1.5889,1.5416,1.5105,1.4869,1.4653,1.4227,1.3508,1.3437,1.3242,1.2754,1.2691,1.2618,1.2578,1.2067,1.1701,1.155,1.1099,1.0745,1.0466,0.9492,0.8999,1.6812,1.6791,1.6791,1.6791,1.6791,1.662,1.6054,1.5702,1.5434,1.5108,1.4857,1.4777,1.4994,1.5062,1.5176,1.5424,0.0,1.6219,1.6812,1.7199,1.7769,1.8764,0.0,0.0,2.0532,2.1087,0.0,0.0,0.0,0.0,2.135,2.135,2.135,2.135,2.135,2.135,2.135,2.1229,2.1229,2.135,2.1229,2.1253,2.1375,2.1864,2.2114,2.21,2.2053,0.0,0.0,2.2249,2.242,2.2913,2.2972,2.3039,2.315,2.315,2.3106,2.3084,2.3128,2.3413,2.3687,2.3304,2.3106,2.304,2.2996,2.2591,2.2167,2.2369,2.2219,2.2045,2.2247,2.1618,2.0658,1.9568,1.9273,1.9236,1.9218,1.901,1.8893,1.9159,1.8991,1.893,1.9177,1.9233,1.9122,1.8836,1.901,1.8968,1.8425,1.8577,1.8588,1.822,1.7184,1.6371,1.5981,1.5496,1.4959,1.4434,1.4261,1.3982,1.3532,1.3256,1.3035,1.2881,1.2578,1.2298,1.2051,1.1868,1.1426,1.0762,1.0762,1.0585,1.6939,1.6897,1.6897,1.6897,1.6897,1.6748,1.6141,1.5923,1.5702,1.5198,1.5131,1.5153,1.5108,1.5221,1.5379,1.5491,0.0,0.0,1.6833,1.7357,1.7963,1.8717,1.9342,0.0,0.0,0.0,0.0,0.0,0.0,0.0,2.1864,2.1864,2.1864,2.1864,2.1864,2.1864,2.1864,2.152,2.152,2.1864,2.1874,2.2221,2.2918,2.3215,2.3524,2.3822,2.3822,0.0,0.0,2.4334,2.4542,2.4837,2.5121,2.518,2.5129,2.5129,2.4957,2.4702,2.4793,2.4894,2.4963,2.4906,2.4941,2.4808,2.3764,2.3379,2.3396,2.3646,2.3354,2.2987,2.3267,2.2473,2.1426,2.0883,2.0251,1.9755,1.9687,1.9398,1.9214,1.9482,1.946,1.946,1.9678,1.9729,1.9642,1.9424,1.9464,1.9336,1.8808,1.8945,1.8978,1.8702,1.802,1.7504,1.7258,1.668,1.6068,1.5509,1.5152,1.4755,1.4272,1.4167,1.4061,1.3978,1.3873,1.3768,1.365,1.3616,1.3283,1.2711,1.2288,1.1821,1.7253,1.7191,1.7191,1.7191,1.7191,1.7044,1.6414,1.6185,1.601,1.5546,1.5546,1.5635,1.5635,1.5802,1.5901,0.0,0.0,1.6824,1.701,1.7543,1.8065,1.8473,0.0,1.9894,0.0,0.0,0.0,0.0,0.0,0.0,0.0,2.264,2.2618,2.2402,2.2434,2.2434,2.2402,2.2063,2.2049,2.2434,2.2729,2.3253,2.4005,2.4456,2.4866,2.5224,0.0,0.0,0.0,2.5993,2.6293,2.6682,2.7015,2.7074,2.6988,2.6988,2.6779,2.6511,2.6621,2.6463,2.6246,2.6383,2.6341,2.6035,2.48,2.4552,2.4764,2.4997,2.4632,2.4185,2.4183,2.3488,2.2673,2.2224,2.146,2.0715,2.0412,1.9969,1.9687,1.9962,1.996,1.9993,2.02,2.0235,2.015,1.9942,1.9977,1.9821,1.9281,1.935,1.9332,1.9049,1.8683,1.8372,1.8181,1.7713,1.7209,1.6651,1.6265,1.5808,1.5208,1.5141,1.4994,1.4709,1.4698,1.4698,1.4698,1.4698,1.4525,1.4201,1.3619,1.2966,1.7882,1.7882,1.7882,1.7882,1.7882,1.772,1.7044,1.6693,1.6466,1.6324,1.6129,1.6175,1.6769,1.6876,1.6876,1.6876,1.7178,0.0,1.7393,1.7686,1.7902,0.0,0.0,1.9886,2.0358,0.0,0.0,0.0,0.0,0.0,0.0,2.3629,2.358,2.2912,2.295,2.2972,2.2889,2.295,2.298,2.3002,2.3813,2.4199,2.4228,2.5455,2.5978,0.0,0.0,0.0,0.0,2.6867,2.7293,2.8183,2.8183,2.8257,2.8386,2.8386,2.8386,2.8367,2.837,2.7942,2.7379,2.7381,2.6934,2.6385,2.6385,2.6368,2.6368,2.6385,2.6176,2.5814,2.5088,2.4874,2.4579,2.3375,2.2776,2.2263,2.1532,2.0861,2.0478,2.0745,2.0562,2.0478,2.0745,2.0794,2.0696,2.0427,2.0628,2.0595,2.0058,1.9988,1.9866,1.953,1.9254,1.8917,1.8519,1.8481,1.8285,1.7808,1.772,1.725,1.6327,1.6167,1.5642,1.4732,1.4698,1.4698,1.4698,1.4698,1.4698,1.4686,1.4675,1.4075,1.7902,1.7902,1.7902,1.7902,1.7902,1.7767,1.7344,1.7178,1.7039,1.6778,1.665,1.6684,1.6854,1.6897,1.6897,1.6897,1.7178,0.0,0.0,0.0,0.0,1.8103,1.9488,2.0948,0.0,0.0,0.0,0.0,0.0,0.0,0.0,2.3915,2.3894,2.3601,2.3586,2.3586,2.358,2.3282,2.3304,2.3608,2.4428,2.5202,2.5935,2.6884,0.0,0.0,0.0,0.0,0.0,2.875,2.9102,2.9785,2.9809,2.9865,2.9906,2.9969,3.0008,3.0015,2.9783,2.9573,2.9254,2.8545,2.8179,2.7934,2.74,2.684,2.6402,2.6402,2.635,2.6214,2.598,2.5564,2.5063,2.4628,2.3681,2.2758,2.2498,2.1852,2.1385,2.1463,2.1401,2.1324,2.1167,2.1135,2.1039,2.0712,2.0745,2.0678,2.0323,2.0342,2.0292,2.0,2.0035,1.9752,1.8974,1.8669,1.8461,1.8344,1.8068,1.7794,1.7538,1.7497,1.7203,1.6608,1.6886,1.6899,1.6621,1.6828,1.6562,1.5784,1.5431,1.4846,1.7902,1.7902,1.7902,1.7902,1.7902,1.7808,1.7488,1.7393,1.7344,1.7136,1.7094,1.7128,1.7253,1.7274,1.7274,1.7274,1.7461,1.7652,0.0,0.0,0.0,1.9282,0.0,0.0,0.0,0.0,0.0,0.0,0.0,0.0,0.0,2.439,2.441,2.4313,2.4271,2.4224,2.4168,2.3921,2.4079,2.4635,2.5456,2.6349,2.7265,2.8016,0.0,0.0,0.0,0.0,0.0,3.023,3.0547,3.1027,3.1125,3.1164,3.1164,3.1225,3.1244,3.1268,3.105,3.0815,3.0438,2.9463,2.879,2.829,2.7785,2.7289,2.6872,2.6791,2.6791,2.6791,2.6791,2.6434,2.6042,2.5784,2.4705,2.3619,2.3289,2.2503,2.1869,2.184,2.1855,2.1811,2.1555,2.154,2.1494,2.1276,2.1166,2.1087,2.1023,2.0894,2.0748,2.06,2.06,2.0348,1.9681,1.9247,1.9001,1.8898,1.8669,1.8481,1.8375,1.8355,1.8159,1.7733,1.7967,1.7967,1.7733,1.7935,1.7666,1.6949,1.6375,1.5922,0.0,1.7902,1.7902,1.7902,1.7902,1.7821,1.7509,1.7447,0.0,1.7447,1.7447,1.7529,1.7842,1.7902,1.7922,1.7902,1.7942,1.8129,0.0,1.8678,0.0,0.0,2.1803,0.0,0.0,0.0,0.0,0.0,0.0,0.0,0.0,2.5084,2.5064,2.5045,2.4946,2.4826,2.467,2.4786,2.5181,2.5836,2.6746,2.7502,2.8142,2.8881,0.0,0.0,0.0,0.0,0.0,3.1257,3.1562,3.193,3.2055,3.2108,3.2108,3.2108,3.2108,3.2108,3.2108,3.1708,3.106,3.0185,2.8954,2.7786,2.7763,2.773,2.7657,2.7463,2.7434,2.7434,2.7434,2.7434,2.7322,2.683,2.5857,2.4833,2.4008,2.2957,2.2149,2.2013,2.2041,2.2041,2.1984,2.2013,2.201,2.1996,2.1792,2.1733,2.1969,2.158,2.1273,2.1273,2.1054,2.083,2.0599,2.0177,1.9808,1.949,1.9487,1.9325,1.8959,1.894,1.8717,1.8224,1.8224,1.821,1.823,1.821,1.8185,1.8145,1.7511,1.7199,1.7902,0.0,1.7902,1.7902,1.7902,1.7882,0.0,1.7788,1.7788,0.0,0.0,1.7808,1.7882,1.8023,1.8083,1.7922,1.8338,1.864,1.8611,0.0,0.0,2.2045,2.2771,0.0,0.0,0.0,0.0,0.0,0.0,0.0,0.0,2.5852,2.5705,2.5387,2.5649,2.5631,2.5294,2.5329,2.5562,2.6059,2.7371,2.8092,2.8289,2.9571,0.0,0.0,0.0,0.0,3.1321,3.1359,3.1638,3.2055,3.2144,3.2179,3.2179,3.2284,3.2336,3.2336,3.2336,3.2214,3.188,3.0623,2.9559,2.8668,2.8227,2.7904,2.7701,2.7642,2.7733,2.7824,2.7674,2.7748,2.7829,2.7703,2.7051,2.6202,2.535,2.4492,2.3739,2.308,2.2816,2.266,2.2608,2.2436,2.2234,2.2025,2.1955,2.1924,2.1982,2.1979,2.1962,2.1962,2.2053,2.1895,2.1384,2.0732,2.0345,2.0326,2.0326,2.0326,2.0326,2.0326,2.0,1.927,1.9251,1.9361,1.9627,1.9277,1.8939,1.8635,1.8472,1.8179,1.7902,1.7902,1.7902,1.7902,1.7902,1.7902,1.7902,1.7963,0.0,0.0,0.0,1.8183,1.8183,1.8372,1.8495,1.8378,1.8774,0.0,0.0,0.0,2.1716,2.2983,0.0,0.0,0.0,0.0,0.0,0.0,0.0,0.0,0.0,2.6104,2.6016,2.5835,2.6034,2.5944,2.5503,2.5709,2.6109,2.6655,2.78,2.8533,2.8938,3.0028,3.0707,0.0,0.0,0.0,3.1712,3.1749,3.1912,3.2144,3.2249,3.2284,3.2301,3.2371,3.2473,3.2589,3.2621,3.2456,3.2007,3.0785,2.9861,2.9108,2.841,2.8059,2.7933,2.7933,2.8007,2.8081,2.7965,2.8059,2.8179,2.8179,2.7663,2.7027,2.6528,2.553,2.458,2.4121,2.3631,2.3254,2.3105,2.2982,2.2832,2.263,2.246,2.2446,2.2656,2.255,2.25,2.2567,2.2615,2.2467,2.2041,2.1536,2.1086,2.0697,2.0696,2.0712,2.0794,2.0794,2.0596,2.0156,2.0246,2.0331,2.041,2.0176,1.9934,1.9717,1.9648,1.9467,1.7969,1.8003,1.8003,1.7922,1.7922,1.7963,1.8003,0.0,0.0,0.0,0.0,1.8625,1.8664,1.8865,0.0,0.0,0.0,0.0,2.1044,2.1704,2.2501,2.3746,0.0,0.0,0.0,0.0,0.0,0.0,0.0,0.0,0.0,2.6298,2.6298,2.6298,2.6368,2.6177,2.5728,2.6106,2.6652,2.734,2.8196,2.8973,2.965,3.0465,3.1069,0.0,0.0,0.0,3.2144,3.2214,3.2214,3.2249,3.2405,3.2456,3.2456,3.2524,3.2687,3.2905,3.2965,3.2655,3.2054,3.0966,3.0195,2.9496,2.8618,2.8317,2.8309,2.8331,2.8295,2.8228,2.8242,2.8339,2.8464,2.8495,2.8106,2.7686,2.7518,2.6416,2.5361,2.5041,2.4461,2.3919,2.3594,2.3553,2.352,2.3412,2.3145,2.3096,2.3487,2.3187,2.2977,2.3082,2.2957,2.2803,2.2592,2.2354,2.188,2.1119,2.099,2.0958,2.1007,2.0942,2.0958,2.1055,2.115,2.1102,2.0958,2.0942,2.0893,2.0844,2.073,2.0664,1.8333,1.8456,1.8397,1.8003,1.8023,1.8208,1.8436,0.0,0.0,0.0,0.0,0.0,0.0,1.9518,1.957,0.0,0.0,2.0415,0.0,0.0,0.0,0.0,0.0,0.0,0.0,0.0,0.0,0.0,0.0,0.0,0.0,2.7169,2.7038,2.6724,2.7101,2.71,2.669,2.6757,2.7022,2.7499,2.8917,2.9643,2.9816,3.1235,3.1948,0.0,0.0,3.2179,3.2354,3.2371,3.2371,3.2388,3.2636,3.2732,3.2781,3.3124,3.3273,3.3332,3.3368,3.3338,3.3035,3.1634,3.1026,3.0589,2.933,2.8885,2.8827,2.8936,2.8682,2.838,2.8373,2.852,2.8713,2.8936,2.8872,2.8603,2.7963,2.7624,2.7025,2.5605,2.5147,2.4805,2.4263,2.3981,2.3832,2.3821,2.3762,2.3727,2.366,2.3606,2.3524,2.343,2.3301,2.3144,2.2944,2.2773,2.2561,2.226,2.1869,2.172,2.1878,2.1643,2.1718,2.2231,2.1763,2.1595,2.1742,2.155,2.1337,2.1039,2.1023,2.0959,1.8769,1.8903,1.8869,1.8698,1.8736,1.8831,1.8949,0.0,0.0,0.0,0.0,0.0,0.0,0.0,2.026,2.0483,0.0,2.1652,0.0,0.0,0.0,0.0,0.0,0.0,0.0,0.0,0.0,0.0,0.0,0.0,0.0,0.0,2.7388,2.7246,2.7432,2.7476,2.7317,2.7317,2.7413,2.7574,2.8725,2.9586,3.0209,3.1291,3.2147,3.2782,0.0,3.2653,3.2864,3.2687,3.2752,3.2941,3.3078,3.3151,3.3207,3.3588,3.3757,3.3778,3.3858,3.3897,3.3664,3.2004,3.1434,3.1091,2.9569,2.9049,2.9023,2.9082,2.8948,2.8773,2.8778,2.8925,2.9108,2.9198,2.9262,2.9211,2.8858,2.843,2.7891,2.712,2.619,2.5393,2.5014,2.4487,2.4079,2.403,2.3953,2.3933,2.4009,2.3829,2.371,2.3696,2.3533,2.3336,2.318,2.3008,2.279,2.2515,2.2304,2.2217,2.2298,2.2268,2.2326,2.2501,2.234,2.2254,2.2209,2.2244,2.2169,2.2009,2.2009,2.1981,1.9225,1.9372,1.9446,1.9579,1.9507,0.0,0.0,0.0,0.0,0.0,0.0,0.0,0.0,2.063,0.0,2.1198,2.1908,0.0,0.0,0.0,0.0,0.0,0.0,0.0,0.0,0.0,0.0,0.0,0.0,0.0,0.0,0.0,2.7542,2.7602,2.7632,2.7644,2.7701,2.7701,2.7701,2.7733,2.8526,2.9422,3.0342,3.1231,3.214,3.302,3.2942,3.3078,3.3302,3.3063,3.3136,3.3433,3.3518,3.3611,3.376,3.4018,3.4161,3.4221,3.4281,3.4204,3.3836,3.2235,3.1573,3.1094,2.9657,2.9201,2.918,2.9241,2.9233,2.9222,2.918,2.9272,2.9402,2.9394,2.9511,2.9588,2.954,2.9026,2.8549,2.8362,2.7297,2.6234,2.5708,2.5115,2.4579,2.4303,2.4146,2.4146,2.4311,2.4087,2.3911,2.3988,2.3771,2.356,2.3365,2.3218,2.2998,2.2659,2.2588,2.2588,2.2642,2.2846,2.2884,2.2734,2.282,2.2838,2.2721,2.2832,2.291,2.2972,2.2972,2.3079,1.9645,1.9892,2.0133,2.0494,2.0133,0.0,2.0143,2.0381,0.0,2.1103,0.0,0.0,0.0,2.123,2.1214,2.1135,2.1843,0.0,0.0,0.0,0.0,0.0,0.0,0.0,0.0,0.0,0.0,0.0,0.0,0.0,0.0,0.0,0.0,2.7602,2.7674,2.7701,2.7701,2.7701,2.7811,2.8061,2.8884,2.9432,2.9814,3.1353,3.209,3.2227,3.2951,3.3302,3.339,3.3375,3.34,3.3514,3.3837,3.4161,3.442,3.4461,3.4506,3.4561,3.4561,3.4092,3.3323,3.2374,3.1429,3.0532,2.9851,2.9531,2.9423,2.9598,2.9655,2.9598,2.9433,2.9392,2.9443,2.9636,2.9626,2.9598,2.9598,2.956,2.9298,2.854,2.8305,2.7731,2.6212,2.5911,2.5611,2.4781,2.4642,2.4602,2.4503,2.4469,2.44,2.4284,2.4144,2.3901,2.3522,2.3522,2.3405,2.3077,2.287,2.286,2.3045,2.3311,2.345,2.3435,2.32,2.3189,2.3435,2.32,2.32,2.3448,2.3448,2.3916,2.0222,2.0478,2.0614,2.0728,2.0662,0.0,0.0,2.086,2.0974,2.1246,2.1402,0.0,0.0,0.0,2.2139,2.2408,0.0,0.0,0.0,0.0,0.0,0.0,0.0,0.0,0.0,0.0,0.0,0.0,0.0,0.0,0.0,0.0,0.0,2.7657,2.7686,2.7786,2.7954,2.7954,2.8183,2.867,2.86,2.9076,3.0027,3.0673,3.1341,3.1986,3.2124,3.2316,3.2508,3.2303,3.2674,3.3437,3.41,3.445,3.4561,3.4561,3.4591,3.4612,3.4612,3.4076,3.3269,3.2475,3.157,3.0666,2.9963,2.9673,2.9589,2.9692,2.9701,2.9673,2.9617,2.9598,2.9617,2.9673,2.9692,2.9655,2.9655,2.9655,2.9561,2.9261,2.8763,2.8209,2.759,2.6668,2.5888,2.556,2.5045,2.4684,2.4626,2.4553,2.4478,2.4426,2.4229,2.403,2.3901,2.3821,2.372,2.361,2.35,2.3398,2.3347,2.3573,2.37,2.3696,2.3595,2.3595,2.3696,2.3798,2.3901,2.4015,2.4644,2.5125,2.0778,2.0974,2.1071,2.115,0.0,0.0,2.1417,2.1355,2.134,2.1617,2.169,0.0,0.0,0.0,0.0,0.0,0.0,0.0,0.0,0.0,0.0,0.0,0.0,0.0,0.0,0.0,0.0,0.0,0.0,0.0,0.0,0.0,0.0,0.0,2.7786,2.7911,2.8102,2.8192,2.8509,2.8996,2.8591,2.8961,2.9964,3.0268,3.0824,3.1544,3.1626,3.1805,3.2006,3.1775,3.2177,3.2981,3.3577,3.3813,3.3824,3.3855,3.3865,3.3884,3.3896,3.3379,3.2617,3.2128,3.1327,3.0489,2.9976,2.9808,2.9765,2.9738,2.9729,2.9729,2.9711,2.9701,2.9701,2.9701,2.9701,2.9701,2.9701,2.9701,2.9701,2.9701,2.9213,2.8716,2.8444,2.7486,2.6593,2.6075,2.5485,2.5008,2.4745,2.461,2.4561,2.4561,2.4398,2.4247,2.4174,2.4137,2.4081,2.3967,2.4061,2.4022,2.379,2.4042,2.4118,2.3954,2.4014,2.4014,2.3973,2.4244,2.4561,2.4917,2.5635,2.6266,2.1308,2.1339,2.1509,2.1911,0.0,0.0,2.2079,2.1893,2.1777,2.2388,2.2189,2.1969,2.2181,0.0,0.0,0.0,0.0,0.0,0.0,0.0,0.0,0.0,0.0,0.0,0.0,0.0,0.0,0.0,0.0,0.0,0.0,0.0,0.0,0.0,2.795,2.8098,2.8116,2.8428,2.8742,2.9016,2.9064,2.9217,2.9425,3.0304,3.0698,3.0735,3.159,3.2027,3.2079,3.2079,3.2091,3.2086,3.2105,3.2105,3.2125,3.226,3.2289,3.2307,3.2391,3.1877,3.1193,3.1212,3.0617,2.9897,2.9897,2.9897,2.9899,2.9815,2.9808,2.979,2.971,2.9692,2.9692,2.9711,2.9701,2.9701,2.9701,2.9701,2.9701,2.9701,2.9711,2.942,2.8566,2.8416,2.7853,2.6255,2.6019,2.5692,2.482,2.4707,2.4707,2.4707,2.4697,2.459,2.4326,2.4495,2.4465,2.4127,2.4548,2.4697,2.441,2.4795,2.4776,2.4314,2.45,2.4507,2.4305,2.4526,2.5151,2.6195,2.6297,2.7283,2.0942,2.1245,2.1554,2.1569,0.0,0.0,0.0,2.2203,0.0,0.0,2.2615,2.2699,2.3278,0.0,0.0,0.0,0.0,0.0,0.0,0.0,0.0,0.0,0.0,0.0,0.0,0.0,0.0,0.0,0.0,0.0,0.0,0.0,0.0,0.0,2.8281,2.844,2.8724,2.8883,2.9093,2.9353,2.9373,2.9404,2.9471,2.9791,2.9923,2.9952,3.0254,3.0395,3.0452,3.1024,3.1289,3.1384,3.2005,3.2307,3.2384,3.2429,3.2496,3.258,3.2496,3.1973,3.1328,3.129,3.0703,3.0045,3.0104,3.0082,3.0042,3.0019,3.0041,3.003,2.9823,2.9916,2.9992,2.9765,2.9701,2.9701,2.9701,2.9701,2.9701,2.9701,2.9773,2.9722,2.9382,2.8914,2.8409,2.7785,2.6725,2.572,2.4939,2.484,2.4881,2.4962,2.4987,2.4949,2.4865,2.4923,2.4911,2.4807,2.5595,2.5602,2.4584,2.4845,2.4936,2.4809,2.4845,2.4845,2.479,2.5569,2.6105,2.6444,2.7823,2.8764,2.143,2.1715,2.1977,2.2068,2.2206,2.2412,2.2742,0.0,0.0,0.0,0.0,2.3532,2.4112,0.0,0.0,0.0,0.0,0.0,0.0,0.0,0.0,0.0,0.0,0.0,0.0,0.0,0.0,0.0,0.0,0.0,0.0,0.0,0.0,0.0,2.8496,2.87,2.9049,2.922,2.9373,2.954,2.9569,2.9579,2.9579,2.9598,2.9598,2.9598,2.9664,2.9701,2.9748,3.0246,3.0498,3.0622,3.1206,3.1494,3.1584,3.162,3.167,3.1744,3.1684,3.1373,3.1002,3.0956,3.0598,3.0228,3.0279,3.026,3.0215,3.0189,3.0209,3.019,3.0019,3.0085,3.0121,2.9773,2.9747,2.9755,2.9701,2.9747,2.9773,2.9773,2.988,2.995,2.9872,2.9527,2.911,2.866,2.7214,2.5868,2.5076,2.4968,2.5,2.5084,2.5149,2.516,2.5096,2.5149,2.5335,2.5666,2.6254,2.6406,2.5969,2.6104,2.6142,2.6065,2.6181,2.6189,2.6115,2.6797,2.7303,2.7683,2.8854,2.9591,2.2354,2.2476,2.2582,2.2973,2.2824,0.0,2.3211,2.3229,2.3198,2.3389,0.0,2.438,2.4843,0.0,0.0,0.0,0.0,0.0,0.0,0.0,0.0,0.0,0.0,0.0,0.0,0.0,0.0,0.0,0.0,0.0,0.0,0.0,0.0,2.8466,2.8712,2.8952,2.9148,2.9453,2.9607,0.0,2.9664,2.9711,2.971,2.9655,2.9626,2.9645,2.971,2.9729,2.9738,2.9799,2.9872,2.9943,3.0063,3.0162,3.0234,3.03,3.0329,3.034,3.0402,3.0423,3.0423,3.0407,3.0407,3.0418,3.0418,3.0418,3.0407,3.0334,3.0329,3.0317,3.0228,3.0235,3.017,2.9823,2.9832,2.988,2.9755,2.9832,2.9921,2.9921,3.0041,3.0103,3.0089,3.0103,2.9843,2.9027,2.7536,2.6197,2.5356,2.5164,2.5113,2.5143,2.5248,2.5264,2.5149,2.5325,2.577,2.6549,2.6766,2.7234,2.81,2.8053,2.7918,2.7742,2.7969,2.8004,2.7836,2.8093,2.8626,2.9394,2.9489,2.9941,2.194,2.2261,0.0,2.2738,2.3037,2.3319,2.343,2.343,2.3596,2.426,2.4498,2.4984,0.0,0.0,0.0,0.0,0.0,0.0,0.0,0.0,0.0,0.0,0.0,0.0,0.0,0.0,0.0,0.0,0.0,0.0,0.0,0.0,0.0,2.9104,2.922,2.9343,2.9501,2.9617,2.9683,0.0,2.9683,2.9765,2.9857,2.9849,2.9886,2.9992,2.9958,2.9934,2.9942,3.0,3.0075,3.0129,3.0228,3.0353,3.0525,3.0535,3.0576,3.0618,3.0572,3.0593,3.0618,3.0448,3.0467,3.0558,3.0558,3.0558,3.0554,3.0544,3.0561,3.057,3.0334,3.0437,3.0501,3.0177,3.0102,3.0114,3.0022,3.0037,3.0059,3.0059,3.0164,3.0228,3.0129,3.0184,2.994,2.9047,2.802,2.707,2.6378,2.5686,2.5308,2.5406,2.5432,2.5455,2.5415,2.603,2.6483,2.6676,2.796,2.884,2.91,2.84,2.7992,2.8016,2.8071,2.8076,2.8049,2.8777,2.9218,2.9413,3.0101,3.0522,2.2419,2.2695,0.0,2.3049,0.0,2.3517,2.3567,2.3607,2.3934,2.517,2.5386,2.5739,0.0,0.0,0.0,0.0,0.0,0.0,0.0,0.0,0.0,0.0,0.0,0.0,0.0,0.0,0.0,0.0,0.0,0.0,0.0,2.9064,2.9169,2.9343,2.9373,2.9491,2.9655,2.9673,2.9729,2.9756,2.978,2.9926,3.0143,3.0078,3.0085,3.0131,3.0078,3.0071,3.0102,3.0128,3.0215,3.0306,3.0397,3.0525,3.0645,3.0645,3.0668,3.071,3.0657,3.0668,3.0683,3.0578,3.0597,3.0645,3.0645,3.0645,3.0645,3.0645,3.0668,3.0676,3.0528,3.0602,3.0669,3.0487,3.0381,3.026,3.0176,3.0177,3.0196,3.0196,3.0319,3.0419,3.0358,3.0398,3.0136,2.9234,2.8698,2.7983,2.6809,2.625,2.5844,2.5522,2.5507,2.5507,2.5507,2.6242,2.6896,2.7349,2.8613,2.9546,3.0005,2.9519,2.9283,2.9347,2.9336,2.9334,2.9353,2.98,3.0017,3.0039,3.0416,3.06,2.301,2.3241,2.336,2.3487,2.3533,0.0,2.3682,2.3732,2.4151,2.5674,2.6062,0.0,0.0,0.0,0.0,0.0,0.0,0.0,0.0,0.0,0.0,0.0,0.0,0.0,0.0,0.0,0.0,0.0,0.0,0.0,2.9201,2.9201,2.9283,2.9443,2.9453,2.9531,2.9701,2.9701,2.9746,2.9823,2.9927,3.0138,3.0407,3.0327,3.0285,3.0272,3.0196,3.0202,3.024,3.0266,3.0337,3.0448,3.058,3.0649,3.0694,3.0694,3.0694,3.0694,3.0694,3.0694,3.0694,3.0694,3.0694,3.0694,3.0694,3.0694,3.0694,3.0694,3.0694,3.0694,3.0694,3.0694,3.071,3.0711,3.0577,3.0414,3.0291,3.0308,3.0359,3.0359,3.0486,3.0602,3.0601,3.0607,3.036,2.9659,2.9406,2.8788,2.735,2.6888,2.6435,2.5778,2.57,2.57,2.57,2.6606,2.7501,2.8285,2.9136,2.9953,3.0671,3.064,3.0645,3.0692,3.0682,3.0682,3.0678,3.0675,3.0672,3.0678,3.0576,3.0505,2.2833,0.0,2.3517,0.0,2.3725,2.3753,0.0,0.0,2.4056,0.0,0.0,0.0,0.0,0.0,0.0,0.0,0.0,0.0,0.0,0.0,0.0,0.0,0.0,0.0,0.0,0.0,0.0,0.0,0.0,0.0,2.9626,2.9626,2.9636,2.9655,2.9655,2.9664,2.9701,2.9765,2.9813,2.9888,3.0184,3.0367,3.0409,3.0552,3.0608,3.0548,3.0477,3.0457,3.0448,3.0511,3.0554,3.0576,3.0661,3.0687,3.0694,3.0694,3.0694,3.0694,3.0694,3.0694,3.0694,3.0694,3.0694,3.0694,3.0694,3.0694,3.0694,3.0694,3.0694,3.0694,3.0694,3.0694,3.0694,3.071,3.068,3.0645,3.0552,3.0539,3.0558,3.0558,3.0588,3.0606,3.0607,3.0593,3.0578,3.0517,2.9811,2.924,2.9064,2.7668,2.6663,2.6551,2.6551,2.6551,2.6551,2.8082,2.9097,2.9221,3.0033,3.0581,3.0701,3.0683,3.0681,3.0705,3.0643,3.0604,3.0616,3.062,3.0614,3.0619,3.0592,3.053,2.3139,2.3418,2.3634,0.0,2.3782,2.3806,2.3806,2.3806,2.4062,2.4982,0.0,0.0,0.0,0.0,0.0,0.0,0.0,0.0,0.0,0.0,0.0,0.0,0.0,0.0,0.0,0.0,0.0,0.0,0.0,2.9701,2.9701,2.9701,2.9701,2.9701,2.9701,2.971,2.9765,2.9822,2.9973,3.0177,3.0407,3.0519,3.0571,3.0665,3.0672,3.0642,3.0589,3.0585,3.0618,3.0589,3.0621,3.0657,3.0683,3.0694,3.0694,3.0694,3.0694,3.0694,3.0694,3.0694,3.0694,3.0694,3.0694,3.0694,3.0694,3.0694,3.0694,3.0694,3.0694,3.0694,3.0694,3.0694,3.0694,3.0694,3.0706,3.0695,3.0665,3.0637,3.0606,3.0642,3.0655,3.0668,3.0659,3.0652,3.0671,3.0709,3.0342,2.9923,2.9466,2.8707,2.8048,2.7584,2.7545,2.7545,2.7545,2.8677,2.9426,2.9455,3.0247,3.0719,3.0756,3.0672,3.0633,3.0642,3.0625,3.0595,3.0593,3.0607,3.06,3.0598,3.0515,3.0447,2.3407,0.0,2.366,2.3764,2.3837,2.3886,0.0,0.0,2.4142,0.0,0.0,0.0,0.0,0.0,0.0,0.0,0.0,0.0,0.0,0.0,0.0,0.0,0.0,0.0,0.0,0.0,0.0,0.0,0.0,2.9701,2.9701,2.9495,2.9476,2.9683,2.9522,2.9548,2.9813,2.9966,3.0171,3.0448,3.0561,3.0649,3.0694,3.0694,3.0694,3.069,3.0645,3.0653,3.071,3.0645,3.0653,3.0694,3.0694,3.0694,3.0694,3.0694,3.0694,3.0694,3.0694,3.0694,3.0694,3.0694,3.0694,3.0694,3.0694,3.0694,3.0694,3.0694,3.0694,3.0694,3.0694,3.0694,3.0694,3.0694,3.0694,3.069,3.0706,3.0656,3.0637,3.0695,3.0694,3.071,3.0721,3.071,3.0706,3.0749,3.0712,3.0462,2.9848,2.9548,2.9171,2.8571,2.8496,2.8496,2.8496,2.9251,2.9758,2.9796,3.0371,3.071,3.0758,3.0647,3.0605,3.0603,3.0603,3.0603,3.0603,3.0595,3.0588,3.055,3.0444,3.0354,0.0,2.3505,0.0,2.3742,2.3937,2.4084,0.0,0.0,0.0,0.0,0.0,0.0,0.0,0.0,0.0,0.0,0.0,0.0,0.0,0.0,0.0,0.0,0.0,0.0,0.0,0.0,0.0,0.0,0.0,2.9701,2.9701,2.8923,2.8848,2.9664,2.9029,2.9063,2.9896,3.0207,3.0438,3.0595,3.0661,3.069,3.0694,3.0694,3.0694,3.0694,3.071,3.069,3.0694,3.071,3.069,3.0694,3.0694,3.0694,3.0694,3.0694,3.0694,3.0694,3.0694,3.0694,3.0694,3.0694,3.0694,3.0694,3.0694,3.0694,3.0694,3.0694,3.0694,3.0694,3.0694,3.0694,3.0694,3.0694,3.0694,3.0706,3.0707,3.0698,3.0698,3.0703,3.0709,3.071,3.0773,3.0739,3.0738,3.0879,3.0784,3.0714,3.0718,2.9955,2.9386,2.9347,2.9347,2.9347,2.9347,3.0125,3.0625,3.0644,3.0678,3.0675,3.061,3.06,3.0599,3.0607,3.0607,3.0607,3.0607,3.0602,3.052,3.0403,3.0398,3.0298,0.0,0.0,0.0,2.3742,2.3947,2.4094,2.4094,2.4191,2.4321,0.0,0.0,0.0,0.0,0.0,0.0,0.0,0.0,0.0,0.0,0.0,0.0,0.0,0.0,0.0,0.0,0.0,0.0,0.0,0.0,0.0,2.8106,2.7848,2.7836,2.8137,2.7946,2.8058,2.8549,2.9303,2.9748,2.9842,3.0411,3.0694,3.0694,3.0694,3.0694,3.0694,3.0694,3.0694,3.0694,3.0694,3.0694,3.0694,3.0694,3.0707,3.0704,3.0704,3.0736,3.0753,3.0753,3.0742,3.0704,3.0704,3.0691,3.0694,3.0694,3.0694,3.0694,3.0694,3.0694,3.0694,3.0694,3.0694,3.0704,3.0706,3.0723,3.0763,3.0759,3.075,3.0768,3.0761,3.0795,3.084,3.0858,3.084,3.084,3.0894,3.0859,3.0838,3.0859,3.0565,3.0367,3.0368,3.0365,3.0364,3.0366,3.0644,3.082,3.0774,3.0721,3.0664,3.0597,3.0603,3.0595,3.0598,3.053,3.046,3.046,3.046,3.0417,3.0343,3.0343,3.0247,2.3487,0.0,0.0,0.0,2.3978,2.4171,2.4171,0.0,2.4462,0.0,0.0,0.0,0.0,0.0,0.0,0.0,0.0,0.0,0.0,0.0,0.0,0.0,0.0,0.0,0.0,0.0,0.0,0.0,0.0,0.0,2.7219,2.703,2.6934,2.6964,2.7343,2.7631,2.782,2.8533,2.9074,2.9408,2.9991,3.0422,3.0694,3.0694,3.0694,3.0694,3.0694,3.0694,3.0694,3.0694,3.0694,3.0694,3.0694,3.0707,3.0707,3.0697,3.0734,3.0769,3.0796,3.0769,3.0737,3.0737,3.0722,3.0724,3.0714,3.0691,3.0707,3.0697,3.0694,3.0694,3.0694,3.0691,3.0703,3.0737,3.0774,3.0792,3.0792,3.0799,3.0801,3.08,3.0837,3.0865,3.0865,3.0869,3.0871,3.0908,3.0891,3.0893,3.0894,3.0895,3.0896,3.0894,3.0897,3.0898,3.0897,3.0877,3.0832,3.077,3.0691,3.0652,3.0595,3.0549,3.054,3.054,3.0417,3.0334,3.0298,3.0334,3.0317,3.0233,3.0233,3.0159,0.0,0.0,0.0,0.0,0.0,0.0,2.4321,0.0,2.47,0.0,0.0,0.0,0.0,0.0,0.0,0.0,0.0,0.0,0.0,0.0,0.0,0.0,0.0,0.0,0.0,0.0,0.0,0.0,0.0,2.7226,2.7226,2.6556,2.62,2.6262,2.7225,2.7768,2.7822,2.7989,2.8492,2.9331,2.935,2.9816,3.0655,3.0655,3.0674,3.0694,3.0694,3.0694,3.0694,3.0694,3.0694,3.0694,3.0694,3.0694,3.0697,3.0694,3.0706,3.0712,3.0777,3.0804,3.0804,3.0804,3.0801,3.0796,3.0712,3.0703,3.0697,3.0704,3.0694,3.0694,3.0694,3.0706,3.072,3.0776,3.0797,3.0801,3.0801,3.0801,3.0801,3.0801,3.0795,3.08,3.08,3.08,3.0822,3.0887,3.0907,3.0909,3.0894,3.0894,3.0894,3.0894,3.0894,3.0895,3.0897,3.0845,3.0762,3.0691,3.0633,3.0595,3.0598,3.0479,3.0392,3.0386,3.0311,3.0226,3.0101,3.0233,3.0233,3.0094,3.0094,3.0015,2.3949,0.0,0.0,0.0,0.0,0.0,2.4444,2.4588,2.4715,0.0,0.0,0.0,0.0,0.0,0.0,0.0,0.0,0.0,0.0,0.0,0.0,0.0,0.0,0.0,0.0,0.0,0.0,0.0,2.5568,2.5568,2.5568,2.5501,2.551,2.5573,2.5943,2.6156,2.6169,2.687,2.7349,2.7605,2.8181,2.8919,2.9758,2.9758,3.0108,3.0694,3.0694,3.0694,3.0694,3.0694,3.0694,3.0694,3.0694,3.0707,3.0716,3.0745,3.0776,3.0776,3.0795,3.0792,3.0798,3.0798,3.0796,3.0796,3.0712,3.0703,3.0706,3.0698,3.0691,3.0704,3.0689,3.0742,3.0776,3.0798,3.08,3.079,3.079,3.079,3.079,3.079,3.0805,3.08,3.08,3.08,3.0801,3.0823,3.0823,3.0823,3.0825,3.0868,3.0889,3.0826,3.0871,3.0894,3.0892,3.0798,3.0712,3.0697,3.0633,3.0527,3.0381,3.0346,3.0279,3.0183,3.0022,2.9977,3.0019,3.0109,3.0094,2.9972,2.9972,2.9916,0.0,0.0,0.0,0.0,0.0,0.0,2.4545,2.465,2.4757,0.0,0.0,0.0,0.0,0.0,0.0,0.0,0.0,0.0,0.0,0.0,0.0,0.0,0.0,0.0,0.0,0.0,0.0,2.4986,2.4986,2.4999,2.5013,2.5159,2.5261,2.5306,2.5432,2.5495,2.5495,2.6062,2.6536,2.6906,2.7388,2.8045,2.8861,2.9233,2.968,3.0185,3.0538,3.0694,3.0694,3.0694,3.0694,3.0694,3.0694,3.0701,3.0706,3.0786,3.0798,3.0797,3.0801,3.0801,3.08,3.08,3.0794,3.0799,3.0746,3.0737,3.0735,3.0737,3.0739,3.0745,3.0746,3.0775,3.0801,3.0798,3.0791,3.08,3.08,3.08,3.08,3.08,3.08,3.08,3.08,3.08,3.08,3.08,3.08,3.08,3.08,3.0823,3.0844,3.0801,3.0819,3.0817,3.0815,3.0728,3.0669,3.0659,3.0614,3.0524,3.0394,3.0273,3.0188,3.0099,2.9888,2.9798,2.9876,2.9899,2.9883,2.9825,2.9825,2.9745,0.0,0.0,0.0,0.0,0.0,0.0,2.4607,2.4716,2.4837,2.4921,0.0,0.0,0.0,0.0,0.0,0.0,0.0,0.0,0.0,0.0,0.0,0.0,0.0,0.0,0.0,2.5151,2.5114,2.5114,2.512,2.5157,2.5203,2.5271,2.5317,2.5317,2.5448,2.5506,2.5506,2.5577,2.599,2.677,2.677,2.7174,2.7987,2.8764,2.9214,2.9447,3.0224,3.0616,3.0694,3.0694,3.0694,3.0694,3.0701,3.07,3.0706,3.0778,3.0807,3.08,3.08,3.0797,3.0795,3.0795,3.0796,3.0798,3.0801,3.08,3.0799,3.0793,3.0809,3.0792,3.08,3.0801,3.0799,3.0806,3.08,3.08,3.08,3.08,3.08,3.08,3.08,3.08,3.08,3.08,3.08,3.08,3.08,3.08,3.08,3.08,3.0799,3.0796,3.0732,3.0691,3.0694,3.0625,3.0586,3.0606,3.0593,3.052,3.0447,3.0202,3.006,3.0023,2.9799,2.9664,2.9673,2.9692,2.9673,2.9645,2.9655,2.955,0.0,0.0,0.0,0.0,0.0,0.0,2.4757,2.4818,2.4921,0.0,0.0,0.0,0.0,0.0,0.0,0.0,0.0,0.0,0.0,0.0,0.0,0.0,0.0,0.0,0.0,2.5199,2.5187,2.5187,2.5231,2.5275,2.5285,2.5397,2.546,2.546,2.5531,2.5586,2.5586,2.5595,2.5698,2.5854,2.5854,2.63,2.7136,2.7314,2.8126,2.9408,2.9583,3.0049,3.0694,3.0694,3.0694,3.0697,3.0689,3.0694,3.0713,3.0771,3.0801,3.08,3.0808,3.0803,3.0805,3.0805,3.0791,3.0798,3.0801,3.0801,3.08,3.0793,3.0801,3.0795,3.0801,3.0798,3.0807,3.0801,3.08,3.08,3.08,3.08,3.08,3.08,3.08,3.08,3.08,3.08,3.08,3.08,3.08,3.08,3.08,3.08,3.0773,3.0726,3.0715,3.0675,3.0623,3.0568,3.0537,3.0604,3.0506,3.0302,3.0025,2.9966,2.9842,2.9617,2.956,2.9511,2.9468,2.9626,2.956,2.9301,2.9412,2.9283,0.0,0.0,0.0,2.4761,0.0,0.0,0.0,2.4985,2.5031,2.5126,0.0,0.0,0.0,0.0,0.0,0.0,0.0,0.0,0.0,0.0,0.0,0.0,0.0,0.0,0.0,2.5191,2.5208,2.5248,2.5285,2.5307,2.5351,2.5448,2.5495,2.5495,2.5573,2.5601,2.5601,2.5601,2.5601,2.5601,2.5601,2.5834,2.6262,2.6692,2.7352,2.8207,2.9075,2.9683,3.0097,3.0558,3.073,3.0704,3.0696,3.0451,3.0104,3.0136,2.9898,2.9555,2.9542,2.9539,2.956,3.0006,3.0147,3.0232,3.0664,3.0806,3.0793,3.08,3.0795,3.0804,3.0794,3.081,3.08,3.08,3.08,3.08,3.08,3.08,3.08,3.08,3.08,3.08,3.08,3.08,3.08,3.08,3.08,3.0796,3.0742,3.0758,3.0724,3.0653,3.0617,3.0598,3.0556,3.0482,3.0465,3.05,3.0442,3.0286,3.0011,2.9946,2.9769,2.947,2.9441,2.944,2.9407,2.9509,2.947,2.9289,2.9275,2.9108,0.0,0.0,0.0,0.0,0.0,2.498,0.0,0.0,0.0,0.0,0.0,0.0,0.0,0.0,0.0,0.0,0.0,0.0,0.0,0.0,0.0,0.0,0.0,0.0,0.0,2.5203,2.5242,2.5306,2.5317,2.5365,2.5423,2.5484,2.5513,2.5513,2.558,2.5601,2.5601,2.5601,2.5601,2.5601,2.5601,2.5601,2.5621,2.632,2.675,2.6986,2.8393,2.9168,2.9474,3.0239,3.0528,3.0479,3.0462,3.0077,2.9487,2.9334,2.8852,2.8303,2.8303,2.8264,2.834,2.9035,2.9363,2.9652,3.0538,3.0806,3.0804,3.0796,3.08,3.08,3.08,3.08,3.08,3.08,3.08,3.08,3.08,3.08,3.08,3.08,3.08,3.08,3.08,3.08,3.08,3.08,3.0796,3.0765,3.0713,3.0682,3.0653,3.0582,3.0527,3.0492,3.0472,3.0422,3.0373,3.0329,3.0349,3.0241,3.0011,2.9867,2.9672,2.9407,2.9396,2.9396,2.9396,2.9365,2.9336,2.9344,2.9152,2.8934,0.0,0.0,0.0,0.0,2.5074,0.0,0.0,0.0,2.518,2.521,0.0,0.0,0.0,0.0,0.0,0.0,0.0,0.0,0.0,0.0,0.0,0.0,0.0,0.0,0.0,0.0,2.5282,2.5311,2.541,2.548,2.5488,2.5544,2.5592,2.5592,2.5598,2.5601,2.5601,2.5601,2.5601,2.5601,2.5601,2.5601,2.5601,2.5698,2.6164,2.6906,2.711,2.8076,2.9508,2.9604,2.964,2.9644,2.9648,2.9589,2.9412,2.8692,2.837,2.8293,2.8293,2.8292,2.8309,2.8405,2.8927,2.9663,3.054,3.0803,3.0792,3.0794,3.0798,3.08,3.08,3.08,3.08,3.08,3.08,3.08,3.08,3.08,3.08,3.08,3.08,3.08,3.08,3.08,3.08,3.08,3.0758,3.0715,3.0691,3.0645,3.0598,3.0528,3.0506,3.0482,3.0414,3.039,3.0317,3.0143,3.0129,2.9981,2.9671,2.9531,2.9429,2.9407,2.9396,2.9396,2.9396,2.9218,2.9123,2.9141,2.8922,2.8731,0.0,0.0,0.0,0.0,0.0,0.0,2.5274,0.0,2.5279,0.0,0.0,0.0,0.0,0.0,0.0,0.0,2.5146,0.0,0.0,0.0,0.0,0.0,0.0,0.0,0.0,0.0,0.0,0.0,0.0,2.5513,2.5567,2.5589,2.5601,2.5601,2.5601,2.5601,2.5601,2.5601,2.5601,2.5601,2.5601,2.5601,2.5601,2.5601,2.5795,2.6209,2.7227,2.8062,2.8823,2.9842,3.0252,3.0206,2.9702,2.8889,2.7944,2.7602,2.7181,2.6799,2.6785,2.6788,2.6965,2.7978,2.8831,2.9665,3.0531,3.0809,3.0794,3.0796,3.0799,3.08,3.08,3.08,3.08,3.08,3.08,3.08,3.08,3.08,3.08,3.08,3.08,3.08,3.08,3.08,3.0795,3.0758,3.0722,3.0667,3.0586,3.0564,3.0524,3.0455,3.0444,3.0422,3.041,3.0299,3.0189,3.0115,3.036,3.0439,3.0293,3.0628,3.079,3.079,3.0228,2.9913,2.9913,2.9253,2.8922,2.8922,2.8718,2.8582,2.5317,0.0,0.0,0.0,0.0,0.0,0.0,0.0,0.0,0.0,0.0,0.0,0.0,0.0,0.0,0.0,0.0,0.0,0.0,0.0,0.0,0.0,0.0,0.0,0.0,0.0,0.0,0.0,0.0,0.0,2.5598,2.5601,2.5601,2.5601,2.5601,2.5601,2.5601,2.5601,2.5601,2.5601,2.5601,2.5601,2.5601,2.5601,2.561,2.5687,2.7197,2.7973,2.8319,2.9817,3.0438,3.0371,2.9758,2.8571,2.7228,2.6981,2.6541,2.6026,2.5783,2.5696,2.5993,2.7729,2.87,2.9361,3.0461,3.0795,3.0796,3.0799,3.08,3.08,3.08,3.08,3.08,3.08,3.08,3.08,3.08,3.08,3.08,3.08,3.08,3.0799,3.0771,3.0796,3.0771,3.0715,3.0677,3.063,3.05,3.0472,3.0441,3.0416,3.0404,3.0392,3.0317,3.0189,3.015,3.0281,3.0584,3.0842,3.1066,3.1536,3.1771,3.1714,3.1001,3.0594,3.0515,2.9527,2.9046,2.9046,2.8677,2.8492,0.0,0.0,0.0,2.5484,0.0,0.0,0.0,0.0,2.5395,0.0,0.0,0.0,0.0,0.0,0.0,0.0,0.0,0.0,0.0,0.0,0.0,0.0,0.0,0.0,0.0,0.0,0.0,0.0,0.0,0.0,2.5601,2.5601,2.5601,2.5601,2.5601,2.5601,2.5601,2.5601,2.5601,2.5601,2.5601,2.5601,2.5601,2.5601,2.5593,2.5658,2.6542,2.7425,2.8279,2.9175,2.9535,2.953,2.9507,2.8944,2.8056,2.7219,2.6911,2.6842,2.5998,2.5698,2.6,2.7736,2.8321,2.8653,3.0293,3.08,3.08,3.08,3.08,3.08,3.08,3.08,3.08,3.08,3.08,3.08,3.08,3.08,3.08,3.08,3.08,3.0773,3.072,3.0762,3.0771,3.0715,3.0642,3.0587,3.0515,3.0444,3.041,3.0404,3.0404,3.0317,3.0129,3.0089,3.0293,3.0744,3.0675,3.0968,3.1749,3.1794,3.1703,3.152,3.147,3.1323,3.1068,3.0133,2.9679,2.966,2.8871,2.8492,0.0,0.0,2.5548,2.5562,0.0,0.0,0.0,0.0,0.0,0.0,0.0,0.0,0.0,0.0,0.0,0.0,0.0,0.0,0.0,0.0,0.0,0.0,0.0,0.0,0.0,0.0,0.0,0.0,0.0,0.0,0.0,2.5601,2.5601,2.5601,2.5601,2.5601,2.5601,2.56,2.5598,2.5598,2.5607,2.56,2.56,2.56,2.592,2.6516,2.7376,2.8242,2.912,3.0006,3.0362,3.0367,3.0357,3.0189,2.9749,2.8288,2.7764,2.7749,2.745,2.7387,2.7612,2.8725,2.9119,2.9377,3.047,3.08,3.08,3.08,3.08,3.08,3.08,3.08,3.08,3.08,3.08,3.08,3.08,3.08,3.08,3.08,3.0767,3.0726,3.0694,3.0675,3.0639,3.0587,3.0548,3.0515,3.0444,3.0408,3.0404,3.0404,3.0273,3.0182,3.0115,3.0373,3.0584,3.0657,3.1622,3.2314,3.2593,3.3101,3.3356,3.3284,3.2625,3.2173,3.1951,3.098,3.039,3.0216,2.9464,2.8819,2.5598,2.5596,0.0,2.5593,2.5576,0.0,2.5634,0.0,0.0,0.0,0.0,0.0,0.0,0.0,0.0,0.0,0.0,0.0,0.0,2.5602,0.0,0.0,0.0,0.0,0.0,0.0,0.0,2.5601,2.5601,0.0,0.0,0.0,2.5601,2.5601,2.5601,2.5593,2.5593,2.5601,2.5602,2.5602,2.5602,2.5609,2.5609,2.5609,2.6082,2.6986,2.7832,2.8709,2.9602,3.045,3.0807,3.0794,3.0794,3.0804,3.0633,2.9186,2.8468,2.8199,2.8207,2.8241,2.8427,2.9248,2.9547,2.9749,3.0567,3.08,3.08,3.08,3.08,3.08,3.08,3.08,3.08,3.08,3.08,3.08,3.08,3.0774,3.0767,3.0767,3.0715,3.0751,3.1038,3.1052,3.1017,3.0975,3.096,3.1042,3.1268,3.1226,3.1175,3.1175,3.0999,3.086,3.0823,3.1026,3.1246,3.1452,3.2425,3.3131,3.3398,3.3918,3.4173,3.4099,3.3456,3.2973,3.2678,3.1767,3.1189,3.0921,3.0154,2.9497]}]]